[[{"header":{"parameterUnit":"m.s-1","parameterCategory":1,"la1":30.6,"la2":29.2853,"lo1":-89.7004,"lo2":-87.6739,"dx":0.0162,"dy":0.0183,"nx":112,"ny":82,"refTime":"2023-02-08T06:00:00:Z","depth":0,"parameterNumber":2,"parameterNumberName":"U-component_of_WINDS"},"data":[0.0,0.0,0.0,0.0,0.0,0.0,0.0,0.0,0.0,0.0,0.0,0.0,0.0,0.0,0.0,0.0,0.0,0.0,0.0,0.0,0.0,0.0,0.0,0.0,0.0,0.0,0.0,0.0,0.0,0.0,0.0,0.0,0.0,0.0,0.0,0.0,0.0,0.0,0.0,0.0,0.0,0.0,0.0,0.0,0.0,0.0,0.0,0.0,0.0,0.0,0.0,0.0,0.0,0.0,0.0,0.0,0.0,0.0,0.0,0.0,0.0,0.0,0.0,0.0,0.0,0.0,0.0,0.0,0.0,0.0,0.0,0.0,0.0,0.0,0.0,0.0,0.0,0.0,0.0,0.0,0.0,0.0,0.0,0.0,0.0,0.0,0.0,0.0,0.0,0.0,-7.0332,-7.2585,-7.6789,-7.8784,-7.7207,-7.7361,-7.6669,-7.463,0.0,0.0,0.0,0.0,0.0,0.0,0.0,0.0,0.0,0.0,0.0,0.0,0.0,0.0,0.0,0.0,0.0,0.0,0.0,0.0,0.0,0.0,0.0,0.0,0.0,0.0,0.0,0.0,0.0,0.0,0.0,0.0,0.0,0.0,0.0,0.0,0.0,0.0,0.0,0.0,0.0,0.0,0.0,0.0,0.0,0.0,0.0,0.0,0.0,0.0,0.0,0.0,0.0,0.0,0.0,0.0,0.0,0.0,0.0,0.0,0.0,0.0,0.0,0.0,0.0,0.0,0.0,0.0,0.0,0.0,0.0,0.0,0.0,0.0,0.0,0.0,0.0,0.0,0.0,0.0,0.0,0.0,0.0,0.0,0.0,0.0,0.0,0.0,0.0,0.0,0.0,0.0,0.0,0.0,0.0,0.0,0.0,0.0,0.0,0.0,0.0,0.0,0.0,0.0,-7.2285,-7.3407,-7.6044,-7.7284,-7.6284,-7.4322,-7.3322,-7.3668,0.0,0.0,0.0,0.0,0.0,0.0,0.0,0.0,0.0,0.0,0.0,0.0,0.0,0.0,0.0,0.0,0.0,0.0,0.0,0.0,0.0,0.0,0.0,0.0,0.0,0.0,0.0,0.0,0.0,0.0,0.0,0.0,0.0,0.0,0.0,0.0,0.0,0.0,0.0,0.0,0.0,0.0,0.0,0.0,0.0,0.0,0.0,0.0,0.0,0.0,0.0,0.0,0.0,0.0,0.0,0.0,0.0,0.0,0.0,0.0,0.0,0.0,0.0,0.0,0.0,0.0,0.0,0.0,0.0,0.0,0.0,0.0,0.0,0.0,0.0,0.0,0.0,0.0,0.0,0.0,0.0,0.0,0.0,0.0,0.0,0.0,0.0,0.0,0.0,0.0,0.0,0.0,0.0,0.0,0.0,0.0,0.0,0.0,0.0,0.0,0.0,0.0,0.0,-7.2636,-7.259,-7.4834,-7.6828,-7.74,-7.6092,-7.3245,-7.2052,-7.3437,-7.0898,0.0,0.0,0.0,0.0,0.0,0.0,0.0,0.0,0.0,0.0,0.0,0.0,0.0,0.0,0.0,0.0,0.0,0.0,0.0,0.0,0.0,0.0,0.0,0.0,0.0,0.0,0.0,0.0,0.0,0.0,0.0,0.0,0.0,0.0,0.0,0.0,0.0,0.0,0.0,0.0,0.0,0.0,0.0,0.0,0.0,0.0,0.0,0.0,0.0,0.0,0.0,0.0,0.0,0.0,0.0,0.0,0.0,0.0,0.0,0.0,0.0,0.0,0.0,0.0,0.0,0.0,0.0,0.0,0.0,0.0,0.0,0.0,0.0,0.0,0.0,0.0,0.0,0.0,0.0,0.0,0.0,0.0,0.0,0.0,0.0,0.0,0.0,0.0,0.0,0.0,0.0,0.0,0.0,0.0,0.0,0.0,0.0,0.0,0.0,0.0,0.0,0.0,-7.2336,-7.1833,-7.5267,-7.6839,-7.6899,-7.5245,-7.1975,-7.0744,-7.2476,-6.8205,0.0,0.0,0.0,0.0,0.0,0.0,0.0,0.0,0.0,0.0,0.0,0.0,0.0,0.0,0.0,0.0,0.0,0.0,0.0,0.0,0.0,0.0,0.0,0.0,0.0,0.0,0.0,0.0,0.0,0.0,0.0,0.0,0.0,0.0,0.0,0.0,0.0,0.0,0.0,0.0,0.0,0.0,0.0,0.0,0.0,0.0,0.0,0.0,0.0,0.0,0.0,0.0,0.0,0.0,0.0,0.0,0.0,0.0,0.0,0.0,0.0,0.0,0.0,0.0,0.0,0.0,0.0,0.0,0.0,0.0,0.0,0.0,0.0,0.0,0.0,0.0,0.0,0.0,0.0,0.0,0.0,0.0,0.0,0.0,0.0,0.0,0.0,0.0,0.0,0.0,0.0,0.0,0.0,0.0,0.0,0.0,0.0,0.0,0.0,0.0,0.0,0.0,-7.1231,-7.0026,-7.3339,-7.4437,-7.4284,-7.2591,-6.9321,-6.809,-6.986,-6.6667,0.0,0.0,0.0,0.0,0.0,0.0,0.0,0.0,0.0,0.0,0.0,0.0,0.0,0.0,0.0,0.0,0.0,0.0,0.0,0.0,0.0,0.0,0.0,0.0,0.0,0.0,0.0,0.0,0.0,0.0,0.0,0.0,0.0,0.0,0.0,0.0,0.0,0.0,0.0,0.0,0.0,0.0,0.0,0.0,0.0,0.0,0.0,0.0,0.0,0.0,0.0,0.0,0.0,0.0,0.0,0.0,0.0,0.0,0.0,0.0,0.0,0.0,0.0,0.0,0.0,0.0,0.0,0.0,0.0,0.0,0.0,0.0,0.0,0.0,0.0,0.0,0.0,0.0,0.0,0.0,0.0,0.0,0.0,0.0,0.0,0.0,0.0,0.0,0.0,0.0,0.0,0.0,0.0,0.0,0.0,0.0,0.0,0.0,0.0,0.0,0.0,0.0,-7.1236,-7.0375,-7.3206,-7.3283,-7.2668,-7.1475,-6.8282,-6.709,-6.8783,0.0,0.0,0.0,0.0,0.0,0.0,0.0,0.0,0.0,0.0,0.0,0.0,0.0,0.0,0.0,0.0,0.0,0.0,0.0,0.0,0.0,0.0,0.0,0.0,0.0,0.0,0.0,0.0,0.0,0.0,0.0,0.0,0.0,0.0,0.0,0.0,0.0,0.0,0.0,0.0,0.0,0.0,0.0,0.0,0.0,0.0,0.0,0.0,0.0,0.0,0.0,0.0,0.0,0.0,0.0,0.0,0.0,0.0,0.0,0.0,0.0,0.0,0.0,0.0,0.0,0.0,0.0,0.0,0.0,0.0,0.0,0.0,0.0,0.0,0.0,0.0,0.0,0.0,0.0,0.0,0.0,0.0,0.0,0.0,0.0,0.0,0.0,0.0,0.0,0.0,0.0,0.0,0.0,0.0,0.0,0.0,0.0,0.0,0.0,0.0,0.0,0.0,-7.2437,-7.0437,-6.9667,-7.1668,-7.1822,-7.1206,-6.9821,-6.6628,-6.5513,-6.7475,0.0,0.0,0.0,0.0,0.0,0.0,0.0,0.0,0.0,0.0,0.0,0.0,0.0,0.0,0.0,0.0,0.0,0.0,0.0,0.0,0.0,0.0,0.0,0.0,0.0,0.0,0.0,0.0,0.0,0.0,0.0,0.0,0.0,0.0,0.0,0.0,0.0,0.0,0.0,0.0,0.0,0.0,0.0,0.0,0.0,0.0,0.0,0.0,0.0,0.0,0.0,0.0,0.0,0.0,0.0,0.0,0.0,0.0,0.0,0.0,0.0,0.0,0.0,0.0,0.0,0.0,0.0,0.0,0.0,0.0,0.0,0.0,0.0,0.0,0.0,0.0,0.0,0.0,0.0,0.0,0.0,0.0,0.0,0.0,0.0,0.0,0.0,0.0,0.0,0.0,0.0,0.0,0.0,0.0,0.0,0.0,0.0,0.0,0.0,0.0,0.0,0.0,-7.0552,-6.8629,-6.7398,-6.8321,-6.986,-6.9821,-6.7282,-6.4012,-6.3166,0.0,0.0,0.0,0.0,0.0,0.0,0.0,0.0,0.0,0.0,0.0,0.0,0.0,0.0,0.0,0.0,0.0,0.0,0.0,0.0,0.0,0.0,0.0,0.0,0.0,0.0,0.0,0.0,0.0,0.0,0.0,0.0,0.0,0.0,0.0,0.0,0.0,0.0,0.0,0.0,0.0,0.0,0.0,0.0,0.0,0.0,0.0,0.0,0.0,0.0,0.0,0.0,0.0,0.0,0.0,0.0,0.0,0.0,0.0,0.0,0.0,0.0,0.0,0.0,0.0,0.0,0.0,0.0,0.0,0.0,0.0,0.0,0.0,0.0,0.0,0.0,0.0,0.0,0.0,0.0,0.0,0.0,0.0,0.0,0.0,0.0,0.0,0.0,0.0,0.0,0.0,0.0,0.0,0.0,0.0,0.0,0.0,0.0,0.0,0.0,0.0,0.0,0.0,-6.9783,-6.7282,-6.6128,-6.8205,-6.8282,-6.7667,-6.6359,-6.3705,-6.2666,-6.3974,0.0,0.0,0.0,0.0,0.0,0.0,0.0,0.0,0.0,0.0,0.0,0.0,0.0,0.0,0.0,0.0,0.0,0.0,0.0,0.0,0.0,0.0,0.0,0.0,0.0,0.0,0.0,0.0,0.0,0.0,0.0,0.0,0.0,0.0,0.0,0.0,0.0,0.0,0.0,0.0,0.0,0.0,0.0,0.0,0.0,0.0,0.0,0.0,0.0,0.0,0.0,0.0,0.0,0.0,0.0,0.0,0.0,0.0,0.0,0.0,0.0,0.0,0.0,0.0,0.0,0.0,0.0,0.0,0.0,0.0,0.0,0.0,0.0,0.0,0.0,0.0,0.0,0.0,0.0,0.0,0.0,0.0,0.0,0.0,0.0,0.0,0.0,0.0,0.0,0.0,0.0,0.0,0.0,0.0,0.0,0.0,0.0,0.0,0.0,0.0,0.0,0.0,-6.8975,-6.6513,-6.5205,-6.6705,-6.6744,-6.6013,-6.4512,-6.232,-6.1281,-6.1743,0.0,0.0,0.0,0.0,0.0,0.0,0.0,0.0,0.0,0.0,0.0,0.0,0.0,0.0,0.0,0.0,0.0,0.0,0.0,0.0,0.0,0.0,0.0,0.0,0.0,0.0,0.0,0.0,0.0,0.0,0.0,0.0,0.0,0.0,0.0,0.0,0.0,0.0,0.0,0.0,0.0,0.0,0.0,0.0,0.0,0.0,0.0,0.0,0.0,0.0,0.0,0.0,0.0,0.0,0.0,0.0,0.0,0.0,0.0,0.0,0.0,0.0,0.0,0.0,0.0,0.0,0.0,0.0,0.0,0.0,0.0,0.0,0.0,0.0,0.0,0.0,0.0,0.0,0.0,0.0,0.0,0.0,0.0,0.0,0.0,0.0,0.0,0.0,0.0,0.0,0.0,0.0,0.0,0.0,0.0,0.0,0.0,0.0,0.0,0.0,0.0,0.0,-6.809,-6.6051,-6.4512,-6.4589,-6.532,-6.4782,-6.232,-6.0589,-5.9588,-5.9511,0.0,0.0,0.0,0.0,0.0,0.0,0.0,0.0,0.0,0.0,0.0,0.0,0.0,0.0,0.0,0.0,0.0,0.0,0.0,0.0,0.0,0.0,0.0,0.0,0.0,0.0,0.0,0.0,0.0,0.0,0.0,0.0,0.0,0.0,0.0,0.0,0.0,0.0,0.0,0.0,0.0,0.0,0.0,0.0,0.0,0.0,0.0,0.0,0.0,0.0,0.0,0.0,0.0,0.0,0.0,0.0,0.0,0.0,0.0,0.0,-8.2304,-8.2219,0.0,0.0,0.0,0.0,0.0,0.0,0.0,0.0,0.0,0.0,0.0,0.0,0.0,0.0,0.0,0.0,0.0,0.0,0.0,0.0,0.0,0.0,0.0,0.0,0.0,0.0,0.0,0.0,0.0,0.0,0.0,0.0,0.0,0.0,0.0,0.0,0.0,0.0,0.0,0.0,-6.7244,-6.5166,-6.3858,-6.4551,-6.4782,-6.4128,-6.2243,-6.1127,-6.0242,-5.955,-5.8242,0.0,0.0,0.0,0.0,0.0,0.0,0.0,0.0,0.0,0.0,0.0,0.0,0.0,0.0,0.0,0.0,0.0,0.0,0.0,0.0,0.0,0.0,0.0,0.0,0.0,0.0,0.0,0.0,0.0,0.0,0.0,0.0,0.0,0.0,0.0,0.0,0.0,0.0,0.0,0.0,0.0,0.0,0.0,0.0,0.0,0.0,0.0,0.0,0.0,0.0,0.0,0.0,0.0,0.0,0.0,0.0,0.0,0.0,0.0,-8.2675,-8.211,0.0,0.0,0.0,0.0,0.0,0.0,0.0,0.0,0.0,0.0,0.0,0.0,0.0,0.0,0.0,0.0,0.0,0.0,0.0,0.0,0.0,0.0,0.0,0.0,0.0,0.0,0.0,0.0,0.0,0.0,0.0,0.0,0.0,0.0,0.0,0.0,0.0,0.0,0.0,0.0,-6.6474,-6.4282,-6.2897,-6.3358,-6.3397,-6.2858,-6.1589,-6.0666,-5.9627,-5.8357,-5.7857,0.0,0.0,0.0,0.0,0.0,0.0,0.0,0.0,0.0,0.0,0.0,0.0,0.0,0.0,0.0,0.0,0.0,0.0,0.0,0.0,0.0,0.0,0.0,0.0,0.0,0.0,0.0,0.0,0.0,0.0,0.0,0.0,0.0,0.0,0.0,0.0,0.0,0.0,0.0,0.0,0.0,0.0,0.0,0.0,0.0,0.0,0.0,0.0,0.0,0.0,0.0,0.0,0.0,-8.4971,-8.5804,-8.7497,-8.7581,-8.719,-8.6354,-8.423,-8.2923,-8.2307,-8.2051,0.0,0.0,0.0,0.0,0.0,0.0,0.0,0.0,0.0,0.0,0.0,0.0,0.0,0.0,0.0,0.0,0.0,0.0,0.0,0.0,0.0,0.0,-7.5245,-7.4976,-7.386,-7.2745,-7.2437,0.0,0.0,0.0,0.0,0.0,0.0,0.0,0.0,0.0,0.0,0.0,-6.5474,-6.3474,-6.2089,-6.2089,-6.2089,-6.1743,-6.0858,-6.0127,-5.905,-5.7511,-5.7857,-5.7511,0.0,0.0,0.0,0.0,0.0,0.0,0.0,0.0,0.0,0.0,0.0,0.0,0.0,0.0,0.0,0.0,0.0,0.0,0.0,0.0,0.0,0.0,0.0,0.0,0.0,0.0,0.0,0.0,0.0,0.0,0.0,0.0,-7.2187,-7.4641,0.0,0.0,0.0,0.0,0.0,0.0,0.0,0.0,0.0,0.0,0.0,0.0,0.0,-8.3788,-8.4531,-8.4873,-8.5915,-8.7627,-8.7611,-8.8078,-8.9006,-8.9417,-8.9471,-8.9155,-8.8559,0.0,-8.3591,-8.3074,0.0,0.0,0.0,0.0,0.0,0.0,0.0,0.0,0.0,0.0,0.0,0.0,0.0,0.0,0.0,0.0,0.0,0.0,0.0,0.0,0.0,0.0,-7.2322,-7.0898,-7.036,-6.9783,-6.8282,-7.1514,-7.4553,-7.3937,-7.2629,-7.1822,0.0,0.0,0.0,0.0,0.0,0.0,-6.3858,-6.2743,-6.2089,-6.2089,-6.2089,-6.1743,-6.0858,-6.0704,-6.0204,-5.9242,-5.7896,-5.7434,-5.7934,-5.7473,0.0,0.0,0.0,0.0,0.0,0.0,0.0,0.0,0.0,0.0,0.0,0.0,0.0,0.0,0.0,0.0,0.0,0.0,0.0,0.0,0.0,0.0,0.0,0.0,0.0,0.0,0.0,0.0,0.0,-7.4514,-7.5463,-7.635,-7.7982,-7.9562,0.0,0.0,0.0,0.0,0.0,0.0,0.0,0.0,0.0,-8.3581,-8.41,-8.5195,-8.7031,-8.6997,-8.8045,-9.0224,-9.011,-9.0809,-9.2204,-9.2529,-9.2576,-9.2338,-9.2221,-9.0314,-8.7117,-8.4932,-8.3154,-8.1655,0.0,0.0,0.0,0.0,-7.9714,-7.9942,-7.9134,-7.8502,-7.805,-7.7882,0.0,0.0,0.0,0.0,0.0,0.0,0.0,-7.6169,-7.4476,-7.3476,-7.2514,-7.0783,-7.036,-6.9898,-6.8205,-6.959,-7.0898,-7.0052,-7.009,-7.0206,-7.009,-6.9052,0.0,0.0,0.0,-6.4012,-6.2781,-6.1897,-6.1358,-6.1358,-6.1358,-6.1204,-6.0819,-6.0781,-6.0242,-5.8896,-5.8127,-5.7473,-5.6857,-5.6934,-5.7357,0.0,0.0,0.0,0.0,0.0,0.0,0.0,0.0,0.0,0.0,0.0,0.0,0.0,0.0,0.0,0.0,0.0,0.0,0.0,0.0,0.0,0.0,0.0,0.0,0.0,0.0,0.0,0.0,-7.6062,-7.7319,-7.7369,-7.8884,-8.037,0.0,0.0,0.0,0.0,0.0,0.0,-8.164,-8.1875,-8.3086,-8.5508,-8.5976,-8.7304,-8.9565,-8.9469,-9.0537,-9.2773,-9.2704,-9.3486,-9.5066,-9.5354,-9.5303,-9.5066,-9.499,-9.331,-9.0325,-8.694,-8.4055,-8.1662,-8.0717,-7.9852,-7.9161,-7.9056,-7.9389,-7.9746,-7.9323,-7.8746,-7.8092,-7.7476,-7.6399,-7.5284,-7.4861,0.0,0.0,0.0,0.0,-7.5014,-7.3553,-7.3014,-7.2514,-7.1206,-7.0744,-7.0206,-6.8744,-6.8398,-6.8013,-6.6705,-6.7321,-6.7936,-6.7513,-6.6705,0.0,-6.532,-6.4128,-6.2935,-6.1897,-6.1204,-6.0781,-6.0781,-6.0781,-6.0781,-6.0781,-6.0781,-6.0165,-5.8704,-5.8396,-5.7703,-5.6434,-5.6549,-5.6857,-5.7319,0.0,0.0,0.0,0.0,0.0,0.0,0.0,0.0,0.0,0.0,0.0,0.0,0.0,0.0,0.0,0.0,0.0,0.0,0.0,0.0,0.0,0.0,0.0,0.0,0.0,0.0,0.0,0.0,0.0,-7.6427,-7.834,0.0,0.0,0.0,0.0,-8.1054,-8.1757,-8.2578,-8.3437,-8.4258,-8.5508,-8.7304,-8.8906,-9.0497,-9.2021,-9.2635,-9.3685,-9.5117,-9.5356,-9.6,-9.6856,-9.7148,-9.7136,-9.6838,-9.6616,-9.4914,-9.2095,-8.8671,-8.5747,-8.3285,-8.1701,-8.1047,-8.0862,-8.0046,-7.9746,-7.9592,-7.7977,-7.74,-7.7361,-7.7323,-7.7246,-7.6861,-7.5207,-7.5322,0.0,0.0,-7.4207,-7.3437,-7.2514,-7.1629,-7.1014,-7.0937,-7.0321,-6.9513,-6.859,-6.8398,-6.7667,-6.5205,-6.4128,-6.3858,-6.4666,0.0,-6.3474,-6.3435,-6.3358,-6.2704,-6.1089,-6.0819,-6.0781,-6.0781,-6.0781,-6.0781,-6.0781,-6.0781,-6.0396,-5.9511,-5.8704,-5.828,-5.8165,-5.6626,-5.6549,-5.8204,-5.828,0.0,0.0,0.0,0.0,0.0,0.0,0.0,0.0,0.0,0.0,0.0,0.0,0.0,0.0,0.0,0.0,0.0,0.0,0.0,0.0,0.0,0.0,0.0,0.0,0.0,0.0,0.0,0.0,-7.8839,-7.9783,0.0,-8.1718,-8.2109,-8.1953,-8.1054,-8.1797,-8.2695,-8.3554,-8.4961,-8.7031,-8.9844,-9.1054,-9.2645,-9.4675,-9.4778,-9.5321,-9.6405,-9.6507,-9.6701,-9.7012,-9.7265,-9.7145,-9.6732,-9.6643,-9.5339,-9.3133,-9.1402,-8.8209,-8.4286,-8.2554,-8.1208,-8.0169,-7.9285,-7.9323,-7.9708,-7.9131,-7.89,-7.8554,-7.6322,-7.4899,-7.3899,-7.3283,-7.3707,-7.4207,-7.3322,-7.286,-7.2476,-7.1591,-7.1129,-7.0898,-7.0898,-7.0283,-6.9475,-6.859,-6.7975,-6.6974,-6.4974,-6.4359,-6.4051,-6.382,-6.2627,-6.1897,-6.2435,-6.205,-6.1473,-6.0896,-6.0781,-6.0781,-6.0781,-6.0781,-6.0781,-6.0781,-6.0781,-6.0204,-5.8819,-5.8473,-5.7819,-5.6665,-5.6011,-5.6242,-5.7434,-5.7473,-5.8127,0.0,0.0,0.0,0.0,0.0,0.0,0.0,0.0,0.0,0.0,0.0,0.0,0.0,0.0,0.0,0.0,0.0,0.0,0.0,0.0,0.0,0.0,0.0,0.0,0.0,-7.8402,-7.9152,-8.0754,-8.136,-8.1859,-8.2265,-8.2812,-8.2812,-8.1953,-8.2969,-8.4101,-8.5273,-8.6953,-8.9375,-9.2539,-9.3476,-9.4754,-9.6509,-9.6369,-9.6498,-9.7012,-9.7012,-9.7048,-9.713,-9.7227,-9.6927,-9.6305,-9.6216,-9.5107,-9.321,-9.2402,-8.9748,-8.5978,-8.3978,-8.1977,-8.0169,-7.9592,-7.9746,-8.0208,-7.99,-7.9631,-7.89,-7.6053,-7.4207,-7.2976,-7.2706,-7.2822,-7.2937,-7.236,-7.1975,-7.1629,-7.1052,-7.0898,-7.0898,-7.0898,-7.0283,-6.9475,-6.859,-6.7705,-6.6667,-6.532,-6.4782,-6.4243,-6.3089,-6.1973,-6.1435,-6.2012,-6.1358,-6.0896,-6.1204,-6.0973,-6.0781,-6.0781,-6.0781,-6.0781,-6.0781,-6.0781,-6.0089,-5.8396,-5.8319,-5.7665,-5.6203,-5.6126,-5.6549,-5.7434,-5.7703,-5.8511,-5.9935,0.0,0.0,0.0,0.0,0.0,0.0,0.0,0.0,0.0,0.0,0.0,0.0,0.0,0.0,0.0,0.0,0.0,0.0,0.0,0.0,0.0,0.0,0.0,-7.7589,-7.923,-8.0793,-8.1859,-8.2956,-8.3281,-8.2461,-8.3906,-8.457,-8.375,-8.5273,-8.6992,-8.8672,-9.0429,-9.2578,-9.5156,-9.6094,-9.6827,-9.7368,-9.7407,-9.7265,-9.703,-9.703,-9.713,-9.7407,-9.7091,-9.6506,-9.567,-9.5466,-9.4257,-9.2402,-9.1556,-9.0171,-8.8325,-8.5863,-8.3401,-8.117,-8.1131,-8.1093,-8.0977,-8.0131,-7.9246,-7.8207,-7.6592,-7.5476,-7.4591,-7.3822,-7.2976,-7.2322,-7.2283,-7.1668,-7.1014,-7.0937,-7.0937,-7.0937,-7.0898,-7.0283,-6.9475,-6.8629,-6.7744,-6.6898,-6.609,-6.5243,-6.4166,-6.2474,-6.2127,-6.2089,-6.2089,-6.1358,0.0,-6.1935,-6.132,-6.0819,-6.0819,-6.0819,-6.0819,-6.0819,-6.0819,-6.0127,-5.8434,-5.8357,-5.7934,-5.7049,-5.7011,-5.7434,-5.8319,-5.9127,-5.9973,-6.0781,0.0,0.0,0.0,0.0,0.0,0.0,0.0,0.0,0.0,0.0,0.0,0.0,0.0,0.0,0.0,0.0,0.0,0.0,0.0,0.0,0.0,-7.7977,-7.7582,-7.8363,-7.9074,-8.013,-8.1789,-8.2956,-8.375,-8.414,-8.4609,-8.5078,-8.5469,-8.6523,-8.8164,-9.0469,-9.2226,-9.4101,-9.6094,-9.6953,-9.7374,-9.7407,-9.7407,-9.7348,-9.7277,-9.7277,-9.7338,-9.7368,-9.6664,-9.6031,-9.5466,-9.4783,-9.3338,-9.1556,-9.1287,-8.9133,-8.5863,-8.517,-8.4093,-8.2747,-8.1554,-8.1093,-8.1054,-8.0823,-7.9746,-7.84,-7.7938,-7.6823,-7.5592,-7.5399,-7.5168,-7.4822,-7.4207,-7.386,-7.3399,-7.2168,-7.1822,-7.1668,-7.1052,-7.0283,-6.9629,-6.9398,-6.8667,-6.7782,-6.6936,-6.659,-6.5859,-6.4205,-6.2897,-6.2089,-6.2089,-6.1358,-6.0896,-6.1127,-6.0935,-6.105,-6.1666,-6.1743,-6.1743,-6.1743,-6.1743,-6.1012,-5.9281,-5.9165,-5.8511,-5.7049,-5.7588,-5.8319,-5.9165,-6.0012,-6.055,0.0,0.0,0.0,0.0,0.0,0.0,0.0,0.0,0.0,0.0,0.0,0.0,0.0,0.0,0.0,0.0,0.0,0.0,0.0,0.0,0.0,0.0,-7.763,-7.8276,-7.9695,-8.0009,-8.073,-8.2327,-8.4028,-8.5305,-8.5937,-8.6601,-8.7265,-8.7734,-8.8945,-9.0429,-9.2304,-9.4023,-9.5625,-9.6953,-9.7461,-9.7652,-9.755,-9.7193,-9.6998,-9.7037,-9.6535,-9.6379,-9.6451,-9.5739,-9.5041,-9.4428,-9.3491,-9.217,-9.0556,-8.9517,-8.7632,-8.5363,0.0,0.0,0.0,0.0,-8.1093,-8.1054,-8.0669,-7.99,-7.8938,-7.8207,-7.7323,-7.6476,-7.6092,-7.5745,-7.5361,-7.4861,-7.4476,-7.3899,-7.2552,-7.2206,-7.1975,-7.1091,-7.0552,-7.0014,-6.9321,-6.8783,-6.8052,-6.6821,-6.659,0.0,-6.532,-6.3743,-6.2589,-6.2589,-6.155,-6.0935,-6.1281,-6.1012,-6.0973,-6.1512,-6.155,-6.155,-6.155,-6.155,0.0,0.0,0.0,-5.905,-5.8088,-5.8511,0.0,0.0,0.0,-6.0781,-6.0781,-6.0781,0.0,0.0,-6.0781,-6.1012,0.0,0.0,0.0,0.0,0.0,0.0,0.0,0.0,0.0,0.0,0.0,0.0,0.0,0.0,0.0,0.0,-7.7669,-7.9288,-8.1233,-8.1746,-8.2358,-8.3605,-8.5738,-8.7297,-8.7734,-8.9219,-9.0195,-9.0273,-9.1836,-9.3164,-9.414,-9.5664,0.0,0.0,0.0,-9.7695,-9.7695,-9.6914,-9.6484,-9.6484,-9.5397,-9.4967,-9.5154,-9.4562,-9.3878,-9.3084,-9.1936,-9.074,-8.944,-8.7055,-8.594,-8.5593,-8.4901,-8.317,-8.1093,-8.1093,-8.1093,-8.0977,-8.0208,0.0,0.0,-7.79,-7.7323,-7.7015,-7.6245,-7.5476,-7.4861,-7.4861,-7.4284,-7.3437,-7.2552,-7.2283,-7.1975,-7.1091,-7.0898,-7.0475,-6.9013,-6.8706,-6.8205,-6.6513,-6.6167,-6.6128,-6.5936,-6.4436,-6.332,-6.332,-6.1858,-6.1089,-6.1858,-6.1281,-6.0819,-6.0935,-6.0935,0.0,-6.0935,-6.0935,-6.055,-5.9704,-5.955,-5.955,-5.9627,-5.955,-5.9896,-6.0781,-6.0781,-6.0781,-6.0781,-6.0781,-6.0781,-6.0781,-6.0781,-6.1204,0.0,0.0,0.0,0.0,0.0,0.0,0.0,0.0,0.0,0.0,0.0,0.0,0.0,0.0,0.0,-7.8784,-7.9361,-8.0161,-8.1908,-8.3911,-8.5501,-8.6288,-8.6792,-8.7726,-8.9375,-9.0469,-9.1328,-9.2031,-9.3047,-9.4336,-9.5898,-9.6328,-9.6875,-9.7656,-9.7695,-9.7695,-9.7695,-9.6914,-9.6484,-9.6484,-9.5545,0.0,-9.4864,-9.4042,-9.3399,-9.278,-9.1218,-8.9542,-8.7786,-8.6594,-8.4901,-8.3016,-8.2862,-8.2093,-8.1093,-8.1093,-8.1093,-8.1093,-8.09,-7.9939,-7.8707,-7.8361,-7.7361,-7.6207,-7.6053,-7.5861,0.0,-7.5745,-7.513,-7.4284,-7.3476,-7.2745,-7.1975,-7.1091,-7.0898,-7.0821,-7.0475,-7.0437,-6.9937,-6.8244,-6.7936,-6.7475,-6.6128,-6.4436,-6.332,-6.332,-6.1858,-6.0858,-6.1012,-6.0896,-6.105,-6.1781,-6.1858,-6.1858,-6.1858,-6.1858,-6.1473,-6.0589,-5.9896,-5.9819,-6.0512,-5.9858,-5.9896,-6.0781,-6.0781,-6.0781,-6.0781,-6.0781,-6.0781,-6.0781,-6.0781,-6.0896,0.0,0.0,0.0,0.0,0.0,0.0,0.0,0.0,0.0,0.0,0.0,-7.5187,-7.616,0.0,-7.8282,-7.9007,-8.0309,-8.1908,-8.3933,-8.567,-8.677,-8.6909,-8.8092,-8.9506,-9.1132,-9.2109,-9.2969,-9.3828,-9.4726,-9.5586,-9.6445,-9.6875,-9.7265,-9.7695,-9.7304,-9.7109,-9.7109,-9.5859,-9.5195,-9.5195,-9.4765,-9.4168,-9.3504,-9.3404,-9.2908,-9.2057,-9.0277,-8.8675,-8.7209,-8.5093,-8.3208,-8.1708,-8.1708,-8.1439,-8.1093,-8.1093,-8.1093,-8.1093,-8.1093,-8.0246,-7.9092,-7.8631,-7.7669,-7.6553,-7.613,-7.6015,-7.5899,-7.5476,-7.5361,-7.5053,-7.3822,-7.3168,-7.2629,-7.1745,-7.1206,-7.0783,-7.0398,-6.9975,-6.9283,-6.8013,-6.7436,-6.6898,-6.6051,-6.4436,-6.332,-6.332,-6.1858,-6.0781,-6.0781,-6.0781,-6.0973,-6.1396,-6.1435,-6.1435,-6.1435,-6.1435,-6.1243,-6.0819,-6.0396,-6.0358,-6.0781,-6.0396,-6.0358,-6.0781,-6.0781,-6.0781,-6.0781,-6.0781,-6.1012,-6.1435,-6.1435,-6.1204,0.0,0.0,0.0,0.0,0.0,0.0,0.0,-6.9672,-7.1278,-7.3734,-7.5324,-7.636,-7.6541,-7.8746,-8.0306,-7.9614,-8.1628,-8.3989,-8.6049,-8.7094,-8.7601,-8.7561,-8.9363,-9.1145,-9.2459,-9.3554,-9.4453,-9.5156,-9.6133,-9.6719,-9.6719,-9.7187,-9.7539,-9.7695,-9.6914,-9.6484,-9.6484,-9.5117,-9.4258,-9.3906,-9.3906,-9.3309,-9.2217,-9.2728,-9.2325,-9.114,-8.8907,-8.7478,-8.6401,-8.3324,-8.167,-8.1093,-8.1093,-8.1093,-8.1093,-8.1093,-8.1093,-8.1093,-8.1093,-8.0439,-7.9438,-7.8707,-7.7823,-7.6899,-7.6207,-7.6015,-7.5861,-7.5168,-7.5361,-7.5399,-7.3899,-7.336,-7.3014,-7.2129,-7.1398,-7.0706,-7.0052,-6.9244,-6.8398,-6.7513,-6.6705,-6.609,-6.5936,-6.4589,-6.3512,-6.332,-6.1858,-6.0781,-6.0781,-6.0781,-6.0781,-6.0781,-6.0935,-6.105,-6.105,-6.105,-6.0973,-6.0819,-6.0973,-6.0973,-6.0819,-6.0781,-6.0781,-6.0781,-6.0973,-6.105,-6.105,-6.1204,-6.1627,-6.232,-6.232,-6.1858,-7.1839,-6.8061,-6.3133,-5.8949,-6.2458,-6.6748,0.0,-6.7832,-7.0397,-7.2095,-7.3596,-7.5229,-7.7189,-8.0021,-8.2271,-8.2901,-8.4549,-8.6082,-8.7094,-8.7979,-8.8952,-9.0032,-9.0453,-9.1145,-9.2459,-9.4101,-9.5117,-9.5195,-9.6679,-9.7578,-9.7578,-9.6953,-9.6953,-9.7695,-9.6914,-9.6484,-9.6484,-9.6328,-9.5429,-9.3906,-9.3906,-9.3309,-9.2217,-9.209,-9.147,-9.0237,-8.6825,-8.4824,-8.3862,-8.2016,-8.117,-8.1093,-8.1093,-8.1093,-8.1093,-8.1093,-8.1093,-8.1093,-8.1093,-8.0015,-7.8631,-7.8515,-7.7438,-7.613,-7.6015,-7.6015,-7.5976,-7.5861,-7.5361,-7.463,-7.3745,-7.2937,-7.2129,-7.1245,-7.0975,-7.0898,-7.0783,-7.0129,-6.9321,-6.8436,-6.7552,-6.6744,-6.6013,-6.5089,-6.4205,-6.3435,-6.1858,-6.0781,-6.0781,-6.0781,-6.0781,-6.0781,-6.1473,-6.1935,-6.1935,-6.1935,-6.1627,-6.0858,-6.1512,-6.1589,-6.0819,-6.0781,-6.0781,-6.0781,-6.155,-6.1935,-6.1935,-6.2666,-6.3089,-6.3166,-6.3166,-6.2743,-7.1331,-6.7112,-6.2501,-6.133,-6.3049,-6.5823,-6.8635,-7.0979,-7.327,-7.5378,-7.7276,-7.9311,-8.1649,-8.349,-8.4793,-8.501,-8.6169,-8.7117,-8.7358,-8.8244,-8.8933,-8.9117,-9.0156,-9.17,-9.3905,-9.4765,-9.5586,-9.6562,-9.7304,-9.7695,-9.7695,-9.7383,-9.7344,-9.7695,-9.6445,-9.5742,-9.5742,-9.4726,-9.3867,-9.3164,-9.3672,-9.3309,-9.2217,-9.2624,-9.162,-8.9385,-8.6246,-8.4401,-8.3478,-8.1785,-8.1093,-8.1093,-8.1093,-8.1093,-8.1093,-8.1093,-8.1093,-8.1093,-8.1093,-7.9939,-7.8477,-7.8477,-7.7361,-7.6015,-7.6015,-7.6015,-7.5899,-7.5399,-7.5361,-7.5245,-7.4437,-7.3937,-7.3437,-7.2629,-7.2014,-7.1514,-7.1014,-7.0283,-6.959,-6.9244,-6.8052,-6.6974,-6.6667,-6.5474,-6.4474,-6.4128,-6.2627,-6.1743,-6.2204,-6.1858,-6.1743,-6.2204,-6.2166,-6.2089,-6.2089,-6.2089,-6.1704,-6.0858,-6.1627,-6.1704,-6.0819,-6.0781,-6.0781,-6.0781,-6.1166,-6.1589,-6.2089,-6.2435,-6.3089,-6.4051,-6.4051,-6.3589,-6.9446,-6.4523,-6.0945,-6.5361,-6.757,-6.9491,-7.2638,-7.479,-7.682,-7.946,-8.1482,-8.3293,-8.509,-8.6319,-8.6935,-8.6511,-8.731,-8.7968,-8.7827,-8.8295,-8.8523,-8.8227,-8.9231,-9.1045,-9.3867,-9.4765,-9.5703,-9.6914,-9.7422,-9.7695,-9.7695,-9.7265,-9.7109,-9.7344,-9.5742,-9.4844,-9.4844,-9.3828,-9.3086,-9.2617,-9.3476,-9.3354,-9.23,-9.2428,-9.0921,-8.8184,-8.5709,-8.4104,-8.3131,-8.1708,-8.1093,-8.1093,-8.1093,-8.1093,-8.1093,-8.1093,-8.1093,-8.1093,-8.1093,-7.9939,-7.8477,-7.8477,-7.7515,-7.6322,-7.6053,-7.6169,-7.6169,-7.5284,-7.5515,-7.5784,-7.4938,-7.4707,-7.4437,-7.3399,-7.2668,-7.1937,-7.1091,-7.0283,-6.9706,-6.9706,-6.8475,-6.7359,-6.7128,-6.609,-6.5205,-6.4974,-6.3705,-6.2897,-6.3281,-6.2781,-6.2743,-6.3589,-6.2935,-6.2512,-6.2781,-6.2781,-6.2397,-6.155,-6.2089,-6.205,-6.1166,-6.0935,-6.0781,-6.0781,-6.1243,-6.1781,-6.2435,-6.2897,-6.3782,-6.4974,-6.4974,-6.4474,-6.4825,-5.762,-5.4876,-6.8591,-7.6914,-8.0648,-7.6818,-7.7859,-8.0456,-8.3388,-8.4707,-8.5431,-8.5964,-8.7478,-8.8359,-8.7478,-8.8094,-8.8721,-8.8919,-8.8236,-8.789,-8.8345,-8.772,-8.8312,-9.1132,-9.3711,-9.5234,-9.5273,-9.6797,-9.7695,-9.7695,-9.6172,-9.5664,-9.6523,-9.4844,-9.3945,-9.3945,-9.4726,-9.4258,-9.2617,-9.3476,-9.3437,-9.2539,-9.0661,-8.8623,-8.648,-8.4699,-8.3359,-8.2285,-8.1439,-8.1093,-8.1093,-8.1093,-8.1093,-8.1093,-8.1093,-8.1093,-8.1093,-8.1093,-7.9939,-7.8477,-7.8477,-7.7938,-7.7092,-7.6245,-7.6592,-7.7092,-7.6207,-7.5976,-7.5784,-7.4938,-7.4707,-7.4284,-7.2629,-7.2206,-7.1937,-7.1091,-7.0283,-6.9706,-6.9706,-6.8975,-6.809,-6.7244,-6.7051,-6.6744,-6.5974,-6.5089,-6.4243,-6.3435,-6.3281,-6.3589,-6.4474,-6.3782,-6.3628,-6.4436,-6.4512,-6.4166,-6.3281,-6.3243,-6.2897,-6.2089,-6.1243,-6.0781,-6.0781,-6.2397,-6.3243,-6.3281,-6.4974,-6.582,-6.5859,-6.5859,-6.5397,-6.1369,-6.7579,-7.5618,-7.8165,-8.1662,-8.3727,-8.1422,-8.2458,-8.4173,-8.5545,-8.5575,-8.546,-8.6,-8.6132,-8.6094,-8.5786,-8.6901,-8.7911,-8.8094,-8.8994,-8.8879,-8.6922,-8.8563,-8.9604,-8.8867,-9.1094,-9.3554,-9.5898,-9.6601,-9.7148,-9.7656,-9.664,-9.6211,-9.6484,-9.4804,-9.3906,-9.3906,-9.3633,-9.3164,-9.2617,-9.2304,-9.1719,-9.082,-8.945,-8.8111,-8.6792,-8.4764,-8.3372,-8.2405,-8.1484,-8.1093,-8.1093,-8.1093,-8.1093,-8.1093,-8.1093,-8.1093,-8.1016,-8.0439,-7.9131,-7.7707,-7.7707,-7.713,-7.6361,-7.6092,-7.6207,-7.6361,-7.6092,-7.6015,-7.5938,-7.563,-7.5553,-7.5284,-7.413,-7.386,-7.3476,-7.2052,-7.1552,-7.1206,-7.0591,-6.9821,-6.8975,-6.8129,-6.7475,-6.6821,-6.6013,-6.5628,-6.5166,-6.4282,-6.4666,-6.5128,-6.5436,-6.4666,-6.4282,-6.4589,-6.4589,-6.4243,-6.3358,-6.332,-6.2935,-6.2127,-6.182,-6.1666,-6.1666,-6.332,-6.4166,-6.4166,-6.532,-6.5897,-6.5897,-6.5897,-6.5436,-6.0771,-7.3492,-8.6789,-8.5833,-8.631,-8.6775,-8.5734,-8.6352,-8.6994,-8.6636,-8.5902,-8.5195,-8.4809,-8.3824,-8.3285,-8.3862,-8.4682,-8.5843,-8.7592,-8.8706,-8.8974,-8.7888,-8.9291,-9.0078,-8.9375,-9.0234,-9.2148,-9.5312,-9.6133,-9.6719,-9.7226,-9.6484,-9.6054,-9.6054,-9.4336,-9.3437,-9.3437,-9.289,-9.2422,-9.2148,-9.1562,-9.0664,-8.9492,-8.8811,-8.7687,-8.612,-8.4682,-8.3342,-8.2119,-8.1427,-8.1093,-8.1093,-8.1093,-8.1093,-8.1093,-8.1093,-8.09,-8.0554,-7.9977,-7.9092,-7.813,-7.7823,-7.7553,-7.7246,-7.663,-7.6669,-7.6784,-7.6169,-7.6015,-7.6015,-7.6015,-7.6015,-7.5784,-7.4899,-7.4707,-7.4322,-7.2976,-7.2668,-7.2399,-7.1514,-7.0937,-7.0244,-6.9052,-6.8129,-6.7398,-6.6859,-6.6782,-6.6474,-6.559,-6.5743,-6.6013,-6.6282,-6.5551,-6.5051,-6.5051,-6.5051,-6.482,-6.4282,-6.3935,-6.3512,-6.3012,-6.2704,-6.2512,-6.2512,-6.4205,-6.4897,-6.4589,-6.5743,-6.6167,-6.5897,-6.5897,-6.559,-6.3596,-7.5552,-8.7816,-9.0883,-9.0913,-9.0012,-8.9421,-8.9272,-8.8704,-8.6727,-8.5562,-8.4324,-8.2467,-8.0746,-8.0208,-8.2016,-8.1876,-8.3148,-8.7673,-8.7843,-8.8461,-9.1054,-9.0,-8.9961,-9.2383,-9.1133,-9.125,-9.3789,-9.5469,-9.6406,-9.6484,-9.5664,-9.5195,-9.5117,-9.3476,-9.2617,-9.2617,-9.2617,-9.2148,-9.1211,-9.1211,-9.0312,-8.8633,-8.8594,-8.7138,-8.4615,-8.4364,-8.3173,-8.1407,-8.1224,-8.1124,-8.1093,-8.1093,-8.1093,-8.1093,-8.1093,-8.0592,-7.9862,-7.9746,-7.9746,-7.9592,-7.8707,-7.9015,-7.9361,-7.7746,-7.7784,-7.8092,-7.6515,-7.6053,-7.6092,-7.613,-7.6092,-7.5861,-7.5014,-7.4822,-7.4591,-7.3745,-7.3553,-7.3322,-7.2437,-7.2206,-7.1668,-7.0052,-6.9052,-6.8475,-6.8398,-6.8398,-6.809,-6.7282,-6.6513,-6.6282,-6.7013,-6.6397,-6.5936,-6.5897,-6.5897,-6.5897,-6.5897,-6.5089,-6.4589,-6.4589,-6.3858,-6.3435,-6.3435,-6.5205,-6.5667,-6.482,-6.6436,-6.6821,-6.6013,-6.6013,-6.6013,-8.0927,-8.6559,-8.9234,-9.1204,-9.1455,-9.0923,-8.9498,-8.8651,-8.7457,-8.4992,-8.1816,-7.9475,-7.9499,-7.8092,-7.813,-8.1708,-8.3371,-8.5807,-9.0319,-9.2015,-9.2685,-9.2304,-9.3008,-9.3281,-9.2656,-9.2773,-9.3437,-9.4765,-9.4687,-9.5117,-9.6445,-9.5664,-9.4883,-9.4258,-9.3164,-9.2617,-9.2617,-9.2617,-9.1836,-9.0312,-9.0312,-8.9453,-8.7773,-8.7148,-8.6093,-8.4797,-8.3912,-8.2805,-8.1618,-8.143,-8.1242,-8.1093,-8.1093,-8.1093,-8.1093,-8.1093,-8.0977,-8.0592,-7.9285,-7.8823,-7.8707,-7.7861,-7.7746,-7.7746,-7.6669,-7.6938,-7.7515,-7.7092,-7.6976,-7.7092,-7.7707,-7.74,-7.6899,-7.6669,-7.663,-7.6245,-7.4707,-7.4399,-7.4168,-7.3322,-7.2629,-7.186,-7.0783,-6.9898,-6.9167,-6.8513,-6.8398,-6.8321,-6.809,-6.7898,-6.759,-6.7128,-6.6898,-6.6551,-6.5936,-6.5897,-6.5897,-6.5897,-6.5089,-6.4589,-6.4589,-6.5013,-6.5243,-6.5243,-6.7552,-6.8321,-6.7436,-6.8513,-6.859,-6.7782,-6.7782,-6.7398,-8.7586,-9.1607,-9.1713,-9.2784,-9.2634,-9.1687,-8.9968,-8.8312,-8.6084,-8.2326,-7.9093,-7.6804,-7.6386,-7.5207,-7.5592,-7.9477,-8.1514,-8.4494,-9.0025,-9.2237,-9.3657,-9.4726,-9.539,-9.5508,-9.4883,-9.4609,-9.4961,-9.6211,-9.5156,-9.4883,-9.5898,-9.5117,-9.4414,-9.3906,-9.3047,-9.2617,-9.2617,-9.2617,-9.1719,-9.0,-9.0,-8.9101,-8.7461,-8.6601,-8.5703,-8.4843,-8.3789,-8.2708,-8.1664,-8.1501,-8.1285,-8.1093,-8.1093,-8.1093,-8.1093,-8.1093,-8.1093,-8.0977,-7.9977,-7.9631,-7.9438,-7.8207,-7.8323,-7.8823,-7.7938,-7.8015,-7.8323,-7.7938,-7.7823,-7.7938,-7.8361,-7.8169,-7.7823,-7.7823,-7.7823,-7.7438,-7.613,-7.5822,-7.5476,-7.4284,-7.336,-7.2629,-7.2129,-7.1668,-7.1206,-7.0706,-7.0629,-7.0629,-7.0629,-6.9321,-6.8359,-6.8244,-6.7898,-6.7321,-6.6513,-6.6436,-6.6282,-6.5897,-6.5436,-6.532,-6.5667,-6.6167,-6.659,-6.6974,-6.8783,-6.9283,-6.8398,-6.9283,-6.9244,-6.8398,-6.8398,-6.7936,-8.8349,-9.3082,-9.4503,-9.4651,-9.3655,-9.2182,-9.016,-8.7607,-8.4208,-7.9323,-7.6922,-7.5233,-7.3774,-7.2783,-7.3437,-7.7169,-7.8688,-8.1856,-8.8889,-9.0811,-9.3008,-9.7187,-9.707,-9.6914,-9.7617,-9.6406,-9.6133,-9.7578,-9.6133,-9.5195,-9.5195,-9.4375,-9.3867,-9.3711,-9.3008,-9.2617,-9.2617,-9.2617,-9.1719,-9.0,-9.0,-8.9101,-8.7461,-8.6601,-8.5703,-8.4843,-8.3799,-8.2728,-8.171,-8.1504,-8.1324,-8.1146,-8.1124,-8.1093,-8.1093,-8.1093,-8.1093,-8.1093,-8.0977,-8.1016,-8.0823,-7.9208,-7.9708,-8.0746,-7.99,-7.9708,-7.9631,-7.89,-7.8669,-7.8707,-7.8823,-7.8746,-7.8669,-7.8669,-7.8669,-7.8438,-7.763,-7.7361,-7.6861,-7.5361,-7.4399,-7.3822,-7.3668,-7.3668,-7.363,-7.3514,-7.3514,-7.3514,-7.3514,-7.0821,-6.9167,-6.9783,-6.909,-6.8205,-6.7359,-6.7282,-6.6936,-6.609,-6.6167,-6.6474,-6.709,-6.7321,-6.7859,-6.8706,-6.959,-6.9706,-6.909,-6.9706,-6.9629,-6.8898,-6.8783,-6.8282,-9.0078,-9.3931,-9.586,-9.4536,-9.3416,-9.1811,-8.8612,-8.4806,-8.0965,-7.7239,-7.4551,-7.3044,-7.3409,-7.2783,-7.4014,-7.9554,-8.0334,-8.3166,-9.1365,-9.2443,-9.3711,-9.7265,-9.7578,-9.7539,-9.7695,-9.7422,-9.7383,-9.7695,-9.6133,-9.5195,-9.5195,-9.4375,-9.3554,-9.2851,-9.2695,-9.2617,-9.2617,-9.2617,-9.1719,-9.0,-9.0,-8.9101,-8.7461,-8.6601,-8.5703,-8.4844,-8.3944,-8.2945,-8.1909,-8.171,-8.1524,-8.1349,-8.1137,-8.1093,-8.1093,-8.1093,-8.1093,-8.1016,-8.0285,-8.0516,-8.0939,-7.99,-7.9785,-7.9862,-7.8977,-7.9246,-7.9785,-7.9631,-7.9592,-7.9746,-8.0477,-8.0092,-7.9592,-7.9592,-7.9592,-7.9323,-7.8477,-7.7746,-7.7207,-7.6899,-7.613,-7.5361,-7.463,-7.4514,-7.4284,-7.3591,-7.3514,-7.3514,-7.3514,-7.236,-7.1321,-7.0744,-6.9975,-6.9129,-6.8244,-6.8167,-6.7821,-6.6936,-6.759,-6.7705,-6.7128,-6.8475,-6.9629,-7.0437,-7.1321,-7.2052,-7.2629,-7.2052,-7.1668,-7.1514,-7.0783,-7.0014,-9.3285,-9.5462,-9.6431,-9.556,-9.3587,-9.0877,-8.6949,-8.2477,-7.813,-7.4745,-7.2668,-7.1668,-7.2091,-7.2168,-7.3283,-7.663,-7.7483,-8.0465,-8.8188,-8.9633,-9.1719,-9.6523,-9.707,-9.707,-9.707,-9.6679,-9.6406,-9.6406,-9.5234,-9.4726,-9.5195,-9.3945,-9.3047,-9.2617,-9.2617,-9.2617,-9.2617,-9.2617,-9.1719,-9.0,-8.9872,-8.9013,-8.7461,-8.6005,-8.5136,-8.4667,-8.3436,-8.2515,-8.1844,-8.1725,-8.1582,-8.1383,-8.1167,-8.1093,-8.1093,-8.1093,-8.1093,-8.1054,-8.0631,-8.0746,-8.1016,-8.0592,-8.0477,-8.04,-7.9977,-8.0131,-8.0477,-8.0477,-8.0477,-8.0554,-8.0977,-8.0785,-8.0477,-8.0477,-8.0131,-7.9708,-7.9285,-7.8515,-7.79,-7.79,-7.7592,-7.7169,-7.6746,-7.6322,-7.5938,-7.5553,-7.5091,-7.4822,-7.4822,-7.4053,-7.3014,-7.1706,-7.1245,-7.0475,-6.9206,-6.909,-6.8706,-6.7821,-6.8167,-6.8436,-6.8436,-6.9667,-7.0706,-7.1552,-7.2437,-7.3091,-7.3514,-7.3091,-7.2629,-7.2168,-7.1783,-7.0898,-9.581,-9.7114,-9.7457,-9.6686,-9.3826,-9.0056,-8.5632,-8.0554,-7.5822,-7.2591,-7.136,-7.0898,-7.0898,-7.1475,-7.2322,-7.3553,-7.4459,-7.7506,-8.4621,-8.6711,-8.9687,-9.5547,-9.6406,-9.6484,-9.6484,-9.5703,-9.5195,-9.5195,-9.4219,-9.3906,-9.4609,-9.3164,-9.2304,-9.2304,-9.2148,-9.2031,-9.1988,-9.2145,-9.1359,-8.9596,-8.9672,-8.8904,-8.7377,-8.5713,-8.4824,-8.4536,-8.3109,-8.2202,-8.168,-8.1631,-8.1543,-8.1383,-8.1167,-8.1093,-8.1093,-8.1093,-8.1093,-8.1093,-8.1093,-8.1093,-8.1093,-8.1093,-8.1093,-8.1093,-8.1093,-8.1093,-8.1093,-8.1093,-8.1093,-8.1093,-8.1093,-8.1093,-8.1093,-8.1093,-8.0592,-8.0092,-8.0092,-7.94,-7.8784,-7.8784,-7.8631,-7.8477,-7.8477,-7.7977,-7.7553,-7.7553,-7.6976,-7.6476,-7.6284,-7.5668,-7.4553,-7.2668,-7.2476,-7.1783,-7.009,-7.0129,-6.9783,-6.8744,-6.9013,-6.9436,-6.9937,-7.0937,-7.186,-7.2706,-7.3399,-7.386,-7.4053,-7.3668,-7.3168,-7.2476,-7.2091,-7.1206,-9.5795,-9.8778,-10.0199,-9.7219,-9.3826,-8.9898,-8.4863,-7.9169,-7.4207,-7.1552,-7.0975,-7.0898,-7.0898,-7.0975,-7.1783,-7.4207,-7.4343,-7.6805,-8.4528,-8.6711,-8.9453,-9.4687,-9.6015,-9.6484,-9.6484,-9.5703,-9.5195,-9.5195,-9.3672,-9.2734,-9.2812,-9.1953,-9.1406,-9.1406,-9.0664,-9.0148,-8.9977,-9.075,-9.0189,-8.8281,-8.9242,-8.8782,-8.712,-8.6396,-8.5534,-8.4536,-8.3607,-8.264,-8.1703,-8.1483,-8.143,-8.1383,-8.1167,-8.1093,-8.1093,-8.1093,-8.1093,-8.1093,-8.1093,-8.1093,-8.1093,-8.1093,-8.1093,-8.1093,-8.1093,-8.1093,-8.1093,-8.1093,-8.1093,-8.1093,-8.1093,-8.1093,-8.1093,-8.1093,-8.1054,-8.0977,-8.0977,-8.0285,-7.9669,-7.9669,-7.9054,-7.8477,-7.8477,-7.8438,-7.84,-7.84,-7.8323,-7.8015,-7.7284,-7.7092,-7.613,-7.363,-7.3399,-7.2668,-7.0937,-7.1514,-7.1283,-6.9667,-7.1014,-7.1514,-7.0821,-7.2399,-7.363,-7.4437,-7.4553,-7.4976,-7.5784,-7.4245,-7.3476,-7.336,-7.1745,-7.0937,-9.58,-9.8174,-9.9477,-9.8178,-9.4522,-8.9855,-8.478,-7.8323,-7.2947,-7.1245,-7.0898,-7.0898,-7.0898,-7.0898,-7.1287,-7.239,-7.1666,-7.2965,-7.8759,-8.0133,-8.3203,-9.0429,-9.207,-9.3398,-9.5508,-9.4922,-9.3984,-9.2929,-9.2226,-9.1601,-9.1054,-9.0703,-9.0742,-9.1289,-9.0338,-8.9763,-8.9688,-8.9922,-8.9402,-8.8117,-8.8545,-8.7882,-8.6285,-8.5579,-8.4654,-8.3597,-8.2825,-8.2143,-8.1504,-8.1414,-8.1407,-8.1383,-8.1167,-8.1093,-8.1093,-8.1093,-8.1093,-8.1093,-8.1093,-8.1093,-8.1093,-8.1093,-8.1093,-8.1093,-8.1093,-8.1093,-8.1093,-8.1093,-8.1093,-8.1093,-8.1093,-8.1093,-8.1093,-8.1093,-8.1093,-8.1093,-8.1093,-8.0823,-8.0592,-8.0592,-8.0285,-8.0054,-8.0054,-7.9631,-7.9285,-7.9285,-7.8823,-7.8207,-7.74,-7.7284,-7.6515,-7.4437,-7.3783,-7.3014,-7.1783,-7.2014,-7.2129,-7.2014,-7.2629,-7.2822,-7.2476,-7.3591,-7.4361,-7.4707,-7.5207,-7.5668,-7.6015,-7.4822,-7.3976,-7.3476,-7.2245,-7.1668,-9.4632,-9.6611,-9.8091,-9.805,-9.3823,-8.8815,-8.5581,-7.8661,-7.2514,-7.1168,-7.0898,-7.0898,-7.0898,-7.0898,-7.094,0.0,-7.0287,-7.1057,-7.4957,-7.6193,-7.918,-8.6015,-8.7578,-8.9453,-9.2929,-9.3437,-9.289,-9.1406,-9.1289,-9.0937,-9.0039,-8.9765,-8.9883,-9.0508,-8.9495,-8.8891,-8.8852,-8.8857,-8.8478,-8.7623,-8.7677,-8.7039,-8.5777,-8.4753,-8.3839,-8.2941,-8.2245,-8.1664,-8.1298,-8.1298,-8.1298,-8.1311,-8.1176,-8.1093,-8.1093,-8.1093,-8.1093,-8.1093,-8.1093,-8.1093,-8.1093,-8.1093,-8.1093,-8.1093,-8.1093,-8.1093,-8.1093,-8.1093,-8.1093,-8.1093,-8.1093,-8.1093,-8.1093,-8.1093,-8.1093,-8.1093,-8.1093,-8.1093,-8.1093,-8.1093,-8.1093,-8.1093,-8.1093,-8.0592,-8.0169,-8.0169,-7.9669,-7.8977,-7.813,-7.7823,-7.6976,-7.5284,-7.4361,-7.3514,-7.2668,-7.2783,-7.3091,-7.3476,-7.3745,-7.386,-7.386,-7.4899,-7.5361,-7.5091,-7.5938,-7.6245,-7.6015,-7.4899,-7.4168,-7.3822,-7.2706,-7.2322,-9.1842,-9.4044,-9.6355,-9.6322,-9.1175,-8.6434,-8.75,-8.0376,-7.3004,-7.1245,-7.0898,-7.0898,-7.0898,-7.0898,-7.0898,-7.0898,-7.1223,-7.238,-7.4937,-7.714,-7.9453,-8.207,-8.3125,-8.5,-8.8437,-9.1094,-9.2265,-9.1367,-9.1289,-9.0937,-9.0039,-8.9179,-8.8711,-8.8711,-8.7699,-8.7047,-8.6817,-8.742,-8.7293,-8.6519,-8.6729,-8.6441,-8.5738,-8.4289,-8.3398,-8.2941,-8.2085,-8.148,-8.1093,-8.1093,-8.1093,-8.1093,-8.1093,-8.1093,-8.1093,-8.1093,-8.1093,-8.1093,-8.1093,-8.1093,-8.1093,-8.1093,-8.1093,-8.1093,-8.1093,-8.1093,-8.1093,-8.1093,-8.1093,-8.1093,-8.1093,-8.1093,-8.1093,-8.1093,-8.1093,-8.1093,-8.1093,-8.1093,-8.1093,-8.1093,-8.1093,-8.1093,-8.1093,-8.1093,-8.1093,-8.1093,-8.1093,-8.0746,-7.99,-7.9015,-7.7861,-7.6169,-7.5207,-7.4361,-7.3553,-7.4207,-7.4361,-7.3553,-7.4245,-7.4707,-7.4707,-7.6361,-7.6861,-7.6015,-7.6823,-7.6861,-7.6015,-7.4322,-7.3937,-7.4668,-7.2976,-7.2668,-8.9967,-9.401,-9.517,-9.0493,-9.1193,-9.1014,-8.3226,-7.6429,-7.1591,-7.1014,-7.0898,-7.0898,-7.0898,-7.0898,-7.1171,-7.1935,-7.2133,-7.2336,-7.2773,-7.5482,-7.8614,-8.1914,-8.7226,-9.1289,-9.2969,-9.2812,-9.1992,-9.0508,-9.039,-8.9804,-8.8359,-8.8047,-8.8082,-8.848,-8.7426,-8.6817,-8.6583,-8.6605,-8.6588,-8.648,-8.6108,-8.5584,-8.4958,-8.4016,-8.3148,-8.2279,-8.1895,-8.1543,-8.1272,-8.1176,-8.1093,-8.1093,-8.1093,-8.1093,-8.1093,-8.1093,-8.1093,-8.1093,-8.1093,-8.1093,-8.1093,-8.1093,-8.1093,-8.1093,-8.1093,-8.1093,-8.1093,-8.1093,-8.1093,-8.1093,-8.1093,-8.1093,-8.1093,-8.1093,-8.1093,-8.1093,-8.1093,-8.1093,-8.1093,-8.1093,-8.1093,-8.1093,-8.1093,-8.1093,-8.1093,-8.1093,-8.1093,-8.0785,-7.99,-7.9554,-7.8746,-7.7053,-7.713,-7.6476,-7.4476,-7.4553,-7.4861,-7.5207,-7.5438,-7.5592,-7.5592,-7.6669,-7.6899,-7.6015,-7.6861,-7.6861,-7.6015,-7.4861,-7.4168,-7.3899,-7.3899,-7.4053,-8.2533,-8.6549,-8.7467,-8.2598,-8.6492,-8.927,-8.0799,-7.4707,-7.0871,-7.0898,-7.0898,-7.0898,-7.0898,-7.0898,-7.1133,-7.1834,-7.228,-7.2443,-7.2128,-7.4866,-7.8362,-8.2304,-8.7929,-9.1836,-9.2656,-9.2656,-9.1875,-9.0117,-9.0312,-8.9609,-8.7617,-8.7729,-8.781,-8.7816,-8.7152,-8.671,-8.648,-8.6238,-8.6105,-8.6101,-8.5368,-8.4728,-8.4185,-8.3434,-8.2685,-8.1984,-8.1805,-8.16,0.0,-8.1196,-8.1093,-8.1093,-8.1093,-8.1093,-8.1093,-8.1093,-8.1093,-8.1093,-8.1093,-8.1093,-8.1093,-8.1093,-8.1093,-8.1093,-8.1093,-8.1093,-8.1093,-8.1093,-8.1093,-8.1093,-8.1093,-8.1093,-8.1093,-8.1093,-8.1093,-8.1093,-8.1093,-8.1093,-8.1093,-8.1093,-8.1093,-8.1093,-8.1093,-8.1093,-8.1093,-8.1093,-8.1093,-8.09,-8.0362,-8.0015,-7.94,-7.8361,-7.84,-7.7861,-7.6284,-7.5861,-7.5899,-7.6476,-7.6476,-7.663,-7.6938,-7.7784,-7.7823,-7.6938,-7.7476,-7.7323,-7.6476,-7.563,-7.4938,-7.4476,-7.5284,-7.5668,0.0,-7.398,-7.5268,-7.3705,-7.8031,-8.2053,-7.9567,-7.4774,0.0,-7.0898,-7.0898,-7.0898,-7.0898,-7.0898,-7.0898,-7.0898,-7.1796,-7.2541,-7.274,-7.5386,-7.8952,-8.3437,-8.6289,-8.8125,-8.8828,-9.1094,-9.1797,-9.0117,-9.0703,-9.0078,-8.7617,-8.8011,-8.7827,-8.6817,-8.68,-8.6671,-8.6494,-8.6169,-8.5832,-8.5477,-8.4543,-8.3917,-8.3554,-8.2695,-8.2217,-8.2,-8.1767,-8.16,-8.1407,-8.1196,-8.1093,-8.1093,-8.1093,-8.1093,-8.1093,-8.1093,-8.1093,-8.1093,-8.1093,-8.1093,-8.1093,-8.1093,-8.1093,-8.1093,-8.1093,-8.1093,-8.1093,-8.1093,-8.1093,-8.1093,-8.1093,-8.1093,-8.1093,-8.1093,-8.1093,-8.1093,-8.1093,-8.1093,-8.1093,-8.1093,-8.1093,-8.1093,-8.1093,-8.1093,-8.1093,-8.1093,-8.1093,-8.1093,-8.1093,-8.04,-7.9862,-7.9823,-7.9131,-7.8631,-7.8515,-7.7823,-7.74,-7.74,-7.74,-7.7707,-7.8477,-7.9323,-7.94,-7.8515,-7.8477,-7.813,-7.7361,-7.6553,-7.6169,-7.6207,-7.6938,-7.7284,0.0,0.0,-7.2013,-7.1597,-7.2727,-7.4081,0.0,-7.2811,-7.0898,-7.0898,-7.0898,-7.0898,-7.0898,-7.0898,-7.0898,-7.0909,-7.1106,-7.1626,-7.2594,-7.7511,-8.2654,-8.6992,-8.9804,-9.1211,-9.0742,-9.125,-9.1172,-9.0078,-8.957,-8.8789,-8.7578,-8.7426,-8.7203,-8.6817,-8.6669,-8.643,-8.6215,-8.5511,-8.5291,-8.5477,-8.3999,-8.3371,-8.3554,-8.2695,-8.2265,-8.2219,-8.1855,-8.1648,-8.1618,-8.1269,-8.1093,-8.1093,-8.1093,-8.1093,-8.1093,-8.1093,-8.1093,-8.1093,-8.1093,-8.1093,-8.1093,-8.1093,-8.1093,-8.1093,-8.1093,-8.1093,-8.1093,-8.1093,-8.1093,-8.1093,-8.1093,-8.1093,-8.1093,-8.1093,-8.1093,-8.1093,-8.1093,-8.1093,-8.1093,-8.1093,-8.1093,-8.1093,-8.1093,-8.1093,-8.1093,-8.1093,-8.1093,-8.1093,-8.1093,-8.0939,-8.0554,-7.9862,-8.0208,-7.9939,-7.8592,-7.8323,-7.8207,-7.8207,-7.8207,-7.8284,-7.8477,-7.9323,-7.94,-7.8515,-7.8477,-7.84,-7.8207,-7.8015,-7.79,-7.79,-7.7476,-7.7284,0.0,-7.2092,-7.0959,-7.1145,-7.1144,-7.1323,-7.2235,-7.1748,-7.1042,-7.0925,-7.0898,-7.0898,-7.0898,-6.964,-6.8948,-6.9948,-6.9772,-7.1007,-7.5234,-7.9543,-8.4179,-8.9297,-9.0781,-9.1679,-9.2422,-9.1758,-9.0937,-9.0078,-8.8867,-8.7928,-8.7366,-8.6346,-8.5882,-8.6068,-8.5568,-8.541,-8.568,-8.5256,-8.4863,-8.4481,-8.3585,-8.3077,-8.3008,-8.2539,-8.2304,-8.2265,-8.1878,-8.168,-8.1648,-8.1258,-8.1093,-8.1093,-8.1093,-8.1093,-8.1093,-8.1093,-8.1093,-8.1093,-8.1093,-8.1093,-8.1093,-8.1093,-8.1093,-8.1093,-8.1093,-8.1093,-8.1093,-8.1093,-8.1093,-8.1093,-8.1093,-8.1093,-8.1093,-8.1093,-8.1093,-8.1093,-8.1093,-8.1093,-8.1093,-8.1093,-8.1093,-8.1093,-8.1093,-8.1093,-8.1093,-8.1093,-8.1093,-8.1093,-8.1093,-8.1093,-8.0939,-8.0439,-8.0823,-8.0708,-7.9785,-7.9669,-7.9515,-7.9131,-7.9092,-7.9285,-7.9669,-8.0131,-7.9977,-7.9092,-7.9092,-7.89,-7.8477,-7.8477,-7.8707,-7.9092,-7.8631,-7.8438,-7.5334,-7.4104,-7.2203,-7.2329,-7.1939,-7.1475,-7.1359,-7.128,-7.1158,-7.0953,-7.0887,-7.0744,-7.0217,-6.8229,-6.7295,-6.922,-6.9357,-7.1777,-7.9057,-8.1709,-8.4883,-9.0273,-9.0586,-9.1094,-9.2929,-9.1875,-9.0742,-8.9883,-8.8242,-8.7258,-8.7112,-8.5247,-8.4533,-8.5163,-8.4326,-8.4171,-8.479,-8.4839,-8.4339,-8.3311,-8.3155,-8.2813,-8.2304,-8.2304,-8.2304,-8.2265,-8.1878,-8.168,-8.1648,-8.1258,-8.1093,-8.1093,-8.1093,-8.1093,-8.1093,-8.1093,-8.1093,-8.1093,-8.1093,-8.1093,-8.1093,-8.1093,-8.1093,-8.1093,-8.1093,-8.1093,-8.1093,-8.1093,-8.1093,-8.1093,-8.1093,-8.1093,-8.1093,-8.1093,-8.1093,-8.1093,-8.1093,-8.1093,-8.1093,-8.1093,-8.1093,-8.1093,-8.1093,-8.1093,-8.1093,-8.1093,-8.1093,-8.1093,-8.1093,-8.1093,-8.1093,-8.1093,-8.1093,-8.1093,-8.1093,-8.1093,-8.0785,-8.0054,-8.0015,-8.0323,-8.1054,-8.1093,-8.0746,-8.0015,-8.0015,-7.9631,-7.89,-7.89,-7.9285,-8.0015,-7.9862,-7.9823,-7.5361,-7.6955,-7.7682,-7.6609,-7.4438,-7.2453,-7.1987,-7.1413,-7.093,-7.0926,-7.0913,-7.0025,-6.7203,-6.8575,-7.0311,-7.0905,-7.3547,-7.7215,-8.2046,-8.4365,-8.6484,-8.8828,-9.0937,-9.1484,-8.9687,-8.9922,-8.9844,-8.8984,-8.7344,-8.6594,-8.7073,-8.5247,-8.4533,-8.5163,-8.4326,-8.359,-8.2995,-8.3233,-8.3336,-8.3272,-8.2538,-8.2232,-8.2304,-8.2304,-8.2304,-8.2265,-8.1878,-8.168,-8.1648,-8.1258,-8.1093,-8.1093,-8.1093,-8.1093,-8.1093,-8.1093,-8.1093,-8.1093,-8.1093,-8.1093,-8.1093,-8.1093,-8.1093,-8.1093,-8.1093,-8.1093,-8.1093,-8.1093,-8.1093,-8.1093,-8.1093,-8.1093,-8.1093,-8.1093,-8.1093,-8.1093,-8.1093,-8.1093,-8.1093,-8.1093,-8.1093,-8.1093,-8.1093,-8.1093,-8.1093,-8.1093,-8.1093,-8.1093,-8.1093,-8.1093,-8.1093,-8.1093,-8.1093,-8.1093,-8.1093,-8.1093,-8.1054,-8.09,-8.09,-8.0977,-8.1093,-8.1093,-8.1054,-8.09,-8.09,-8.0823,-8.0708,-8.0708,-8.0785,-8.09,-8.0131,-7.9823,-7.5741,-7.6878,-7.793,-7.8414,-7.6066,-7.329,-7.2121,-7.1677,-7.1354,-7.0976,-7.1647,-7.1564,-6.9046,-7.0328,-7.2169,-7.3405,-7.6253,-7.9528,-8.2992,-8.4646,-8.6289,-8.8437,-8.9765,-9.0195,-8.9453,-8.9336,-8.8945,-8.8125,-8.636,-8.5377,-8.5519,-8.3732,-8.2987,-8.3624,-8.2935,-8.2375,-8.1949,-8.2303,-8.2513,-8.2577,-8.231,-8.2219,-8.2304,-8.2304,-8.2304,-8.2265,-8.1878,-8.168,-8.1648,-8.1258,-8.1093,-8.1093,-8.1093,-8.1093,-8.1093,-8.1093,-8.1093,-8.1093,-8.1093,-8.1093,-8.1093,-8.1093,-8.1093,-8.1093,-8.1093,-8.1093,-8.1093,-8.1093,-8.1093,-8.1093,-8.1093,-8.1093,-8.1093,-8.1093,-8.1093,-8.1093,-8.1093,-8.1439,-8.1631,-8.117,-8.1439,-8.1593,-8.117,-8.1093,-8.1093,-8.1093,-8.1093,-8.1093,-8.1093,-8.1093,-8.1093,-8.1093,-8.1093,-8.1093,-8.1093,-8.1093,-8.1093,-8.1093,-8.1093,-8.1093,-8.1093,-8.1093,-8.1093,-8.1093,-8.1093,-8.1093,-8.1093,-8.1093,-8.1093,-8.1093,-8.0708,-8.0516,-7.6002,-7.5942,-7.6365,-7.8442,-7.6643,-7.4062,-7.2851,-7.2606,-7.2331,-7.1377,-7.2874,-7.3704,-7.1436,-7.1917,-7.3416,-7.5826,-7.8596,-8.1426,-8.414,-8.5234,-8.6601,-8.875,-8.8984,-8.9101,-8.9375,-8.8828,-8.8008,-8.6953,-8.5283,-8.4278,-8.4225,-8.2415,-8.1685,-8.2247,-8.1697,-8.1383,-8.1324,-8.1792,-8.1992,-8.1992,-8.2219,-8.2304,-8.2304,-8.2304,-8.2304,-8.2265,-8.1878,-8.168,-8.1648,-8.1258,-8.1093,-8.1093,-8.1093,-8.1093,-8.1093,-8.1093,-8.1093,-8.1093,-8.1093,-8.1093,-8.1093,-8.1093,-8.1093,-8.1093,-8.1093,-8.1093,-8.1093,-8.1093,-8.1093,-8.1093,-8.1093,-8.1093,-8.1093,-8.1093,-8.1093,-8.1093,-8.1093,-8.1593,-8.1823,-8.1208,-8.1593,-8.1823,-8.1208,-8.1093,-8.1093,-8.1093,-8.1093,-8.1093,-8.1093,-8.1093,-8.117,-8.1362,-8.1208,-8.1093,-8.1093,-8.1093,-8.1093,-8.1093,-8.1093,-8.1093,-8.1093,-8.1093,-8.1093,-8.1093,-8.1093,-8.1093,-8.1093,-8.1093,-8.1093,-8.1093,-8.1093,-8.1093,-7.5993,-7.4899,-7.4224,-7.632,-7.5707,-7.4687,-7.5117,-7.4783,-7.396,-7.2268,-7.4595,-7.5779,-7.2029,-7.2267,-7.4148,-7.7479,-8.1003,-8.4218,-8.6836,-8.7929,-8.8789,-8.9804,-8.9922,-8.9336,-8.7812,-8.7617,-8.6875,-8.5195,-8.4033,-8.3615,-8.4186,-8.2415,-8.1685,-8.2247,-8.1697,-8.1298,-8.1116,-8.1719,-8.1992,-8.1992,-8.2219,-8.2304,-8.2304,-8.2304,-8.2304,-8.2265,-8.1878,-8.168,-8.1648,-8.1258,-8.1093,-8.1093,-8.1093,-8.1093,-8.1093,-8.1093,-8.1093,-8.1093,-8.1093,-8.1093,-8.1093,-8.1093,-8.1093,-8.1093,-8.1093,-8.1093,-8.1093,-8.1093,-8.1093,-8.1093,-8.1093,-8.1093,-8.1093,-8.1093,-8.1093,-8.1093,-8.1093,-8.1131,-8.117,-8.1093,-8.1131,-8.117,-8.1093,-8.1093,-8.1093,-8.1093,-8.1093,-8.1093,-8.1093,-8.1093,-8.14,-8.2131,-8.1554,-8.1093,-8.1093,-8.1093,-8.1093,-8.1093,-8.1093,-8.1093,-8.1093,-8.1093,-8.1093,-8.1093,-8.1093,-8.1093,-8.1093,-8.1093,-8.1093,-8.1093,-8.1093,-8.1093,-7.5986,-7.4783,-7.3407,-7.3158,-7.3285,-7.347,-7.3359,-7.4837,-7.6633,-7.8113,-7.9437,-7.9403,-7.6205,-7.5967,-7.7062,-7.9558,-8.2928,-8.5742,-8.7265,-8.8203,-8.8828,-8.914,-8.875,-8.7969,-8.6797,-8.6211,-8.535,-8.3994,-8.3401,-8.2917,-8.2474,-8.1672,-8.1321,-8.1554,-8.1321,-8.1167,-8.1093,-8.1582,-8.1831,-8.1831,-8.2129,-8.2223,-8.212,-8.2223,-8.2221,-8.211,-8.1831,-8.168,-8.1648,-8.1258,-8.1093,-8.1093,-8.1093,-8.1093,-8.1093,-8.1093,-8.1093,-8.1093,-8.1093,-8.1093,-8.1093,-8.1093,-8.1093,-8.1093,-8.1093,-8.1093,-8.1093,-8.1093,-8.1093,-8.1093,-8.1093,-8.1093,-8.1093,-8.1093,-8.1093,-8.1093,-8.1093,-8.1477,-8.1708,-8.1208,-8.1516,-8.1862,-8.1862,-8.1439,-8.1285,-8.1785,-8.14,-8.1093,-8.1093,-8.1093,-8.1208,-8.1516,-8.1285,-8.1093,-8.1093,-8.1093,-8.1093,-8.1093,-8.1093,-8.1093,-8.1093,-8.1093,-8.1093,-8.1093,-8.1093,-8.1093,-8.1093,-8.1093,-8.1093,-8.1093,-8.1093,-8.1093,-7.4681,-7.3549,-7.2429,-7.1334,-7.1628,-7.2079,-7.1729,-7.4538,-7.8468,-8.2995,-8.3066,-8.1217,-7.7698,-7.618,-7.6505,-7.9804,-8.2929,-8.5351,-8.6523,-8.7148,-8.75,-8.75,-8.6992,-8.6328,-8.5469,-8.4844,-8.4057,-8.2975,-8.2689,-8.2258,-8.143,-8.1186,-8.1093,-8.1093,-8.1093,-8.1093,-8.1093,-8.1522,-8.1687,-8.1618,-8.2,-8.2125,-8.1992,-8.2219,-8.2178,-8.1984,-8.1805,-8.168,-8.1648,-8.1258,-8.1093,-8.1093,-8.1093,-8.1093,-8.1093,-8.1093,-8.1093,-8.1093,-8.1093,-8.1093,-8.1093,-8.1093,-8.1093,-8.1093,-8.1093,-8.1093,-8.1093,-8.1093,-8.1093,-8.1093,-8.1093,-8.1093,-8.117,-8.14,-8.1285,-8.1093,-8.1093,-8.1516,-8.1747,-8.1208,-8.1747,-8.2285,-8.2285,-8.2054,-8.2093,-8.2631,-8.2247,-8.1785,-8.1516,-8.1708,-8.19,-8.19,-8.2131,-8.2208,-8.19,-8.19,-8.1785,-8.1516,-8.1477,-8.1362,-8.1093,-8.1093,-8.1093,-8.1093,-8.1093,-8.1093,-8.1093,-8.1093,-8.1093,-8.1093,-8.1093,-8.1093,-7.1726,-7.081,-7.0915,-7.1296,-7.1164,-7.0911,-7.0883,-7.4148,-7.9118,-8.6066,-8.4749,-8.0703,-7.5547,-7.1797,-7.1523,-7.7851,-8.082,-8.289,-8.4648,-8.4883,-8.4883,-8.4883,-8.4883,-8.4531,-8.3672,-8.3594,-8.3157,-8.2078,-8.1831,-8.1618,-8.143,-8.1186,-8.1093,-8.1093,-8.1093,-8.1093,-8.1093,-8.1522,-8.16,-8.1407,-8.1819,-8.1992,-8.1992,-8.2217,-8.2175,-8.1984,-8.1767,-8.168,-8.1687,-8.1258,-8.1093,-8.1093,-8.1093,-8.1093,-8.1093,-8.1093,-8.1093,-8.1093,-8.1093,-8.1093,-8.1093,-8.1093,-8.1093,-8.1093,-8.1093,-8.1093,-8.1093,-8.1093,-8.1093,-8.1093,-8.1131,-8.1131,-8.1323,-8.2093,-8.167,-8.1093,-8.1093,-8.1093,-8.1093,-8.1093,-8.1747,-8.2324,-8.2324,-8.3016,-8.3593,-8.3593,-8.3593,-8.3285,-8.2401,-8.3054,-8.3593,-8.3593,-8.4362,-8.4516,-8.367,-8.3593,-8.3208,-8.2362,-8.2324,-8.1939,-8.1131,-8.1093,-8.1093,-8.1093,-8.1093,-8.1093,-8.1093,-8.1093,-8.1093,-8.1093,-8.1093,-8.1093,-6.535,-6.3809,-6.4933,-6.9825,-7.1162,-7.1179,-7.0966,-7.1858,-7.5579,-8.5459,-8.4725,-8.0703,-7.5547,-7.375,-7.4336,-7.8242,-8.082,-8.2695,-8.3828,-8.4492,-8.4883,-8.4883,-8.4375,-8.3867,-8.3633,-8.3047,-8.2445,-8.1831,-8.171,-8.1543,-8.1186,-8.1116,-8.1093,-8.1093,-8.1093,-8.1093,-8.1093,-8.1335,-8.1458,-8.1407,-8.1648,-8.1695,-8.1582,-8.1805,-8.1792,-8.1582,-8.1504,-8.1501,-8.148,-8.1186,-8.1093,-8.1093,-8.1093,-8.1093,-8.1093,-8.1093,-8.1093,-8.1093,-8.1093,-8.1093,-8.1093,-8.1093,-8.1093,-8.1093,-8.1093,-8.1093,-8.1093,-8.1093,-8.1516,-8.2093,-8.2708,-8.2862,-8.2631,-8.167,-8.1285,-8.1093,-8.1093,-8.1093,-8.1285,-8.1823,-8.2131,-8.267,-8.3939,-8.3824,-8.3824,-8.4439,-8.3978,-8.3516,-8.3247,-8.3439,-8.3362,-8.2747,-8.2901,-8.2978,-8.2708,-8.267,-8.2824,-8.317,-8.3208,-8.2593,-8.117,-8.1093,-8.1093,-8.1093,-8.1093,-8.1093,-8.1093,-8.1093,-8.1093,-8.1093,-8.1093,-8.1093,-6.5925,-6.4802,-6.5857,-7.0231,-7.1262,-7.1944,-7.4762,-7.4359,-7.6086,-8.5546,-8.4726,-8.1367,-7.8242,-7.7656,-7.8242,-7.9961,-8.1406,-8.2461,-8.3008,-8.3554,-8.3867,-8.3867,-8.3398,-8.3086,-8.3086,-8.2617,-8.2007,-8.1243,-8.1485,-8.1349,-8.0623,-8.09,-8.0939,-8.0592,-8.0592,-8.0439,-8.0054,-8.0267,-8.0353,-8.0267,-8.0454,-8.0495,-8.04,-8.1307,-8.16,-8.1407,-8.1407,-8.1335,-8.1258,-8.1146,-8.1093,-8.1093,-8.1093,-8.1093,-8.1093,-8.1093,-8.1093,-8.1093,-8.1093,-8.1093,-8.1093,-8.1093,-8.1093,-8.1093,-8.1093,-8.1093,-8.1093,-8.1093,-8.167,-8.2401,-8.2939,-8.3324,-8.3439,-8.2785,-8.2093,-8.1593,-8.1593,-8.1593,-8.1708,-8.2208,-8.2862,-8.367,-8.4709,-8.4747,-8.4786,-8.5286,-8.4939,-8.4709,-8.5055,-8.4824,-8.4516,-8.4362,-8.4016,-8.3824,-8.3824,-8.3824,-8.3901,-8.4093,-8.4132,-8.3516,-8.2131,-8.2093,-8.1939,-8.1593,-8.19,-8.19,-8.1593,-8.1593,-8.14,-8.1093,-8.1439,-8.1593,-7.0348,-7.0689,-7.1064,-7.1835,-7.1984,-7.3754,-8.0702,-7.9903,-7.9449,-8.5741,-8.4492,-8.2304,-8.2304,-8.2304,-8.2304,-8.2304,-8.2304,-8.2304,-8.2304,-8.2304,-8.2304,-8.2304,-8.2304,-8.2265,-8.2187,-8.2265,-8.1734,-8.0401,-8.1096,-8.1019,-7.9738,-8.0439,-8.0516,-7.9708,-7.9669,-7.9285,-7.8515,-7.8657,-7.8657,-7.8477,-7.8708,-7.8812,-7.8851,-8.0592,-8.1311,-8.1127,-8.1204,-8.1142,-8.0977,-8.1054,-8.1093,-8.1093,-8.1093,-8.1093,-8.1093,-8.1093,-8.1093,-8.1093,-8.1093,-8.1093,-8.1093,-8.1093,-8.1093,-8.1093,-8.1093,-8.1093,-8.1093,-8.1093,-8.1747,-8.2401,-8.2401,-8.3131,-8.4016,-8.4747,-8.3632,-8.2401,-8.2401,-8.2401,-8.2439,-8.2516,-8.3824,-8.4939,-8.5016,-8.5632,-8.6094,-8.6094,-8.6094,-8.6401,-8.7171,-8.6594,-8.6363,-8.7094,-8.6478,-8.5978,-8.5978,-8.6055,-8.5786,-8.5055,-8.5093,-8.4709,-8.3747,-8.3632,-8.3208,-8.2439,-8.3208,-8.3208,-8.2401,-8.2401,-8.2054,-8.1362,-8.2093,-8.2401,-6.6266,-6.8914,-7.1068,-7.1835,-7.5975,-8.0272,-8.1914,-8.1718,-8.1637,-8.3125,-8.2812,-8.2304,-8.2304,-8.2304,-8.2304,-8.2304,-8.2304,-8.2304,-8.2304,-8.2304,-8.2304,-8.2304,-8.2304,-8.2031,-8.1367,-8.1914,-8.15,-7.953,-8.0216,-8.0126,-7.8844,-7.8938,-7.8977,-7.8784,-7.8784,-7.8669,-7.8477,-7.8527,-7.8527,-7.8477,-7.8683,-7.8789,-7.8789,-7.9082,-7.9142,-7.9163,-7.9827,-8.0145,-8.0131,-8.0823,-8.1093,-8.1093,-8.1093,-8.1093,-8.1093,-8.1093,-8.1093,-8.1093,-8.1093,-8.1093,-8.1093,-8.1093,-8.1093,-8.1093,-8.1093,-8.1093,-8.1093,-8.1093,-8.217,-8.3324,-8.3324,-8.4439,-8.544,-8.5016,-8.4093,-8.3324,-8.3324,-8.3324,-8.3516,-8.4209,-8.4632,-8.5093,-8.5747,-8.5978,-8.6094,-8.6094,-8.6094,-8.617,-8.6363,-8.6209,-8.594,-8.5478,-8.5286,-8.517,-8.517,-8.5747,-8.6017,-8.5863,-8.6478,-8.6209,-8.467,-8.3939,-8.3516,-8.3324,-8.3478,-8.3516,-8.3324,-8.3324,-8.3208,-8.3054,-8.3247,-8.3324,-6.5832,-6.8336,-7.186,-7.592,-7.9633,-8.2304,-8.2304,-8.2304,-8.2304,-8.2304,-8.2304,-8.2304,-8.2304,-8.2304,-8.2304,-8.2304,-8.2304,-8.2304,-8.2304,-8.2304,-8.2304,-8.2304,-8.1914,-8.1484,-8.1054,-8.1015,-8.0367,-7.8635,-7.9306,-7.9233,-7.7997,-7.8284,-7.8323,-7.7938,-7.7938,-7.7707,-7.7323,-7.7284,-7.7284,-7.7284,-7.7406,-7.7447,-7.7486,-7.8297,-7.8574,-7.8515,-7.8977,-7.94,-7.9862,-8.0285,-8.0708,-8.1093,-8.1093,-8.1093,-8.1093,-8.1093,-8.1093,-8.1093,-8.1093,-8.1093,-8.1093,-8.1093,-8.1093,-8.1093,-8.1093,-8.1093,-8.1093,-8.1093,-8.2324,-8.3478,-8.3093,-8.4247,-8.5324,-8.4478,-8.3939,-8.3593,-8.3593,-8.3593,-8.3862,-8.4747,-8.5209,-8.5632,-8.6017,-8.6094,-8.6094,-8.6094,-8.6478,-8.6709,-8.6709,-8.6709,-8.6555,-8.6132,-8.6094,-8.594,-8.5517,-8.6247,-8.6555,-8.6132,-8.6517,-8.6401,-8.5517,-8.5055,-8.4632,-8.4209,-8.4593,-8.4593,-8.4209,-8.4209,-8.4016,-8.3593,-8.4016,-8.4209,-6.7525,-6.9343,-7.3648,-8.0579,-8.2304,-8.2304,-8.2304,-8.1836,-8.1601,-8.2187,-8.2304,-8.2304,-8.2304,-8.2304,-8.2109,-8.1523,-8.164,-8.1875,-8.1992,-8.1992,-8.207,-8.2265,-8.1484,-8.0859,-8.0664,-8.0078,-7.9157,-7.7793,-7.8294,-7.8224,-7.715,-7.7438,-7.74,-7.6861,-7.6861,-7.6438,-7.5592,-7.5861,-7.5938,-7.5784,-7.5957,-7.5947,-7.5898,-7.7611,-7.8233,-7.8092,-7.8207,-7.8707,-7.94,-7.9669,-8.0208,-8.09,-8.1054,-8.1093,-8.1093,-8.1093,-8.1093,-8.1093,-8.1093,-8.1093,-8.1093,-8.1093,-8.1093,-8.1093,-8.1093,-8.1093,-8.1131,-8.1285,-8.2324,-8.3285,-8.2862,-8.3708,-8.4478,-8.3747,-8.3593,-8.3632,-8.3785,-8.3939,-8.4247,-8.4978,-8.5632,-8.617,-8.6286,-8.6324,-8.6363,-8.6517,-8.7171,-8.7632,-8.7632,-8.7632,-8.7632,-8.7632,-8.7632,-8.7325,-8.6594,-8.7325,-8.7478,-8.6594,-8.6671,-8.6709,-8.6555,-8.6555,-8.617,-8.5363,-8.5863,-8.5786,-8.5132,-8.5132,-8.4747,-8.4055,-8.4786,-8.5132,-7.036,-7.3217,-7.7323,-8.1282,-8.2304,-8.2304,-8.2304,-8.0,-7.8711,-8.1679,-8.2304,-8.2304,-8.2304,-8.2304,-8.1328,-7.8359,-7.9101,-8.0234,-8.0742,-8.082,-8.1172,-8.2187,-8.1328,-8.0273,-7.9297,-7.9492,-7.8883,-7.6922,-7.6869,-7.671,-7.6198,-7.4899,-7.4437,-7.5014,-7.5053,-7.4668,-7.386,-7.5284,-7.563,-7.4861,-7.5837,-7.5863,-7.5166,-7.6156,-7.6519,-7.6361,-7.713,-7.7515,-7.7746,-7.9208,-7.9862,-8.0054,-8.0823,-8.1093,-8.1093,-8.1093,-8.1093,-8.1093,-8.1093,-8.1093,-8.1093,-8.1093,-8.1093,-8.1093,-8.1093,-8.1093,-8.1246,-8.1939,-8.2285,-8.2785,-8.4209,-8.417,-8.3747,-8.3632,-8.3593,-8.3824,-8.4555,-8.5286,-8.5786,-8.594,-8.6017,-8.6324,-8.7094,-8.7209,-8.7478,-8.8248,-8.844,-8.8517,-8.8517,-8.8517,-8.8517,-8.8517,-8.8517,-8.8479,-8.8363,-8.9094,-8.921,-8.8402,-8.9017,-8.9094,-8.8363,-8.8363,-8.794,-8.7094,-8.644,-8.6055,-8.594,-8.594,-8.5901,-8.5786,-8.5901,-8.594,-7.0909,-7.1154,-7.2713,-7.8118,-8.0898,-8.1797,-7.9883,-7.8281,-7.7617,-7.914,-7.9453,-7.9453,-7.9453,-7.9453,-7.8945,-7.7422,-7.7812,-7.8828,-8.039,-8.0586,-8.1015,-8.2148,-8.1015,-7.9883,-7.9414,-7.8125,-7.6892,-7.5832,-7.5376,-7.5178,-7.5274,-7.4168,-7.386,-7.4668,-7.4284,-7.386,-7.3514,-7.4245,-7.4399,-7.4014,-7.4586,-7.485,-7.4835,-7.5221,-7.5644,-7.6015,-7.6399,-7.6861,-7.7361,-7.8092,-7.8669,-7.9169,-8.0015,-8.0362,-8.0439,-8.0939,-8.1093,-8.1093,-8.1093,-8.1093,-8.1093,-8.1093,-8.1093,-8.1093,-8.1093,-8.1093,-8.117,-8.1516,-8.2285,-8.3093,-8.3362,-8.3516,-8.3593,-8.3593,-8.3593,-8.3824,-8.4709,-8.517,-8.5555,-8.6017,-8.6094,-8.6363,-8.7248,-8.7401,-8.7709,-8.8556,-8.8709,-8.8709,-8.8709,-8.8709,-8.8709,-8.8709,-8.9094,-8.9171,-8.8748,-8.944,-8.9556,-8.8748,-8.9017,-8.9056,-8.8709,-8.8709,-8.8517,-8.8132,-8.7286,-8.6594,-8.6094,-8.6094,-8.6094,-8.6094,-8.6094,-8.6094,-7.0898,-6.8942,-6.8366,-7.4368,-7.7812,-7.9023,-7.6445,-7.6562,-7.7187,-7.7187,-7.7187,-7.7187,-7.7187,-7.7187,-7.7187,-7.7187,-7.7187,-7.7773,-7.9492,-7.9726,-8.0039,-8.0898,-7.9844,-7.9062,-7.9062,-7.664,-7.4943,-7.4767,-7.408,-7.3933,-7.441,-7.3416,-7.3206,-7.4053,-7.3476,-7.3053,-7.286,-7.3053,-7.3168,-7.3168,-7.3509,-7.3793,-7.4053,-7.4284,-7.4861,-7.5668,-7.5899,-7.6361,-7.6976,-7.7207,-7.763,-7.8284,-7.94,-7.9823,-7.99,-8.0785,-8.1093,-8.1093,-8.1093,-8.1093,-8.1093,-8.1093,-8.1093,-8.1093,-8.1093,-8.1093,-8.1208,-8.1631,-8.2477,-8.3247,-8.3285,-8.3439,-8.367,-8.3862,-8.3939,-8.417,-8.5016,-8.5401,-8.5709,-8.6324,-8.6594,-8.7017,-8.7902,-8.8055,-8.8325,-8.921,-8.9325,-8.9325,-8.9325,-8.9325,-8.9325,-8.9325,-8.9863,-8.9979,-8.9402,-8.9902,-8.9979,-8.9363,-8.9325,-8.9325,-8.9325,-8.9325,-8.921,-8.9017,-8.8171,-8.7401,-8.6748,-8.6555,-8.6555,-8.6748,-8.6517,-8.644,-7.0898,-6.8928,-6.7759,-7.1359,-7.2383,-7.25,-7.2305,-7.4844,-7.7187,-7.7187,-7.7187,-7.7187,-7.7187,-7.7187,-7.7187,-7.7187,-7.7187,-7.7226,-7.7344,-7.7383,-7.7383,-7.7461,-7.7383,-7.7344,-7.7344,-7.5195,-7.3783,-7.375,-7.3208,-7.3107,-7.3717,-7.2007,-7.1437,-7.2283,-7.2283,-7.186,-7.1052,-7.186,-7.2283,-7.2283,-7.3119,-7.3119,-7.236,-7.3206,-7.4014,-7.4822,-7.563,-7.6015,-7.613,-7.6938,-7.7323,-7.7515,-7.9169,-7.9823,-7.99,-8.0785,-8.1093,-8.1093,-8.1093,-8.1093,-8.1093,-8.1093,-8.1093,-8.1093,-8.1093,-8.1093,-8.1439,-8.3016,-8.2939,-8.2901,-8.5286,-8.4747,-8.3824,-8.4632,-8.4824,-8.5055,-8.5863,-8.6709,-8.7286,-8.7325,-8.7979,-8.8825,-8.9633,-8.9787,-9.0094,-9.0941,-9.1056,-9.1056,-9.1056,-9.1056,-9.1056,-9.1056,-9.1095,-9.1133,-9.1056,-9.1095,-9.1133,-9.1056,-9.1056,-9.1056,-9.1056,-9.1056,-9.0671,-8.9863,-8.9056,-8.8594,-8.8556,-8.7748,-8.7748,-8.8517,-8.7709,-8.7325,-7.0891,-7.0547,-7.0458,-7.1675,-7.1992,-7.1992,-7.1992,-7.2969,-7.3867,-7.3867,-7.3867,-7.4531,-7.6797,-7.7187,-7.6484,-7.4219,-7.5742,-7.7187,-7.7187,-7.625,-7.5117,-7.3984,-7.5859,-7.6328,-7.4062,-7.3086,-7.2611,-7.2594,-7.2206,-7.2252,-7.2887,-7.1621,-7.1283,-7.2168,-7.1668,-7.0975,-7.0129,-7.0527,-7.0681,-7.0591,-7.1593,-7.207,-7.2206,-7.2514,-7.3129,-7.3976,-7.4822,-7.5476,-7.6015,-7.6322,-7.6476,-7.663,-7.8323,-7.8977,-7.9131,-8.0554,-8.1093,-8.1093,-8.1093,-8.1093,-8.1093,-8.1093,-8.1093,-8.1093,-8.1093,-8.1093,-8.1323,-8.2439,-8.2939,-8.3478,-8.4939,-8.4901,-8.4632,-8.5478,-8.6094,-8.6748,-8.7594,-8.8017,-8.8209,-8.8209,-8.8479,-8.894,-8.9748,-8.9902,-9.021,-9.1056,-9.121,-9.121,-9.121,-9.121,-9.121,-9.121,-9.121,-9.121,-9.121,-9.121,-9.121,-9.121,-9.121,-9.121,-9.121,-9.121,-9.1056,-9.0748,-8.9902,-8.921,-8.8709,-8.7825,-8.7863,-8.8671,-8.7825,-8.7401,-7.1213,-7.1633,-7.1982,-7.199,-7.1992,-7.1992,-7.1992,-7.1094,-7.0273,-7.0273,-7.1211,-7.2695,-7.5039,-7.5469,-7.4687,-7.2383,-7.3945,-7.5469,-7.5469,-7.4453,-7.3281,-7.2148,-7.4023,-7.4531,-7.2226,-7.1992,-7.1989,-7.2006,-7.1682,-7.1583,-7.1705,-7.1193,-7.1052,-7.136,-7.0514,-6.9821,-6.9283,-6.9355,-6.9509,-6.9706,-7.0397,-7.1091,-7.1745,-7.1745,-7.2245,-7.3091,-7.363,-7.4514,-7.5592,-7.5861,-7.6015,-7.613,-7.7553,-7.8246,-7.8669,-8.0131,-8.0862,-8.1093,-8.1093,-8.1093,-8.1093,-8.1093,-8.1093,-8.1093,-8.1093,-8.1285,-8.167,-8.2516,-8.3362,-8.4209,-8.5093,-8.5517,-8.594,-8.6786,-8.7632,-8.8402,-8.8979,-8.9094,-8.9094,-8.9094,-8.9325,-8.971,-9.0248,-9.0364,-9.0517,-9.1133,-9.121,-9.121,-9.121,-9.121,-9.121,-9.121,-9.121,-9.121,-9.121,-9.121,-9.121,-9.121,-9.121,-9.121,-9.121,-9.121,-9.121,-9.121,-9.0364,-8.9787,-8.9556,-8.8671,-8.8671,-8.9517,-8.8632,-8.8094,0.0,0.0,0.0,-7.1873,-7.1914,-7.1992,-7.1992,-6.9297,-6.6758,-6.6758,-6.9453,-7.1836,-7.1836,-7.1836,-7.1836,-7.1836,-7.1914,-7.1992,-7.1992,-7.1992,-7.1992,-7.1992,-7.1953,-7.1914,-7.1914,-7.1914,-7.1914,-7.1914,-7.1612,-7.1057,-7.0214,-7.0573,-7.0475,-6.9706,-6.8821,-6.8359,-6.8359,-6.8359,-6.8783,-6.9629,-6.9667,-7.0129,-7.086,-7.0898,-7.136,-7.2168,-7.2168,-7.3129,-7.4745,-7.5592,-7.5976,-7.6092,-7.6938,-7.7784,-7.8592,-7.9477,-8.0362,-8.1093,-8.1093,-8.1093,-8.1093,-8.1093,-8.1093,-8.1093,-8.1093,-8.1631,-8.2439,-8.3362,-8.4209,-8.5055,-8.594,-8.6786,-8.7671,-8.8517,-8.9325,-8.9902,-8.994,-8.994,-8.994,-8.994,-9.0633,-9.121,-9.121,-9.121,-9.121,-9.121,-9.121,-9.121,-9.121,-9.121,-9.121,-9.121,-9.121,-9.121,-9.121,-9.121,-9.121,-9.121,-9.121,-9.121,-9.121,-9.121,-9.121,-9.121,-9.0364,-9.0364,-9.121,-9.0325,-9.0364,-9.1171,-9.0325,-8.9479,-7.1955,0.0,0.0,0.0,0.0,0.0,-7.1992,-6.7383,-6.3125,-6.3125,-6.5898,-6.832,-6.832,-6.832,-6.832,-6.832,-7.039,-7.1992,-7.1992,-7.1992,-7.1992,-7.1992,-7.0898,-7.0156,-7.0195,-6.9805,-6.9531,-6.9531,-6.9584,-6.95,-6.9267,-6.9143,-6.9013,-6.8783,-6.7898,-6.7475,-6.7475,-6.7475,-6.759,-6.7821,-6.909,-6.9821,-7.0052,-7.0629,-7.1014,-7.1283,-7.1937,-7.2822,-7.3899,-7.4707,-7.5438,-7.6092,-7.6938,-7.7784,-7.8592,-7.9477,-8.0362,-8.1093,-8.1093,-8.1093,-8.1093,-8.1093,-8.1093,-8.1093,-8.1093,-8.1246,-8.1747,-8.317,-8.3747,-8.4439,-8.6517,-8.7671,-8.8556,-8.9363,-8.9748,-9.0094,-9.071,-9.0825,-9.0825,-9.0825,-9.1056,-9.121,-9.121,-9.121,-9.121,-9.121,-9.121,-9.121,-9.121,-9.121,-9.121,-9.121,-9.121,-9.121,-9.121,-9.121,-9.121,-9.121,-9.121,-9.121,-9.121,-9.121,-9.121,-9.121,-9.0979,-9.0979,-9.121,-9.0325,-9.0364,-9.1171,-9.0325,-8.9787,-7.2006,-7.1986,-7.1523,-6.9531,0.0,0.0,-6.9883,-6.6758,-6.3867,-6.3867,-6.4336,-6.4726,-6.4726,-6.4726,-6.5195,-6.664,-6.8555,-6.9883,-6.9883,-7.1094,-7.1484,-7.0039,-6.9414,-6.9062,-6.9101,-6.9023,-6.8945,-6.8945,-6.8997,-6.8954,-6.8801,-6.7856,-6.7513,-6.7859,-6.7051,-6.659,-6.659,-6.659,-6.6782,-6.7128,-6.8513,-6.936,-6.9744,-7.0514,-7.0898,-7.0937,-7.1822,-7.2706,-7.3553,-7.4361,-7.5207,-7.6053,-7.6553,-7.7476,-7.8554,-7.9054,-8.0054,-8.1093,-8.1093,-8.1093,-8.1093,-8.1093,-8.1093,-8.1093,-8.1093,-8.1593,-8.2362,-8.3324,-8.4362,-8.5593,-8.744,-8.8556,-8.9402,-9.0248,-9.0441,-9.0594,-9.1095,-9.121,-9.121,-9.121,-9.121,-9.121,-9.121,-9.121,-9.121,-9.121,-9.121,-9.121,-9.121,-9.121,-9.121,-9.121,-9.121,-9.121,-9.121,-9.121,-9.121,-9.121,-9.121,-9.121,-9.121,-9.121,-9.121,-9.121,-9.121,-9.121,-9.121,-9.071,-9.071,-9.121,-9.0671,-9.0441,-7.1992,-7.1992,-7.1992,-7.1992,-6.9726,0.0,-6.6992,-6.6601,-6.6328,-6.6328,-6.3867,-6.1719,-6.1719,-6.2031,-6.3281,-6.6406,-6.6914,-6.6914,-6.6914,-6.9531,-7.0312,-6.7265,-6.7773,-6.8398,-6.8398,-6.8828,-6.9101,-6.9101,-6.8996,-6.8738,-6.8374,-6.6852,-6.6266,-6.6948,-6.6294,-6.5947,-6.5897,-6.5897,-6.6282,-6.709,-6.7975,-6.8859,-6.9744,-7.0514,-7.0898,-7.0937,-7.1822,-7.2706,-7.3553,-7.4361,-7.5207,-7.6015,-7.6015,-7.6976,-7.8361,-7.8477,-7.9554,-8.0977,-8.1054,-8.1093,-8.1093,-8.1093,-8.1093,-8.1093,-8.1093,-8.2208,-8.3478,-8.367,-8.5593,-8.7709,-8.8479,-8.9363,-9.0248,-9.1018,-9.121,-9.121,-9.121,-9.121,-9.121,-9.121,-9.121,-9.121,-9.121,-9.121,-9.121,-9.121,-9.121,-9.121,-9.121,-9.121,-9.121,-9.121,-9.121,-9.121,-9.121,-9.121,-9.1248,-9.1325,-9.1248,-9.1248,-9.1325,-9.1248,-9.121,-9.121,-9.121,-9.121,-9.121,-9.121,-9.121,-9.121,-9.121,-9.121,-7.1992,-7.1992,-7.1992,-7.1992,-7.1484,0.0,-6.7539,-6.4726,-6.2695,-6.2695,-6.2187,-6.1719,-6.1719,-6.3984,-6.6094,-6.6797,-6.6914,-6.6914,-6.6914,-6.7461,-6.7656,-6.6992,-6.7109,-6.7226,-6.7226,-6.7344,-6.7383,-6.7383,-6.7203,-6.7032,-6.6853,-6.65,-6.6312,-6.6301,-6.6147,-6.6003,-6.5897,-6.5897,-6.6282,-6.709,-6.7975,-6.8859,-6.9744,-7.0514,-7.0898,-7.0937,-7.1822,-7.2706,-7.3553,-7.4361,-7.5207,-7.6015,-7.6015,-7.663,-7.7592,-7.8246,-7.9169,-8.0169,-8.0862,-8.1093,-8.1093,-8.1093,-8.1093,-8.1093,-8.1093,-8.1785,-8.2862,-8.4247,-8.6478,-8.8479,-8.8671,-8.9825,-9.0979,-9.1171,-9.121,-9.121,-9.121,-9.121,-9.121,-9.121,-9.121,-9.121,-9.121,-9.121,-9.121,-9.121,-9.121,-9.121,-9.121,-9.121,-9.121,-9.121,-9.121,-9.121,-9.121,-9.121,-9.1518,-9.221,-9.1595,-9.1518,-9.221,-9.1556,-9.121,-9.121,-9.121,-9.121,-9.121,-9.121,-9.121,-9.121,-9.121,-9.121,-7.1992,-7.1992,-7.2422,-7.414,-7.3281,0.0,0.0,-6.8086,-6.6836,-6.6836,-6.6836,-6.6836,-6.6836,-6.8281,-6.9453,-6.9453,-6.9453,-6.8867,-6.7148,-6.6914,-6.625,-6.4492,-6.5859,-6.6914,-6.6914,-6.6914,-6.6914,-6.6914,-6.6696,-6.6557,-6.6498,-6.5995,-6.5878,-6.607,-6.6109,-6.6067,-6.5897,-6.6282,-6.6513,-6.6513,-6.8244,-6.9052,-6.909,-7.0321,-7.1129,-7.1591,-7.2476,-7.3322,-7.4168,-7.5014,-7.563,-7.6015,-7.6015,-7.6515,-7.74,-7.8207,-7.9054,-7.9939,-8.0785,-8.1093,-8.1093,-8.1093,-8.1093,-8.117,-8.1593,-8.2593,-8.3862,-8.5132,-8.7055,-8.8709,-8.8709,-8.994,-9.121,-9.121,-9.121,-9.121,-9.121,-9.121,-9.121,-9.121,-9.121,-9.121,-9.121,-9.121,-9.121,-9.121,-9.121,-9.121,-9.121,-9.121,-9.121,-9.121,-9.121,-9.121,-9.121,-9.121,-9.1402,-9.1825,-9.1441,-9.1402,-9.1825,-9.1441,-9.121,-9.121,-9.121,-9.121,-9.121,-9.121,-9.121,-9.121,-9.121,-9.121,-7.3008,-7.3008,-7.3672,-7.6484,-7.5078,-7.2812,0.0,0.0,0.0,-7.1992,-7.1992,-7.1992,-7.1992,-7.1445,-7.1211,-7.1875,-7.1992,-7.082,-6.7383,-6.7461,-6.6836,-6.4023,-6.5586,-6.707,-6.75,-6.7461,-6.7265,-6.6914,-6.6898,-6.6834,-6.6678,-6.5901,-6.566,-6.6173,-6.6161,-6.6167,-6.6189,-6.6769,-6.6936,-6.6667,-6.8706,-6.9398,-6.8936,-7.0475,-7.1514,-7.2245,-7.3283,-7.4091,-7.4784,-7.563,-7.6015,-7.6015,-7.6015,-7.6515,-7.74,-7.8207,-7.9054,-7.9939,-8.0785,-8.1093,-8.1093,-8.1093,-8.1208,-8.1477,-8.2285,-8.3632,-8.5093,-8.5863,-8.7209,-8.8479,-8.8671,-8.9825,-9.0979,-9.1171,-9.121,-9.121,-9.121,-9.121,-9.121,-9.121,-9.121,-9.121,-9.121,-9.121,-9.121,-9.121,-9.121,-9.121,-9.121,-9.121,-9.121,-9.121,-9.121,-9.121,-9.121,-9.121,-9.1325,-9.1672,-9.1364,-9.1325,-9.1672,-9.1364,-9.1287,-9.1441,-9.1287,-9.121,-9.121,-9.121,-9.121,-9.121,-9.121,-9.121,-7.6601,-7.6601,-7.6719,-7.7109,-7.6914,-7.5781,-7.2695,0.0,-7.1992,-7.1992,0.0,-7.1992,-7.1992,0.0,0.0,-7.1523,-7.1992,-7.082,-6.7383,-6.9492,-7.1289,-7.0898,-6.8515,-6.7695,-6.9726,-6.9492,-6.8555,-6.7031,-6.7578,-6.7695,-6.6913,-6.6755,-6.666,-6.6549,-6.6435,-6.6648,-6.7232,-6.7123,-6.7821,-6.9283,-6.9552,-7.0014,-7.0667,-7.1591,-7.2091,-7.2283,-7.3899,-7.463,-7.4784,-7.563,-7.6015,-7.6015,-7.6015,-7.6515,-7.74,-7.8207,-7.9054,-7.9939,-8.0785,-8.1093,-8.1093,-8.1093,-8.1593,-8.2324,-8.317,-8.4132,-8.5093,-8.5863,-8.6786,-8.7709,-8.8479,-8.9363,-9.0248,-9.1018,-9.121,-9.121,-9.121,-9.121,-9.121,-9.121,-9.121,-9.121,-9.121,-9.121,-9.121,-9.121,-9.121,-9.121,-9.121,-9.121,-9.121,-9.121,-9.121,-9.121,-9.121,-9.121,-9.1825,-9.3326,-9.2018,-9.1864,-9.3364,-9.1979,-9.1556,-9.2326,-9.1595,-9.121,-9.121,-9.121,-9.121,-9.121,-9.121,-9.121,-7.7187,-7.7187,-7.7187,-7.7187,-7.7187,-7.6836,-7.5351,-7.5039,-7.4453,-7.2422,0.0,0.0,0.0,0.0,0.0,0.0,-6.8633,-6.6211,-6.6836,-6.9844,-7.1992,-7.1992,-7.0156,-6.8945,-6.9062,-6.9765,-6.9297,-6.707,-6.7695,-6.8047,-6.7656,-6.7187,-6.726,-6.8066,-6.8063,-6.8086,-6.8142,-6.8524,-6.8845,-6.9115,-7.0003,-7.035,-7.0367,-7.1621,-7.2476,-7.3014,-7.4207,-7.4976,-7.5476,-7.5861,-7.6015,-7.6015,-7.6015,-7.6207,-7.6707,-7.8015,-7.8707,-7.9246,-8.0631,-8.1093,-8.1093,-8.1093,-8.1977,-8.3131,-8.3478,-8.4516,-8.567,-8.6017,-8.6748,-8.7594,-8.8479,-8.9286,-9.0133,-9.0979,-9.121,-9.121,-9.121,-9.121,-9.121,-9.121,-9.121,-9.121,-9.121,-9.121,-9.121,-9.121,-9.121,-9.121,-9.121,-9.121,-9.1402,-9.1902,-9.1518,-9.1402,-9.1902,-9.1941,-9.2249,-9.2941,-9.2787,-9.2518,-9.2249,-9.2056,-9.1902,-9.1748,-9.1402,-9.121,-9.121,-9.121,-9.121,-9.121,-9.121,-9.121,-7.7187,-7.7187,-7.6953,-7.6015,-7.6484,-7.7187,-7.7187,-7.7187,-7.6484,-7.3945,-7.3437,0.0,0.0,0.0,0.0,0.0,0.0,-6.539,-6.793,-7.043,-7.1875,-7.1562,-7.1094,-7.0195,-6.8672,-7.0078,-7.0,-6.7461,-6.8047,-6.8437,-6.8203,-6.7617,-6.7888,-6.9225,-6.921,-6.9197,-6.9189,-6.9705,-6.9825,-6.9476,-7.0506,-7.0729,-7.031,-7.1866,-7.2899,-7.3553,-7.4591,-7.5438,-7.6015,-7.6015,-7.613,-7.6361,-7.6361,-7.6476,-7.6823,-7.8054,-7.8784,-7.94,-8.0669,-8.1093,-8.1093,-8.1093,-8.2054,-8.3247,-8.3247,-8.4439,-8.5786,-8.5786,-8.6401,-8.7286,-8.8402,-8.9133,-8.9863,-9.0941,-9.121,-9.121,-9.121,-9.121,-9.121,-9.121,-9.121,-9.121,-9.121,-9.121,-9.121,-9.121,-9.121,-9.121,-9.121,-9.121,-9.1441,-9.2095,-9.1595,-9.1479,-9.2095,-9.2133,-9.2249,-9.2479,-9.348,-9.3403,-9.1941,-9.2287,-9.221,-9.1556,-9.1325,-9.121,-9.121,-9.121,-9.121,-9.121,-9.121,-9.121,-7.7187,-7.7187,-7.6406,-7.3008,-7.4687,-7.7187,-7.7187,-7.7187,-7.7187,-7.707,-7.7031,-7.7031,0.0,0.0,0.0,0.0,0.0,0.0,0.0,-7.1914,-7.1601,-7.0508,-7.1289,-7.125,-6.9531,-7.0937,-7.0898,-6.8359,-6.8984,-6.9101,-6.8242,-6.8164,-6.8555,-6.9375,-6.9269,-6.9582,-7.0434,-7.0275,-7.059,-7.1393,-7.126,-7.1162,-7.1201,-7.2752,-7.3476,-7.3591,-7.5245,-7.5976,-7.6015,-7.6015,-7.6515,-7.7246,-7.7246,-7.7707,-7.8438,-7.8477,-7.9554,-8.1016,-8.1093,-8.1093,-8.1093,-8.1093,-8.167,-8.2324,-8.2324,-8.3555,-8.4939,-8.4939,-8.5517,-8.6555,-8.8248,-8.8709,-8.9133,-9.0825,-9.121,-9.121,-9.121,-9.121,-9.121,-9.121,-9.121,-9.121,-9.121,-9.121,-9.121,-9.121,-9.121,-9.121,-9.121,-9.121,-9.121,-9.1248,-9.121,-9.121,-9.1248,-9.1248,-9.1595,-9.2441,-9.4057,-9.4557,-9.3672,-9.2903,-9.2479,-9.2441,-9.1633,-9.121,-9.121,-9.121,-9.121,-9.121,-9.121,-9.121,0.0,0.0,-7.6367,-7.2851,-7.4609,-7.7187,-7.7187,-7.7187,-7.7187,-7.7187,-7.7187,-7.7187,-7.7187,0.0,0.0,0.0,0.0,0.0,0.0,-7.1015,-7.1211,-7.1406,-7.1758,-7.1523,-7.0351,-7.0273,-6.9453,-6.75,-6.7617,-6.789,-6.8164,-6.875,-6.9687,-7.1094,-7.1091,-7.1112,-7.1299,-7.123,-7.133,-7.1633,-7.1348,-7.1533,-7.2219,-7.3123,-7.3783,-7.4361,-7.5515,-7.6015,-7.6015,-7.6015,-7.6515,-7.7284,-7.7284,-7.813,-7.9361,-7.9361,-7.9746,-8.0323,-8.09,-8.1093,-8.1093,-8.1093,-8.1631,-8.2401,-8.2978,-8.3978,-8.5016,-8.5555,-8.5901,-8.6517,-8.8248,-8.8709,-8.9133,-9.0787,-9.121,-9.121,-9.121,-9.121,-9.121,-9.121,-9.121,-9.121,-9.121,-9.121,-9.121,-9.121,-9.121,-9.1402,-9.1979,-9.2056,-9.2479,-9.3595,-9.271,-9.2287,-9.2826,-9.2364,-9.2402,-9.3249,-9.4364,-9.4364,-9.2941,-9.3172,-9.2787,-9.1672,-9.1364,-9.121,-9.121,-9.121,-9.121,-9.121,-9.121,-9.121,-7.1055,-7.3633,0.0,-7.1055,-7.2773,0.0,-7.5351,-7.6328,-7.7187,-7.7187,-7.7187,-7.7187,-7.7187,0.0,0.0,0.0,0.0,0.0,0.0,-7.1055,-7.1367,-7.1914,-7.1992,-7.164,-7.0781,-7.0195,-6.9023,-6.7031,-6.7187,-6.7617,-6.8164,-6.8984,-7.0234,-7.1953,-7.2305,-7.2263,-7.1807,-7.2119,-7.2071,-7.1689,-7.1714,-7.2052,-7.2669,-7.3523,-7.4207,-7.4745,-7.563,-7.6015,-7.6015,-7.6322,-7.6938,-7.7746,-7.8054,-7.9054,-8.0208,-7.99,-8.0015,-8.0323,-8.09,-8.1093,-8.1093,-8.1093,-8.1439,-8.2016,-8.2862,-8.3747,-8.4555,-8.5055,-8.5863,-8.6748,-8.7555,-8.844,-8.9402,-9.0479,-9.0979,-9.121,-9.121,-9.121,-9.121,-9.121,-9.1441,-9.1556,-9.1248,-9.1479,-9.1556,-9.1248,-9.121,-9.1402,-9.1979,-9.2326,-9.2903,-9.398,-9.3403,-9.3018,-9.3249,-9.3056,-9.3133,-9.3672,-9.4518,-9.4364,-9.2979,-9.3403,-9.3326,-9.2556,-9.1672,-9.1633,-9.2556,-9.1633,-9.121,-9.121,-9.1518,-9.1518]},{"header":{"parameterUnit":"m.s-1","parameterCategory":1,"la1":30.6,"la2":29.2853,"lo1":-89.7004,"lo2":-87.6739,"dx":0.0162,"dy":0.0183,"nx":112,"ny":82,"refTime":"2023-02-08T06:00:00:Z","depth":0,"parameterNumber":3,"parameterNumberName":"V-component_of_WINDS"},"data":[0.0,0.0,0.0,0.0,0.0,0.0,0.0,0.0,0.0,0.0,0.0,0.0,0.0,0.0,0.0,0.0,0.0,0.0,0.0,0.0,0.0,0.0,0.0,0.0,0.0,0.0,0.0,0.0,0.0,0.0,0.0,0.0,0.0,0.0,0.0,0.0,0.0,0.0,0.0,0.0,0.0,0.0,0.0,0.0,0.0,0.0,0.0,0.0,0.0,0.0,0.0,0.0,0.0,0.0,0.0,0.0,0.0,0.0,0.0,0.0,0.0,0.0,0.0,0.0,0.0,0.0,0.0,0.0,0.0,0.0,0.0,0.0,0.0,0.0,0.0,0.0,0.0,0.0,0.0,0.0,0.0,0.0,0.0,0.0,0.0,0.0,0.0,0.0,0.0,0.0,0.7237,0.7469,1.1305,1.3892,1.3614,1.3641,1.3519,1.3159,0.0,0.0,0.0,0.0,0.0,0.0,0.0,0.0,0.0,0.0,0.0,0.0,0.0,0.0,0.0,0.0,0.0,0.0,0.0,0.0,0.0,0.0,0.0,0.0,0.0,0.0,0.0,0.0,0.0,0.0,0.0,0.0,0.0,0.0,0.0,0.0,0.0,0.0,0.0,0.0,0.0,0.0,0.0,0.0,0.0,0.0,0.0,0.0,0.0,0.0,0.0,0.0,0.0,0.0,0.0,0.0,0.0,0.0,0.0,0.0,0.0,0.0,0.0,0.0,0.0,0.0,0.0,0.0,0.0,0.0,0.0,0.0,0.0,0.0,0.0,0.0,0.0,0.0,0.0,0.0,0.0,0.0,0.0,0.0,0.0,0.0,0.0,0.0,0.0,0.0,0.0,0.0,0.0,0.0,0.0,0.0,0.0,0.0,0.0,0.0,0.0,0.0,0.0,0.0,0.9677,0.9827,1.2044,1.3627,1.3451,1.3105,1.2929,1.299,0.0,0.0,0.0,0.0,0.0,0.0,0.0,0.0,0.0,0.0,0.0,0.0,0.0,0.0,0.0,0.0,0.0,0.0,0.0,0.0,0.0,0.0,0.0,0.0,0.0,0.0,0.0,0.0,0.0,0.0,0.0,0.0,0.0,0.0,0.0,0.0,0.0,0.0,0.0,0.0,0.0,0.0,0.0,0.0,0.0,0.0,0.0,0.0,0.0,0.0,0.0,0.0,0.0,0.0,0.0,0.0,0.0,0.0,0.0,0.0,0.0,0.0,0.0,0.0,0.0,0.0,0.0,0.0,0.0,0.0,0.0,0.0,0.0,0.0,0.0,0.0,0.0,0.0,0.0,0.0,0.0,0.0,0.0,0.0,0.0,0.0,0.0,0.0,0.0,0.0,0.0,0.0,0.0,0.0,0.0,0.0,0.0,0.0,0.0,0.0,0.0,0.0,0.0,0.9402,1.004,1.0351,1.234,1.3648,1.3417,1.2915,1.2705,1.2949,1.2501,0.0,0.0,0.0,0.0,0.0,0.0,0.0,0.0,0.0,0.0,0.0,0.0,0.0,0.0,0.0,0.0,0.0,0.0,0.0,0.0,0.0,0.0,0.0,0.0,0.0,0.0,0.0,0.0,0.0,0.0,0.0,0.0,0.0,0.0,0.0,0.0,0.0,0.0,0.0,0.0,0.0,0.0,0.0,0.0,0.0,0.0,0.0,0.0,0.0,0.0,0.0,0.0,0.0,0.0,0.0,0.0,0.0,0.0,0.0,0.0,0.0,0.0,0.0,0.0,0.0,0.0,0.0,0.0,0.0,0.0,0.0,0.0,0.0,0.0,0.0,0.0,0.0,0.0,0.0,0.0,0.0,0.0,0.0,0.0,0.0,0.0,0.0,0.0,0.0,0.0,0.0,0.0,0.0,0.0,0.0,0.0,0.0,0.0,0.0,0.0,0.0,0.0,1.0166,1.0095,1.0913,1.2514,1.3559,1.3268,1.2691,1.2474,1.2779,1.2026,0.0,0.0,0.0,0.0,0.0,0.0,0.0,0.0,0.0,0.0,0.0,0.0,0.0,0.0,0.0,0.0,0.0,0.0,0.0,0.0,0.0,0.0,0.0,0.0,0.0,0.0,0.0,0.0,0.0,0.0,0.0,0.0,0.0,0.0,0.0,0.0,0.0,0.0,0.0,0.0,0.0,0.0,0.0,0.0,0.0,0.0,0.0,0.0,0.0,0.0,0.0,0.0,0.0,0.0,0.0,0.0,0.0,0.0,0.0,0.0,0.0,0.0,0.0,0.0,0.0,0.0,0.0,0.0,0.0,0.0,0.0,0.0,0.0,0.0,0.0,0.0,0.0,0.0,0.0,0.0,0.0,0.0,0.0,0.0,0.0,0.0,0.0,0.0,0.0,0.0,0.0,0.0,0.0,0.0,0.0,0.0,0.0,0.0,0.0,0.0,0.0,0.0,1.0964,1.0309,1.2602,1.3125,1.3098,1.28,1.2223,1.2006,1.2318,1.1755,0.0,0.0,0.0,0.0,0.0,0.0,0.0,0.0,0.0,0.0,0.0,0.0,0.0,0.0,0.0,0.0,0.0,0.0,0.0,0.0,0.0,0.0,0.0,0.0,0.0,0.0,0.0,0.0,0.0,0.0,0.0,0.0,0.0,0.0,0.0,0.0,0.0,0.0,0.0,0.0,0.0,0.0,0.0,0.0,0.0,0.0,0.0,0.0,0.0,0.0,0.0,0.0,0.0,0.0,0.0,0.0,0.0,0.0,0.0,0.0,0.0,0.0,0.0,0.0,0.0,0.0,0.0,0.0,0.0,0.0,0.0,0.0,0.0,0.0,0.0,0.0,0.0,0.0,0.0,0.0,0.0,0.0,0.0,0.0,0.0,0.0,0.0,0.0,0.0,0.0,0.0,0.0,0.0,0.0,0.0,0.0,0.0,0.0,0.0,0.0,0.0,0.0,1.1921,1.1619,1.2908,1.2922,1.2813,1.2603,1.204,1.183,1.2128,0.0,0.0,0.0,0.0,0.0,0.0,0.0,0.0,0.0,0.0,0.0,0.0,0.0,0.0,0.0,0.0,0.0,0.0,0.0,0.0,0.0,0.0,0.0,0.0,0.0,0.0,0.0,0.0,0.0,0.0,0.0,0.0,0.0,0.0,0.0,0.0,0.0,0.0,0.0,0.0,0.0,0.0,0.0,0.0,0.0,0.0,0.0,0.0,0.0,0.0,0.0,0.0,0.0,0.0,0.0,0.0,0.0,0.0,0.0,0.0,0.0,0.0,0.0,0.0,0.0,0.0,0.0,0.0,0.0,0.0,0.0,0.0,0.0,0.0,0.0,0.0,0.0,0.0,0.0,0.0,0.0,0.0,0.0,0.0,0.0,0.0,0.0,0.0,0.0,0.0,0.0,0.0,0.0,0.0,0.0,0.0,0.0,0.0,0.0,0.0,0.0,0.0,1.2773,1.242,1.2284,1.2637,1.2664,1.2556,1.2311,1.1748,1.1552,1.1898,0.0,0.0,0.0,0.0,0.0,0.0,0.0,0.0,0.0,0.0,0.0,0.0,0.0,0.0,0.0,0.0,0.0,0.0,0.0,0.0,0.0,0.0,0.0,0.0,0.0,0.0,0.0,0.0,0.0,0.0,0.0,0.0,0.0,0.0,0.0,0.0,0.0,0.0,0.0,0.0,0.0,0.0,0.0,0.0,0.0,0.0,0.0,0.0,0.0,0.0,0.0,0.0,0.0,0.0,0.0,0.0,0.0,0.0,0.0,0.0,0.0,0.0,0.0,0.0,0.0,0.0,0.0,0.0,0.0,0.0,0.0,0.0,0.0,0.0,0.0,0.0,0.0,0.0,0.0,0.0,0.0,0.0,0.0,0.0,0.0,0.0,0.0,0.0,0.0,0.0,0.0,0.0,0.0,0.0,0.0,0.0,0.0,0.0,0.0,0.0,0.0,0.0,1.244,1.2101,1.1884,1.2047,1.2318,1.2311,1.1864,1.1287,1.1138,0.0,0.0,0.0,0.0,0.0,0.0,0.0,0.0,0.0,0.0,0.0,0.0,0.0,0.0,0.0,0.0,0.0,0.0,0.0,0.0,0.0,0.0,0.0,0.0,0.0,0.0,0.0,0.0,0.0,0.0,0.0,0.0,0.0,0.0,0.0,0.0,0.0,0.0,0.0,0.0,0.0,0.0,0.0,0.0,0.0,0.0,0.0,0.0,0.0,0.0,0.0,0.0,0.0,0.0,0.0,0.0,0.0,0.0,0.0,0.0,0.0,0.0,0.0,0.0,0.0,0.0,0.0,0.0,0.0,0.0,0.0,0.0,0.0,0.0,0.0,0.0,0.0,0.0,0.0,0.0,0.0,0.0,0.0,0.0,0.0,0.0,0.0,0.0,0.0,0.0,0.0,0.0,0.0,0.0,0.0,0.0,0.0,0.0,0.0,0.0,0.0,0.0,0.0,1.2305,1.1864,1.166,1.2026,1.204,1.1932,1.1701,1.1233,1.105,1.128,0.0,0.0,0.0,0.0,0.0,0.0,0.0,0.0,0.0,0.0,0.0,0.0,0.0,0.0,0.0,0.0,0.0,0.0,0.0,0.0,0.0,0.0,0.0,0.0,0.0,0.0,0.0,0.0,0.0,0.0,0.0,0.0,0.0,0.0,0.0,0.0,0.0,0.0,0.0,0.0,0.0,0.0,0.0,0.0,0.0,0.0,0.0,0.0,0.0,0.0,0.0,0.0,0.0,0.0,0.0,0.0,0.0,0.0,0.0,0.0,0.0,0.0,0.0,0.0,0.0,0.0,0.0,0.0,0.0,0.0,0.0,0.0,0.0,0.0,0.0,0.0,0.0,0.0,0.0,0.0,0.0,0.0,0.0,0.0,0.0,0.0,0.0,0.0,0.0,0.0,0.0,0.0,0.0,0.0,0.0,0.0,0.0,0.0,0.0,0.0,0.0,0.0,1.2162,1.1728,1.1497,1.1762,1.1769,1.164,1.1375,1.0989,1.0806,1.0887,0.0,0.0,0.0,0.0,0.0,0.0,0.0,0.0,0.0,0.0,0.0,0.0,0.0,0.0,0.0,0.0,0.0,0.0,0.0,0.0,0.0,0.0,0.0,0.0,0.0,0.0,0.0,0.0,0.0,0.0,0.0,0.0,0.0,0.0,0.0,0.0,0.0,0.0,0.0,0.0,0.0,0.0,0.0,0.0,0.0,0.0,0.0,0.0,0.0,0.0,0.0,0.0,0.0,0.0,0.0,0.0,0.0,0.0,0.0,0.0,0.0,0.0,0.0,0.0,0.0,0.0,0.0,0.0,0.0,0.0,0.0,0.0,0.0,0.0,0.0,0.0,0.0,0.0,0.0,0.0,0.0,0.0,0.0,0.0,0.0,0.0,0.0,0.0,0.0,0.0,0.0,0.0,0.0,0.0,0.0,0.0,0.0,0.0,0.0,0.0,0.0,0.0,1.2006,1.1647,1.1375,1.1389,1.1518,1.1423,1.0989,1.0683,1.0507,1.0493,0.0,0.0,0.0,0.0,0.0,0.0,0.0,0.0,0.0,0.0,0.0,0.0,0.0,0.0,0.0,0.0,0.0,0.0,0.0,0.0,0.0,0.0,0.0,0.0,0.0,0.0,0.0,0.0,0.0,0.0,0.0,0.0,0.0,0.0,0.0,0.0,0.0,0.0,0.0,0.0,0.0,0.0,0.0,0.0,0.0,0.0,0.0,0.0,0.0,0.0,0.0,0.0,0.0,0.0,0.0,0.0,0.0,0.0,0.0,0.0,0.0,0.1076,0.0,0.0,0.0,0.0,0.0,0.0,0.0,0.0,0.0,0.0,0.0,0.0,0.0,0.0,0.0,0.0,0.0,0.0,0.0,0.0,0.0,0.0,0.0,0.0,0.0,0.0,0.0,0.0,0.0,0.0,0.0,0.0,0.0,0.0,0.0,0.0,0.0,0.0,0.0,0.0,1.1857,1.1491,1.126,1.1382,1.1423,1.1307,1.0975,1.0778,1.0622,1.05,1.027,0.0,0.0,0.0,0.0,0.0,0.0,0.0,0.0,0.0,0.0,0.0,0.0,0.0,0.0,0.0,0.0,0.0,0.0,0.0,0.0,0.0,0.0,0.0,0.0,0.0,0.0,0.0,0.0,0.0,0.0,0.0,0.0,0.0,0.0,0.0,0.0,0.0,0.0,0.0,0.0,0.0,0.0,0.0,0.0,0.0,0.0,0.0,0.0,0.0,0.0,0.0,0.0,0.0,0.0,0.0,0.0,0.0,0.0,0.0,0.1804,0.2509,0.0,0.0,0.0,0.0,0.0,0.0,0.0,0.0,0.0,0.0,0.0,0.0,0.0,0.0,0.0,0.0,0.0,0.0,0.0,0.0,0.0,0.0,0.0,0.0,0.0,0.0,0.0,0.0,0.0,0.0,0.0,0.0,0.0,0.0,0.0,0.0,0.0,0.0,0.0,0.0,1.1721,1.1335,1.109,1.1172,1.1179,1.1084,1.086,1.0697,1.0514,1.029,1.0202,0.0,0.0,0.0,0.0,0.0,0.0,0.0,0.0,0.0,0.0,0.0,0.0,0.0,0.0,0.0,0.0,0.0,0.0,0.0,0.0,0.0,0.0,0.0,0.0,0.0,0.0,0.0,0.0,0.0,0.0,0.0,0.0,0.0,0.0,0.0,0.0,0.0,0.0,0.0,0.0,0.0,0.0,0.0,0.0,0.0,0.0,0.0,0.0,0.0,0.0,0.0,0.0,0.0,0.6687,0.6565,0.4586,0.3632,0.3616,0.3959,0.423,0.4527,0.5034,0.6458,0.0,0.0,0.0,0.0,0.0,0.0,0.0,0.0,0.0,0.0,0.0,0.0,0.0,0.0,0.0,0.0,0.0,0.0,0.0,0.0,0.0,0.0,1.3268,1.322,1.3024,1.2827,1.2773,0.0,0.0,0.0,0.0,0.0,0.0,0.0,0.0,0.0,0.0,0.0,1.1545,1.1192,1.0948,1.0948,1.0948,1.0887,1.0731,1.0602,1.0412,1.0141,1.0202,1.0141,0.0,0.0,0.0,0.0,0.0,0.0,0.0,0.0,0.0,0.0,0.0,0.0,0.0,0.0,0.0,0.0,0.0,0.0,0.0,0.0,0.0,0.0,0.0,0.0,0.0,0.0,0.0,0.0,0.0,0.0,0.0,0.0,-1.1918,-1.0324,0.0,0.0,0.0,0.0,0.0,0.0,0.0,0.0,0.0,0.0,0.0,0.0,0.0,-0.0366,0.0,0.4634,0.7139,0.7281,0.7472,0.7512,0.72,0.2537,0.1952,0.4282,0.6387,0.0,1.0264,0.8182,0.0,0.0,0.0,0.0,0.0,0.0,0.0,0.0,0.0,0.0,0.0,0.0,0.0,0.0,0.0,0.0,0.0,0.0,0.0,0.0,0.0,0.0,1.2752,1.2501,1.2406,1.2305,1.204,1.261,1.3146,1.3037,1.2807,1.2664,0.0,0.0,0.0,0.0,0.0,0.0,1.126,1.1063,1.0948,1.0948,1.0948,1.0887,1.0731,1.0704,1.0616,1.0446,1.0209,1.0127,1.0215,1.0134,0.0,0.0,0.0,0.0,0.0,0.0,0.0,0.0,0.0,0.0,0.0,0.0,0.0,0.0,0.0,0.0,0.0,0.0,0.0,0.0,0.0,0.0,0.0,0.0,0.0,0.0,0.0,0.0,0.0,-1.3139,-1.2459,-1.0221,-1.0094,-0.9417,0.0,0.0,0.0,0.0,0.0,0.0,0.0,0.0,0.0,-0.1459,-0.055,0.0,0.0,0.513,0.7897,0.8092,0.9272,0.9344,0.7864,0.404,0.384,0.6659,0.7663,1.029,1.3798,1.2315,1.2057,1.2568,0.0,0.0,0.0,0.0,0.9788,1.1057,1.2003,1.2258,1.2362,1.3383,0.0,0.0,0.0,0.0,0.0,0.0,0.0,1.3431,1.3132,1.2956,1.2786,1.2481,1.2406,1.2325,1.2026,1.2271,1.2501,1.2352,1.2359,1.2379,1.2359,1.2176,0.0,0.0,0.0,1.1287,1.107,1.0914,1.0819,1.0819,1.0819,1.0792,1.0724,1.0717,1.0622,1.0385,1.0249,1.0134,1.0025,1.0039,1.0114,0.0,0.0,0.0,0.0,0.0,0.0,0.0,0.0,0.0,0.0,0.0,0.0,0.0,0.0,0.0,0.0,0.0,0.0,0.0,0.0,0.0,0.0,0.0,0.0,0.0,0.0,0.0,0.0,-1.2899,-1.1728,-0.9328,-0.8813,-0.7739,0.0,0.0,0.0,0.0,0.0,0.0,-0.0178,0.0,0.0,0.0,0.0,0.0381,0.0977,0.5668,0.8518,0.9342,1.0357,1.0032,0.8317,0.5415,0.562,0.8317,0.9147,1.1871,1.5927,1.533,1.4821,1.4216,1.2243,1.2469,1.378,1.1991,1.2397,1.4061,1.3987,1.3885,1.377,1.3661,1.3471,1.3275,1.32,0.0,0.0,0.0,0.0,1.3227,1.2969,1.2874,1.2786,1.2556,1.2474,1.2379,1.2121,1.206,1.1993,1.1762,1.187,1.1979,1.1904,1.1762,0.0,1.1518,1.1307,1.1097,1.0914,1.0792,1.0717,1.0717,1.0717,1.0717,1.0717,1.0717,1.0609,1.0351,1.0297,1.0175,0.9951,0.9971,1.0025,1.0107,0.0,0.0,0.0,0.0,0.0,0.0,0.0,0.0,0.0,0.0,0.0,0.0,0.0,0.0,0.0,0.0,0.0,0.0,0.0,0.0,0.0,0.0,0.0,0.0,0.0,0.0,0.0,0.0,0.0,-0.6686,-0.462,0.0,0.0,0.0,0.0,-0.0177,-0.0178,-0.018,0.0,0.0,0.0,0.0,0.0,0.1382,0.4018,0.6884,0.964,1.2522,0.9812,0.8399,0.8474,0.5516,0.5728,0.8685,1.1222,1.3973,1.6239,1.5635,1.512,1.4685,1.4222,1.4108,1.4258,1.3934,1.4061,1.4034,1.3749,1.3648,1.3641,1.3634,1.362,1.3553,1.3261,1.3281,0.0,0.0,1.3085,1.2949,1.2786,1.263,1.2522,1.2508,1.24,1.2257,1.2094,1.206,1.1932,1.1497,1.1307,1.126,1.1402,0.0,1.1192,1.1185,1.1172,1.1056,1.0772,1.0724,1.0717,1.0717,1.0717,1.0717,1.0717,1.0717,1.0649,1.0493,1.0351,1.0276,1.0256,0.9985,0.9971,1.0263,1.0276,0.0,0.0,0.0,0.0,0.0,0.0,0.0,0.0,0.0,0.0,0.0,0.0,0.0,0.0,0.0,0.0,0.0,0.0,0.0,0.0,0.0,0.0,0.0,0.0,0.0,0.0,0.0,0.0,-0.6898,-0.4705,0.0,-0.0178,0.0,0.0,0.0,0.0,0.0,0.0,0.0,0.0,0.0,0.0,0.1415,0.4134,0.7043,0.8969,0.992,0.8868,0.846,0.8487,0.5523,0.6793,1.1235,1.2295,1.4036,1.6422,1.6117,1.5554,1.4862,1.4557,1.4319,1.4136,1.398,1.3987,1.4055,1.3953,1.3912,1.3851,1.3458,1.3207,1.303,1.2922,1.2996,1.3085,1.2929,1.2847,1.2779,1.2623,1.2542,1.2501,1.2501,1.2393,1.225,1.2094,1.1986,1.1809,1.1457,1.1348,1.1294,1.1253,1.1043,1.0914,1.1009,1.0941,1.0839,1.0738,1.0717,1.0717,1.0717,1.0717,1.0717,1.0717,1.0717,1.0616,1.0371,1.031,1.0195,0.9992,0.9876,0.9917,1.0127,1.0134,1.0249,0.0,0.0,0.0,0.0,0.0,0.0,0.0,0.0,0.0,0.0,0.0,0.0,0.0,0.0,0.0,0.0,0.0,0.0,0.0,0.0,0.0,0.0,0.0,0.0,0.0,-1.0496,-0.8145,-0.6001,-0.373,-0.1608,-0.0179,0.0,0.0,0.0,0.0,0.0,0.0,0.0,0.0,0.0,0.0,0.1447,0.4214,0.6105,0.7595,0.8487,0.8487,0.8064,0.7005,0.616,0.7628,1.1186,1.224,1.4002,1.6435,1.6293,1.5825,1.516,1.4808,1.4455,1.4136,1.4034,1.4061,1.4143,1.4089,1.4041,1.3912,1.341,1.3085,1.2868,1.282,1.284,1.2861,1.2759,1.2691,1.263,1.2528,1.2501,1.2501,1.2501,1.2393,1.225,1.2094,1.1938,1.1755,1.1518,1.1423,1.1328,1.1124,1.0928,1.0833,1.0934,1.0819,1.0738,1.0792,1.0751,1.0717,1.0717,1.0717,1.0717,1.0717,1.0717,1.0595,1.0297,1.0283,1.0168,0.991,0.9897,0.9971,1.0127,1.0175,1.0317,1.0568,0.0,0.0,0.0,0.0,0.0,0.0,0.0,0.0,0.0,0.0,0.0,0.0,0.0,0.0,0.0,0.0,0.0,0.0,0.0,0.0,0.0,0.0,0.0,-1.0387,-0.8153,-0.6004,-0.3932,-0.1448,0.0,0.0,0.0,0.0,0.0,0.0,0.0,0.0,0.0,0.0,0.0,0.0,0.1268,0.4251,0.4253,0.5523,0.8276,0.8276,0.7005,0.4253,0.7002,0.8443,0.858,1.1299,1.3877,1.6293,1.6144,1.59,1.5574,1.514,1.4706,1.4312,1.4306,1.4299,1.4278,1.4129,1.3973,1.379,1.3505,1.3308,1.3152,1.3017,1.2868,1.2752,1.2745,1.2637,1.2522,1.2508,1.2508,1.2508,1.2501,1.2393,1.225,1.2101,1.1945,1.1796,1.1653,1.1504,1.1314,1.1016,1.0955,1.0948,1.0948,1.0819,0.0,1.0921,1.0812,1.0724,1.0724,1.0724,1.0724,1.0724,1.0724,1.0602,1.0304,1.029,1.0215,1.0059,1.0053,1.0127,1.0283,1.0426,1.0575,1.0717,0.0,0.0,0.0,0.0,0.0,0.0,0.0,0.0,0.0,0.0,0.0,0.0,0.0,0.0,0.0,0.0,0.0,0.0,0.0,0.0,0.0,-1.3749,-1.2809,-1.0491,-0.8137,-0.5955,-0.375,-0.1448,0.0,0.0,0.0,0.0,0.0,0.0,0.0,0.0,0.0,0.0,0.0,0.0,0.1275,0.4253,0.4253,0.4676,0.5311,0.5311,0.4888,0.4251,0.5066,0.7558,1.1299,1.2058,1.3949,1.6144,1.6096,1.5716,1.514,1.5018,1.4828,1.459,1.438,1.4299,1.4292,1.4251,1.4061,1.3824,1.3743,1.3546,1.3329,1.3295,1.3254,1.3193,1.3085,1.3024,1.2942,1.2725,1.2664,1.2637,1.2528,1.2393,1.2277,1.2237,1.2108,1.1952,1.1803,1.1742,1.1613,1.1321,1.109,1.0948,1.0948,1.0819,1.0738,1.0778,1.0744,1.0765,1.0873,1.0887,1.0887,1.0887,1.0887,1.0758,1.0453,1.0432,1.0317,1.0059,1.0154,1.0283,1.0432,1.0582,1.0677,0.0,0.0,0.0,0.0,0.0,0.0,0.0,0.0,0.0,0.0,0.0,0.0,0.0,0.0,0.0,0.0,0.0,0.0,0.0,0.0,0.0,0.0,-1.3688,-1.2923,-1.0846,-0.9293,-0.7241,-0.3954,-0.2384,-0.1117,-0.0187,0.0,0.0,0.0,0.0,0.0,0.0,0.0,0.0,0.0,0.0,0.0852,0.2341,0.2545,0.254,0.2541,0.3582,0.3576,0.2526,0.4808,0.7689,1.0759,1.1686,1.3569,1.5967,1.5784,1.5452,1.5052,0.0,0.0,0.0,0.0,1.4299,1.4292,1.4224,1.4089,1.3919,1.379,1.3634,1.3485,1.3417,1.3356,1.3288,1.32,1.3132,1.303,1.2793,1.2732,1.2691,1.2535,1.244,1.2345,1.2223,1.2128,1.1999,1.1782,1.1742,0.0,1.1518,1.124,1.1036,1.1036,1.0853,1.0744,1.0806,1.0758,1.0751,1.0846,1.0853,1.0853,1.0853,1.0853,0.0,0.0,0.0,1.0412,1.0243,1.0317,0.0,0.0,0.0,1.0717,1.0717,1.0717,0.0,0.0,1.0717,1.0758,0.0,0.0,0.0,0.0,0.0,0.0,0.0,0.0,0.0,0.0,0.0,0.0,0.0,0.0,0.0,0.0,-1.3695,-1.3268,-1.1417,-1.1125,-0.9383,-0.4199,-0.3743,-0.2858,-0.0191,0.0,0.0,0.0,0.0,0.0,0.0,0.0,0.0,0.0,0.0,0.0,0.0,0.0,0.0,0.0,0.2498,0.2487,0.0623,0.5577,0.8007,0.8553,1.0881,1.3359,1.5771,1.535,1.5153,1.5092,1.497,1.4665,1.4299,1.4299,1.4299,1.4278,1.4143,0.0,0.0,1.3736,1.3634,1.358,1.3444,1.3308,1.32,1.32,1.3098,1.2949,1.2793,1.2745,1.2691,1.2535,1.2501,1.2427,1.2169,1.2115,1.2026,1.1728,1.1667,1.166,1.1626,1.1362,1.1165,1.1165,1.0907,1.0772,1.0907,1.0806,1.0724,1.0744,1.0744,0.0,1.0744,1.0744,1.0677,1.0527,1.05,1.05,1.0514,1.05,1.0561,1.0717,1.0717,1.0717,1.0717,1.0717,1.0717,1.0717,1.0717,1.0792,0.0,0.0,0.0,0.0,0.0,0.0,0.0,0.0,0.0,0.0,0.0,0.0,0.0,0.0,0.0,-1.3892,-1.3994,-1.3954,-1.3707,-1.4042,-1.1636,-0.4522,-0.3789,-0.2872,-0.0195,0.0,0.0,0.0,0.0,0.0,0.0,0.0,0.0,0.0,0.0,0.0,0.0,0.0,0.0,0.0,0.0625,0.0,0.3313,0.4312,0.7146,1.1392,1.1604,1.3183,1.5479,1.5269,1.497,1.4638,1.4611,1.4475,1.4299,1.4299,1.4299,1.4299,1.4265,1.4095,1.3878,1.3817,1.3641,1.3437,1.341,1.3376,0.0,1.3356,1.3247,1.3098,1.2956,1.2827,1.2691,1.2535,1.2501,1.2488,1.2427,1.242,1.2332,1.2033,1.1979,1.1898,1.166,1.1362,1.1165,1.1165,1.0907,1.0731,1.0758,1.0738,1.0765,1.0894,1.0907,1.0907,1.0907,1.0907,1.0839,1.0683,1.0561,1.0548,1.067,1.0555,1.0561,1.0717,1.0717,1.0717,1.0717,1.0717,1.0717,1.0717,1.0717,1.0738,0.0,0.0,0.0,0.0,0.0,0.0,0.0,0.0,0.0,0.0,0.0,-1.927,-1.7233,0.0,-1.2399,-1.3753,-1.3079,-1.2973,-1.4611,-1.5106,-1.2968,-0.6458,-0.5774,-0.4299,-0.0398,0.0,0.0,0.0,0.0,0.0,0.0,0.0,0.0,0.0,0.0,0.0,0.0,0.0,0.0,0.0,0.0,0.1438,0.4082,0.5304,0.8333,1.212,1.3291,1.4442,1.5377,1.5004,1.4672,1.4407,1.4407,1.436,1.4299,1.4299,1.4299,1.4299,1.4299,1.415,1.3946,1.3865,1.3695,1.3498,1.3424,1.3403,1.3383,1.3308,1.3288,1.3234,1.3017,1.2901,1.2807,1.2651,1.2556,1.2481,1.2413,1.2338,1.2216,1.1993,1.1891,1.1796,1.1647,1.1362,1.1165,1.1165,1.0907,1.0717,1.0717,1.0717,1.0751,1.0826,1.0833,1.0833,1.0833,1.0833,1.0799,1.0724,1.0649,1.0643,1.0717,1.0649,1.0643,1.0717,1.0717,1.0717,1.0717,1.0717,1.0758,1.0833,1.0833,1.0792,0.0,0.0,0.0,0.0,0.0,0.0,0.0,-3.2304,-3.0623,-2.4492,-2.1599,-1.957,-1.7495,-1.3885,-1.1823,-1.368,-1.2746,-1.2552,-1.4979,-1.5357,-1.3483,-0.8046,-0.7622,-0.5774,-0.0605,0.0,0.0,0.0,0.0,0.0,0.0,0.0,0.0,0.0,0.0,0.0,0.0,0.0,0.0,0.0,0.0,0.1425,0.4026,0.6687,0.95,1.2201,1.4479,1.5425,1.5235,1.4692,1.4401,1.4299,1.4299,1.4299,1.4299,1.4299,1.4299,1.4299,1.4299,1.4183,1.4007,1.3878,1.3722,1.3559,1.3437,1.3403,1.3376,1.3254,1.3288,1.3295,1.303,1.2935,1.2874,1.2718,1.2589,1.2467,1.2352,1.221,1.206,1.1904,1.1762,1.1653,1.1626,1.1389,1.1199,1.1165,1.0907,1.0717,1.0717,1.0717,1.0717,1.0717,1.0744,1.0765,1.0765,1.0765,1.0751,1.0724,1.0751,1.0751,1.0724,1.0717,1.0717,1.0717,1.0751,1.0765,1.0765,1.0792,1.0867,1.0989,1.0989,1.0907,-3.7198,-3.8116,-3.8499,-3.9949,-3.9218,-3.6619,0.0,-3.0024,-2.8264,-2.3599,-2.1103,-1.9106,-1.7289,-1.5373,-1.4137,-1.4618,-1.4718,-1.4792,-1.5357,-1.5513,-1.3691,-0.8471,-0.7715,-0.5774,-0.0605,0.0,0.0,0.0,0.0,0.0,0.0,0.0,0.0,0.0,0.0,0.0,0.0,0.0,0.0,0.0,0.0,0.1425,0.4026,0.6843,0.9412,1.188,1.414,1.4957,1.4787,1.4462,1.4312,1.4299,1.4299,1.4299,1.4299,1.4299,1.4299,1.4299,1.4299,1.4109,1.3865,1.3844,1.3654,1.3424,1.3403,1.3403,1.3397,1.3376,1.3288,1.3159,1.3003,1.2861,1.2718,1.2562,1.2515,1.2501,1.2481,1.2366,1.2223,1.2067,1.1911,1.1769,1.164,1.1477,1.1321,1.1185,1.0907,1.0717,1.0717,1.0717,1.0717,1.0717,1.0839,1.0921,1.0921,1.0921,1.0867,1.0731,1.0846,1.086,1.0724,1.0717,1.0717,1.0717,1.0853,1.0921,1.0921,1.105,1.1124,1.1138,1.1138,1.1063,-3.8328,-4.0525,-4.1173,-3.8883,-3.7883,-3.6112,-3.1098,-3.0129,-2.8862,-2.4492,-2.2159,-2.0327,-1.8288,-1.5097,-1.324,-1.4798,-1.4034,-1.3798,-1.5207,-1.4174,-1.1906,-0.8189,-0.6502,-0.4204,-0.041,0.0,0.0,0.0,0.0,0.0,0.0,0.0,0.0,0.0,0.0,0.0,0.0,0.0,0.0,0.0,0.0,0.1425,0.4026,0.526,0.7814,1.1768,1.4046,1.4882,1.4719,1.4421,1.4299,1.4299,1.4299,1.4299,1.4299,1.4299,1.4299,1.4299,1.4299,1.4095,1.3838,1.3838,1.3641,1.3403,1.3403,1.3403,1.3383,1.3295,1.3288,1.3268,1.3125,1.3037,1.2949,1.2807,1.2698,1.261,1.2522,1.2393,1.2271,1.221,1.1999,1.1809,1.1755,1.1545,1.1369,1.1307,1.1043,1.0887,1.0968,1.0907,1.0887,1.0968,1.0962,1.0948,1.0948,1.0948,1.088,1.0731,1.0867,1.088,1.0724,1.0717,1.0717,1.0717,1.0785,1.086,1.0948,1.1009,1.1124,1.1294,1.1294,1.1212,-4.1111,-4.2505,-4.2082,-3.8117,-3.6497,-3.4837,-3.102,-3.0217,-2.9104,-2.4673,-2.2789,-2.1154,-1.828,-1.5026,-1.3186,-1.506,-1.3829,-1.3147,-1.4304,-1.2802,-1.0477,-0.7137,-0.5067,-0.298,-0.0205,0.0,0.0,0.0,0.0,0.0,0.0,0.0,0.0,0.0,0.0,0.0,0.0,0.0,0.0,0.0,0.0,0.1018,0.282,0.3632,0.6757,1.161,1.3192,1.4074,1.4658,1.4407,1.4299,1.4299,1.4299,1.4299,1.4299,1.4299,1.4299,1.4299,1.4299,1.4095,1.3838,1.3838,1.3668,1.3458,1.341,1.3431,1.3431,1.3275,1.3315,1.3363,1.3214,1.3173,1.3125,1.2942,1.2813,1.2684,1.2535,1.2393,1.2291,1.2291,1.2074,1.1877,1.1837,1.1653,1.1497,1.1457,1.1233,1.109,1.1158,1.107,1.1063,1.1212,1.1097,1.1023,1.107,1.107,1.1002,1.0853,1.0948,1.0941,1.0785,1.0744,1.0717,1.0717,1.0799,1.0894,1.1009,1.109,1.1246,1.1457,1.1457,1.1369,-4.5602,-4.342,-4.0237,-3.9005,-3.5255,-3.1768,-3.1037,-2.9887,-2.79,-2.3518,-2.2697,-2.13,-1.6321,-1.5425,-1.5381,-1.5425,-1.5533,-1.4648,-1.2299,-1.1812,-0.982,-0.4823,-0.4022,-0.2891,-0.0199,0.0,0.0,0.0,0.0,0.0,0.0,0.0,0.0,0.0,0.0,0.0,0.0,0.0,0.0,0.0,0.0,0.0,0.0202,0.277,0.6586,1.1385,1.1151,1.2272,1.4509,1.436,1.4299,1.4299,1.4299,1.4299,1.4299,1.4299,1.4299,1.4299,1.4299,1.4095,1.3838,1.3838,1.3743,1.3593,1.3444,1.3505,1.3593,1.3437,1.3397,1.3363,1.3214,1.3173,1.3098,1.2807,1.2732,1.2684,1.2535,1.2393,1.2291,1.2291,1.2162,1.2006,1.1857,1.1823,1.1769,1.1633,1.1477,1.1328,1.1185,1.1158,1.1212,1.1369,1.1246,1.1219,1.1362,1.1375,1.1314,1.1158,1.1151,1.109,1.0948,1.0799,1.0717,1.0717,1.1002,1.1151,1.1158,1.1457,1.1606,1.1613,1.1613,1.1531,-4.4792,-4.3468,-4.1485,-3.7913,-3.4453,-3.193,-3.0848,-3.042,-2.8983,-2.3925,-2.293,-2.1506,-1.6133,-1.5187,-1.5181,-1.5126,-1.5323,-1.4514,-1.1989,-1.014,-0.7776,-0.4365,-0.2319,-0.0977,0.0,0.0,0.0,0.0,0.0,0.0,0.0,0.0,0.0,0.0,0.0,0.0,0.0,0.0,0.0,0.0,0.0,0.0,0.0,0.2733,0.481,0.645,0.9658,1.1346,1.2315,1.3636,1.4299,1.4299,1.4299,1.4299,1.4299,1.4299,1.4299,1.4285,1.4183,1.3953,1.3702,1.3702,1.36,1.3464,1.3417,1.3437,1.3464,1.3417,1.3403,1.339,1.3336,1.3322,1.3275,1.3071,1.3024,1.2956,1.2705,1.2617,1.2556,1.2447,1.2311,1.2162,1.2013,1.1898,1.1782,1.164,1.1572,1.1491,1.1335,1.1402,1.1484,1.1538,1.1402,1.1335,1.1389,1.1389,1.1328,1.1172,1.1165,1.1097,1.0955,1.09,1.0873,1.0873,1.1165,1.1314,1.1314,1.1518,1.1619,1.1619,1.1619,1.1538,-4.3148,-4.2004,-4.024,-3.4897,-3.2055,-3.0303,-2.973,-2.9733,-2.8686,-2.423,-2.3218,-2.1439,-1.591,-1.478,-1.4685,-1.4787,-1.4171,-1.2829,-1.0367,-0.7956,-0.5442,-0.2685,-0.0974,0.0,0.0,0.0,0.0,0.0,0.0,0.0,0.0,0.0,0.0,0.0,0.0,0.0,0.0,0.0,0.0,0.0,0.0,0.0,0.0,0.1744,0.2871,0.3948,0.7781,1.0049,1.0993,1.3261,1.4299,1.4299,1.4299,1.4299,1.4299,1.4299,1.4265,1.4204,1.4102,1.3946,1.3777,1.3722,1.3675,1.362,1.3512,1.3519,1.3539,1.3431,1.3403,1.3403,1.3403,1.3403,1.3363,1.3207,1.3173,1.3105,1.2868,1.2813,1.2766,1.261,1.2508,1.2386,1.2176,1.2013,1.1884,1.1789,1.1775,1.1721,1.1565,1.1592,1.164,1.1687,1.1558,1.147,1.147,1.147,1.143,1.1335,1.1274,1.1199,1.1111,1.1056,1.1023,1.1023,1.1321,1.1443,1.1389,1.1592,1.1667,1.1619,1.1619,1.1565,-4.1497,-3.954,-3.705,-3.0851,-2.8229,-2.7305,-2.7766,-2.772,-2.6908,-2.4051,-2.3127,-2.122,-1.5471,-1.4238,-1.4143,-1.4462,-1.2419,-1.0025,-0.767,-0.5373,-0.3089,-0.0397,0.0,0.0,0.0,0.0,0.0,0.0,0.0,0.0,0.0,0.0,0.0,0.0,0.0,0.0,0.0,0.0,0.0,0.0,0.0,0.0,0.0,0.0,0.1331,0.3509,0.5899,0.8375,1.0717,1.3046,1.4122,1.4299,1.4299,1.4299,1.4299,1.4299,1.4211,1.4082,1.4061,1.4061,1.4034,1.3878,1.3933,1.3994,1.3709,1.3715,1.377,1.3492,1.341,1.3417,1.3424,1.3417,1.3376,1.3227,1.3193,1.3152,1.3003,1.2969,1.2929,1.2773,1.2732,1.2637,1.2352,1.2176,1.2074,1.206,1.206,1.2006,1.1864,1.1728,1.1687,1.1816,1.1708,1.1626,1.1619,1.1619,1.1619,1.1619,1.1477,1.1389,1.1389,1.126,1.1185,1.1185,1.1497,1.1579,1.143,1.1714,1.1782,1.164,1.164,1.164,-4.1904,-4.0824,-3.88,-3.2073,-2.9495,-2.7798,-2.5452,-2.5002,-2.4049,-2.0797,-1.9642,-1.7983,-1.4555,-1.377,-1.3777,-1.4407,-1.246,-1.0156,-0.7902,-0.5628,-0.3034,-0.0403,0.0,0.0,0.0,0.0,0.0,0.0,0.0,0.0,0.0,0.0,0.0,0.0,0.0,0.0,0.0,0.0,0.0,0.0,0.0,0.0,0.0,0.0,0.0376,0.111,0.348,0.579,0.8219,1.054,1.2686,1.4299,1.4299,1.4299,1.4299,1.4299,1.4278,1.4211,1.398,1.3899,1.3878,1.3729,1.3709,1.3709,1.3519,1.3566,1.3668,1.3593,1.3573,1.3593,1.3702,1.3648,1.3559,1.3519,1.3512,1.3444,1.3173,1.3119,1.3078,1.2929,1.2807,1.2671,1.2481,1.2325,1.2196,1.2081,1.206,1.2047,1.2006,1.1972,1.1918,1.1837,1.1796,1.1735,1.1626,1.1619,1.1619,1.1619,1.1477,1.1389,1.1389,1.1463,1.1504,1.1504,1.1911,1.2047,1.1891,1.2081,1.2094,1.1952,1.1952,1.1884,-4.0842,-3.8414,-3.5435,-2.97,-2.6562,-2.4568,-2.264,-2.2019,-2.1264,-1.9007,-1.8078,-1.6676,-1.3985,-1.3261,-1.3329,-1.4014,-1.1094,-0.8508,-0.7678,-0.443,-0.1635,-0.0207,0.0,0.0,0.0,0.0,0.0,0.0,0.0,0.0,0.0,0.0,0.0,0.0,0.0,0.0,0.0,0.0,0.0,0.0,0.0,0.0,0.0,0.0,0.0,0.0185,0.256,0.4878,0.7324,0.9646,1.2148,1.4299,1.4299,1.4299,1.4299,1.4299,1.4299,1.4278,1.4102,1.4041,1.4007,1.379,1.381,1.3899,1.3743,1.3756,1.381,1.3743,1.3722,1.3743,1.3817,1.3783,1.3722,1.3722,1.3722,1.3654,1.3424,1.337,1.3308,1.3098,1.2935,1.2807,1.2718,1.2637,1.2556,1.2467,1.2454,1.2454,1.2454,1.2223,1.2054,1.2033,1.1972,1.187,1.1728,1.1714,1.1687,1.1619,1.1538,1.1518,1.1579,1.1667,1.1742,1.1809,1.2128,1.2216,1.206,1.2216,1.221,1.206,1.206,1.1979,-3.8874,-3.4802,-3.0478,-2.6027,-2.2701,-2.0225,-1.9782,-1.9021,-1.8476,-1.7767,-1.7229,-1.5991,-1.3507,-1.2834,-1.2949,-1.3607,-0.9487,-0.6442,-0.7191,-0.2973,0.0,0.0,0.0,0.0,0.0,0.0,0.0,0.0,0.0,0.0,0.0,0.0,0.0,0.0,0.0,0.0,0.0,0.0,0.0,0.0,0.0,0.0,0.0,0.0,0.0,0.0185,0.2194,0.4517,0.679,0.9286,1.161,1.3761,1.4122,1.4299,1.4299,1.4299,1.4299,1.4299,1.4278,1.4285,1.4251,1.3966,1.4055,1.4238,1.4089,1.4055,1.4041,1.3912,1.3871,1.3878,1.3899,1.3885,1.3871,1.3871,1.3871,1.3831,1.3688,1.3641,1.3553,1.3288,1.3119,1.3017,1.299,1.299,1.2983,1.2963,1.2963,1.2963,1.2963,1.2488,1.2196,1.2305,1.2182,1.2026,1.1877,1.1864,1.1803,1.1653,1.1667,1.1721,1.183,1.187,1.1965,1.2115,1.2271,1.2291,1.2182,1.2291,1.2277,1.2149,1.2128,1.204,-3.7312,-3.442,-3.161,-2.6439,-2.2859,-1.9725,-1.6824,-1.5718,-1.5006,-1.4315,-1.3817,-1.3373,-1.3109,-1.2834,-1.3051,-1.4027,-0.9864,-0.6728,-0.7592,-0.3228,0.0,0.0,0.0,0.0,0.0,0.0,0.0,0.0,0.0,0.0,0.0,0.0,0.0,0.0,0.0,0.0,0.0,0.0,0.0,0.0,0.0,0.0,0.0,0.0,0.0,0.0,0.0366,0.1991,0.4472,0.679,0.9108,1.1433,1.3578,1.4299,1.4299,1.4299,1.4299,1.4285,1.4156,1.4197,1.4272,1.4089,1.4068,1.4082,1.3926,1.3973,1.4068,1.4041,1.4034,1.4061,1.419,1.4122,1.4034,1.4034,1.4034,1.3987,1.3838,1.3709,1.3614,1.3559,1.3424,1.3288,1.3159,1.3139,1.3098,1.2976,1.2963,1.2963,1.2963,1.2759,1.2576,1.2474,1.2338,1.2189,1.2033,1.202,1.1959,1.1803,1.1918,1.1938,1.1837,1.2074,1.2277,1.242,1.2576,1.2705,1.2807,1.2705,1.2637,1.261,1.2481,1.2345,-3.5809,-3.1941,-2.8335,-2.4269,-2.0748,-1.7665,-1.5723,-1.4543,-1.3777,-1.318,-1.2813,-1.2637,-1.2712,-1.2725,-1.2922,-1.3512,-0.9685,-0.6686,-0.7134,-0.313,0.0,0.0,0.0,0.0,0.0,0.0,0.0,0.0,0.0,0.0,0.0,0.0,0.0,0.0,0.0,0.0,0.0,0.0,0.0,0.0,0.1373,0.1359,0.0,0.1314,0.1858,0.1847,0.0546,0.1981,0.5544,0.6611,0.8575,1.0895,1.3401,1.4299,1.4299,1.4299,1.4299,1.4292,1.4217,1.4238,1.4285,1.4211,1.419,1.4177,1.4102,1.4129,1.419,1.419,1.419,1.4204,1.4278,1.4245,1.419,1.419,1.4129,1.4055,1.398,1.3844,1.3736,1.3736,1.3682,1.3607,1.3532,1.3458,1.339,1.3322,1.3241,1.3193,1.3193,1.3057,1.2874,1.2644,1.2562,1.2427,1.2203,1.2182,1.2115,1.1959,1.202,1.2067,1.2067,1.2284,1.2467,1.2617,1.2773,1.2888,1.2963,1.2888,1.2807,1.2725,1.2657,1.2501,-3.4163,-2.9459,-2.5204,-2.21,-1.8663,-1.5879,-1.5099,-1.4204,-1.337,-1.28,-1.2583,-1.2501,-1.2501,-1.2603,-1.2752,-1.2969,-0.9307,-0.644,-0.666,-0.2839,0.0,0.0,0.0,0.0,0.0,0.0,0.0,0.0,0.0,0.0,0.0,0.0,0.0,0.0,0.0,0.0201,0.0803,0.0804,0.1196,0.1564,0.3131,0.2716,0.0953,0.2244,0.3147,0.3506,0.1632,0.323,0.7146,0.7681,0.893,1.0895,1.3401,1.4299,1.4299,1.4299,1.4299,1.4299,1.4299,1.4299,1.4299,1.4299,1.4299,1.4299,1.4299,1.4299,1.4299,1.4299,1.4299,1.4299,1.4299,1.4299,1.4299,1.4299,1.4211,1.4122,1.4122,1.4,1.3892,1.3892,1.3865,1.3838,1.3838,1.3749,1.3675,1.3675,1.3573,1.3485,1.3451,1.3342,1.3146,1.2813,1.2779,1.2657,1.2359,1.2366,1.2305,1.2121,1.2169,1.2244,1.2332,1.2508,1.2671,1.282,1.2942,1.3024,1.3057,1.299,1.2901,1.2779,1.2712,1.2556,-3.2053,-2.8091,-2.568,-2.2221,-1.8663,-1.5649,-1.4964,-1.396,-1.3085,-1.2617,-1.2515,-1.2501,-1.2501,-1.2515,-1.2657,-1.3085,-0.9293,-0.6382,-0.6838,-0.2839,0.0,0.0,0.0,0.0,0.0,0.0,0.0,0.0,0.0,0.0,0.0,0.0,0.0,0.0,0.0,0.118,0.3339,0.3566,0.4727,0.6948,0.4872,0.3876,0.3423,0.132,0.1493,0.3506,0.3285,0.4693,0.7328,0.9464,1.054,1.0895,1.3401,1.4299,1.4299,1.4299,1.4299,1.4299,1.4299,1.4299,1.4299,1.4299,1.4299,1.4299,1.4299,1.4299,1.4299,1.4299,1.4299,1.4299,1.4299,1.4299,1.4299,1.4299,1.4292,1.4278,1.4278,1.4156,1.4048,1.4048,1.3939,1.3838,1.3838,1.3831,1.3824,1.3824,1.381,1.3756,1.3627,1.3593,1.3424,1.2983,1.2942,1.2813,1.2508,1.261,1.2569,1.2284,1.2522,1.261,1.2488,1.2766,1.2983,1.3125,1.3146,1.322,1.3363,1.3091,1.2956,1.2935,1.2651,1.2508,-2.9747,-2.6765,-2.5033,-2.0198,-1.7305,-1.544,-1.4758,-1.381,-1.3027,-1.2562,-1.2501,-1.2501,-1.2501,-1.2501,-1.2089,-1.1142,-0.8324,-0.5903,-0.4817,-0.1923,0.0,0.0,0.0,0.0,0.0,0.0,0.0,0.0,0.0,0.0,0.0,0.0,0.0,0.0,0.1577,0.2742,0.372,0.5303,0.6644,0.7516,0.658,0.5375,0.3767,0.2802,0.3511,0.5662,0.416,0.5744,0.9286,1.0357,1.0717,1.0895,1.3401,1.4299,1.4299,1.4299,1.4299,1.4299,1.4299,1.4299,1.4299,1.4299,1.4299,1.4299,1.4299,1.4299,1.4299,1.4299,1.4299,1.4299,1.4299,1.4299,1.4299,1.4299,1.4299,1.4299,1.4299,1.4251,1.4211,1.4211,1.4156,1.4116,1.4116,1.4041,1.398,1.398,1.3899,1.379,1.3648,1.3627,1.3492,1.3125,1.301,1.2874,1.2657,1.2698,1.2718,1.2698,1.2807,1.284,1.2779,1.2976,1.3112,1.3173,1.3261,1.3342,1.3403,1.3193,1.3044,1.2956,1.2739,1.2637,-2.7807,-2.5661,-2.4457,-1.8837,-1.6333,-1.5261,-1.4706,-1.3693,-1.2786,-1.2549,-1.2501,-1.2501,-1.2501,-1.2501,-1.203,0.0,-0.8008,-0.5748,-0.4256,-0.1663,0.0,0.0,0.0,0.0,0.0,0.0,0.0,0.0,0.0,0.0,0.0,0.0,0.0,0.0,0.2539,0.4075,0.4851,0.7579,0.8714,0.863,0.8056,0.6277,0.3745,0.296,0.421,0.7074,0.5391,0.7324,1.1788,1.1788,1.1788,1.1971,1.3584,1.4299,1.4299,1.4299,1.4299,1.4299,1.4299,1.4299,1.4299,1.4299,1.4299,1.4299,1.4299,1.4299,1.4299,1.4299,1.4299,1.4299,1.4299,1.4299,1.4299,1.4299,1.4299,1.4299,1.4299,1.4299,1.4299,1.4299,1.4299,1.4299,1.4299,1.4211,1.4136,1.4136,1.4048,1.3926,1.3777,1.3722,1.3573,1.3275,1.3112,1.2963,1.2813,1.2834,1.2888,1.2956,1.3003,1.3024,1.3024,1.3207,1.3288,1.3241,1.339,1.3444,1.3403,1.3207,1.3078,1.3017,1.282,1.2752,-2.677,-2.4979,-2.4471,-1.8723,-1.6282,-1.5046,-1.4839,-1.3631,-1.2708,-1.2562,-1.2501,-1.2501,-1.2501,-1.2501,-1.2501,-1.2501,-0.9061,-0.6332,-0.6227,-0.2694,0.0,0.0,0.0,0.0,0.0,0.0,0.0,0.0,0.0,0.0,0.0,0.0,0.0,0.0,0.2488,0.4943,0.7595,1.0153,1.1492,1.139,0.8924,0.6424,0.3743,0.1103,0.2548,0.7074,0.7001,0.9824,1.4299,1.4299,1.4299,1.4299,1.4299,1.4299,1.4299,1.4299,1.4299,1.4299,1.4299,1.4299,1.4299,1.4299,1.4299,1.4299,1.4299,1.4299,1.4299,1.4299,1.4299,1.4299,1.4299,1.4299,1.4299,1.4299,1.4299,1.4299,1.4299,1.4299,1.4299,1.4299,1.4299,1.4299,1.4299,1.4299,1.4299,1.4299,1.4299,1.4238,1.4089,1.3933,1.3729,1.3431,1.3261,1.3112,1.2969,1.3085,1.3112,1.2969,1.3091,1.3173,1.3173,1.3464,1.3553,1.3403,1.3546,1.3553,1.3403,1.3105,1.3037,1.3166,1.2868,1.2813,-2.5373,-2.3222,-2.241,-1.7181,-1.526,-1.4415,-1.4114,-1.3305,-1.2623,-1.2522,-1.2501,-1.2501,-1.2501,-1.2501,-1.207,-1.0751,-0.9336,-0.7603,-0.477,-0.3131,-0.1715,-0.0179,0.0,0.0,0.0,0.0,0.0,0.0,0.0,0.0,0.0,0.0,0.0769,0.251,0.5156,0.7595,1.0248,1.275,1.3134,1.1385,0.886,0.636,0.3709,0.11,0.1633,0.4852,0.6445,0.893,1.1965,1.3584,1.4299,1.4299,1.4299,1.4299,1.4299,1.4299,1.4299,1.4299,1.4299,1.4299,1.4299,1.4299,1.4299,1.4299,1.4299,1.4299,1.4299,1.4299,1.4299,1.4299,1.4299,1.4299,1.4299,1.4299,1.4299,1.4299,1.4299,1.4299,1.4299,1.4299,1.4299,1.4299,1.4299,1.4299,1.4299,1.4299,1.4299,1.4245,1.4089,1.4027,1.3885,1.3587,1.36,1.3485,1.3132,1.3146,1.32,1.3261,1.3302,1.3329,1.3329,1.3519,1.3559,1.3403,1.3553,1.3553,1.3403,1.32,1.3078,1.303,1.303,1.3057,-2.3666,-2.1981,-2.1201,-1.6242,-1.4474,-1.3939,-1.3702,-1.3173,-1.2656,-1.2501,-1.2501,-1.2501,-1.2501,-1.2501,-1.2063,-1.0896,-0.9998,-0.8414,-0.5044,-0.376,-0.2394,-0.018,0.0,0.0,0.0,0.0,0.0,0.0,0.0,0.0,0.0,0.0957,0.2683,0.5179,0.6859,0.8731,1.1385,1.3852,1.3445,1.0,0.8408,0.5739,0.2388,0.0728,0.1263,0.3759,0.6079,0.8397,0.0,1.3224,1.4299,1.4299,1.4299,1.4299,1.4299,1.4299,1.4299,1.4299,1.4299,1.4299,1.4299,1.4299,1.4299,1.4299,1.4299,1.4299,1.4299,1.4299,1.4299,1.4299,1.4299,1.4299,1.4299,1.4299,1.4299,1.4299,1.4299,1.4299,1.4299,1.4299,1.4299,1.4299,1.4299,1.4299,1.4299,1.4299,1.4299,1.4265,1.417,1.4109,1.4,1.3817,1.3824,1.3729,1.3451,1.3376,1.3383,1.3485,1.3485,1.3512,1.3566,1.3715,1.3722,1.3566,1.3661,1.3634,1.3485,1.3336,1.3214,1.3132,1.3275,1.3342,0.0,-2.1039,-2.0344,-1.5666,-1.411,-1.3547,-1.3493,-1.3016,0.0,-1.2501,-1.2501,-1.2501,-1.2501,-1.2501,-1.2501,-1.2501,-1.089,-0.8907,-0.6684,-0.4281,-0.224,-0.0182,0.0,0.0,0.0,0.0,0.0,0.0,0.0,0.0,0.0,0.2497,0.4987,0.7595,0.7785,0.9109,1.1579,1.4034,1.2636,0.7666,0.7582,0.4949,0.0,0.0,0.1256,0.3401,0.6076,0.8397,1.0717,1.3224,1.4299,1.4299,1.4299,1.4299,1.4299,1.4299,1.4299,1.4299,1.4299,1.4299,1.4299,1.4299,1.4299,1.4299,1.4299,1.4299,1.4299,1.4299,1.4299,1.4299,1.4299,1.4299,1.4299,1.4299,1.4299,1.4299,1.4299,1.4299,1.4299,1.4299,1.4299,1.4299,1.4299,1.4299,1.4299,1.4299,1.4299,1.4299,1.4299,1.4177,1.4082,1.4075,1.3953,1.3865,1.3844,1.3722,1.3648,1.3648,1.3648,1.3702,1.3838,1.3987,1.4,1.3844,1.3838,1.3777,1.3641,1.3498,1.3431,1.3437,1.3566,1.3627,0.0,0.0,-1.6791,-1.4079,-1.3151,-1.2896,0.0,-1.2675,-1.2501,-1.2501,-1.2501,-1.2501,-1.2501,-1.2501,-1.2501,-1.2663,-1.2218,-1.0705,-0.699,-0.3215,-0.0541,0.0,0.0,0.0,0.0,0.0,0.0,0.0,0.0,0.0,0.0,0.248,0.4952,0.7595,0.9492,1.1763,1.4234,1.4886,1.2557,0.7666,0.7534,0.4917,0.0,0.0,0.0359,0.1076,0.5365,0.7502,0.8219,1.2509,1.4299,1.4299,1.4299,1.4299,1.4299,1.4299,1.4299,1.4299,1.4299,1.4299,1.4299,1.4299,1.4299,1.4299,1.4299,1.4299,1.4299,1.4299,1.4299,1.4299,1.4299,1.4299,1.4299,1.4299,1.4299,1.4299,1.4299,1.4299,1.4299,1.4299,1.4299,1.4299,1.4299,1.4299,1.4299,1.4299,1.4299,1.4299,1.4299,1.4272,1.4204,1.4082,1.4143,1.4095,1.3858,1.381,1.379,1.379,1.379,1.3804,1.3838,1.3987,1.4,1.3844,1.3838,1.3824,1.379,1.3756,1.3736,1.3736,1.3661,1.3627,0.0,-1.7641,-1.5245,-1.2225,-1.1268,-1.1137,-1.1118,-1.1203,-1.1411,-1.2347,-1.2501,-1.2501,-1.2501,-1.2436,-1.2313,-1.2491,-1.1676,-0.9506,-0.5426,-0.2083,0.0,0.0,0.0,0.0,0.0,0.0,0.0,0.0,0.0,0.0575,0.1716,0.4147,0.6571,0.9236,1.0506,1.2004,1.3379,1.3313,1.0796,0.5907,0.5845,0.3809,0.0,0.0,0.0,0.0179,0.5008,0.7146,0.7502,1.2325,1.4299,1.4299,1.4299,1.4299,1.4299,1.4299,1.4299,1.4299,1.4299,1.4299,1.4299,1.4299,1.4299,1.4299,1.4299,1.4299,1.4299,1.4299,1.4299,1.4299,1.4299,1.4299,1.4299,1.4299,1.4299,1.4299,1.4299,1.4299,1.4299,1.4299,1.4299,1.4299,1.4299,1.4299,1.4299,1.4299,1.4299,1.4299,1.4299,1.4299,1.4272,1.4183,1.4251,1.4231,1.4068,1.4048,1.4021,1.3953,1.3946,1.398,1.4048,1.4129,1.4102,1.3946,1.3946,1.3912,1.3838,1.3838,1.3878,1.3946,1.3865,1.3831,-1.9483,-1.6938,-1.4035,-1.0487,-0.9311,-0.8934,-0.892,-0.9226,-0.9842,-1.1714,-1.234,-1.2474,-1.2539,-1.2338,-1.2017,-1.1894,-0.9748,-0.6911,-0.3625,-0.1248,0.0,0.0,0.0,0.0,0.0,0.0,0.0,0.0,0.0,0.1142,0.3613,0.6148,0.8512,1.1212,1.1289,1.1268,1.1351,1.0981,0.8492,0.382,0.3812,0.253,0.0,0.0,0.0,0.0179,0.5008,0.7146,0.7502,1.2325,1.4299,1.4299,1.4299,1.4299,1.4299,1.4299,1.4299,1.4299,1.4299,1.4299,1.4299,1.4299,1.4299,1.4299,1.4299,1.4299,1.4299,1.4299,1.4299,1.4299,1.4299,1.4299,1.4299,1.4299,1.4299,1.4299,1.4299,1.4299,1.4299,1.4299,1.4299,1.4299,1.4299,1.4299,1.4299,1.4299,1.4299,1.4299,1.4299,1.4299,1.4299,1.4299,1.4299,1.4299,1.4299,1.4299,1.4245,1.4116,1.4109,1.4163,1.4292,1.4299,1.4238,1.4109,1.4109,1.4041,1.3912,1.3912,1.398,1.4109,1.4082,1.4075,-1.7572,-1.3916,-1.0572,-0.9746,-0.8152,-0.6817,-0.6773,-0.8136,-0.9496,-0.981,-1.1231,-1.2505,-1.2304,-1.24,-1.1766,-0.9965,-0.6435,-0.3709,-0.3224,-0.1288,0.0,0.0,0.0,0.0,0.0,0.0,0.0,0.0,0.0,0.1134,0.3611,0.6148,0.8512,1.1212,1.1289,1.119,1.0926,0.8932,0.6559,0.3818,0.3604,0.2333,0.0,0.0,0.0,0.0179,0.5008,0.7146,0.7502,1.2325,1.4299,1.4299,1.4299,1.4299,1.4299,1.4299,1.4299,1.4299,1.4299,1.4299,1.4299,1.4299,1.4299,1.4299,1.4299,1.4299,1.4299,1.4299,1.4299,1.4299,1.4299,1.4299,1.4299,1.4299,1.4299,1.4299,1.4299,1.4299,1.4299,1.4299,1.4299,1.4299,1.4299,1.4299,1.4299,1.4299,1.4299,1.4299,1.4299,1.4299,1.4299,1.4299,1.4299,1.4299,1.4299,1.4299,1.4292,1.4265,1.4265,1.4278,1.4299,1.4299,1.4292,1.4265,1.4265,1.4251,1.4231,1.4231,1.4245,1.4265,1.4129,1.4075,-1.7138,-1.252,-0.8191,-0.8069,-0.6321,-0.4643,-0.4569,-0.5327,-0.64,-0.746,-0.9433,-1.0855,-1.0781,-1.0668,-0.9661,-0.6261,-0.4163,-0.2603,-0.163,-0.0554,0.0,0.0,0.0,0.0,0.0,0.0,0.0,0.0,0.1131,0.2981,0.5605,0.7878,1.0373,1.2871,1.1656,1.0845,1.0789,0.7201,0.4866,0.3605,0.2335,0.1076,0.0,0.0,0.0,0.0179,0.5008,0.7146,0.7502,1.2325,1.4299,1.4299,1.4299,1.4299,1.4299,1.4299,1.4299,1.4299,1.4299,1.4299,1.4299,1.4299,1.4299,1.4299,1.4299,1.4299,1.4299,1.4299,1.4299,1.4299,1.4299,1.4299,1.4299,1.4299,1.4299,1.4299,1.4299,1.436,1.4394,1.4312,1.436,1.4387,1.4312,1.4299,1.4299,1.4299,1.4299,1.4299,1.4299,1.4299,1.4299,1.4299,1.4299,1.4299,1.4299,1.4299,1.4299,1.4299,1.4299,1.4299,1.4299,1.4299,1.4299,1.4299,1.4299,1.4299,1.4299,1.4299,1.4299,1.4299,1.4231,1.4197,-1.6502,-1.1689,-0.7353,-0.738,-0.4856,-0.2425,-0.2385,-0.2694,-0.3632,-0.5148,-0.7338,-0.8723,-0.8613,-0.8194,-0.6585,-0.3311,-0.2401,-0.1777,-0.0184,0.0,0.0,0.0,0.0,0.0,0.0,0.0,0.0,0.0,0.2233,0.4786,0.7184,0.9572,1.1844,1.4502,1.2028,1.0895,1.161,0.6258,0.358,0.358,0.1076,0.0,0.0,0.0,0.0,0.0179,0.5008,0.7146,0.7502,1.2325,1.4299,1.4299,1.4299,1.4299,1.4299,1.4299,1.4299,1.4299,1.4299,1.4299,1.4299,1.4299,1.4299,1.4299,1.4299,1.4299,1.4299,1.4299,1.4299,1.4299,1.4299,1.4299,1.4299,1.4299,1.4299,1.4299,1.4299,1.4387,1.4428,1.4319,1.4387,1.4428,1.4319,1.4299,1.4299,1.4299,1.4299,1.4299,1.4299,1.4299,1.4312,1.4346,1.4319,1.4299,1.4299,1.4299,1.4299,1.4299,1.4299,1.4299,1.4299,1.4299,1.4299,1.4299,1.4299,1.4299,1.4299,1.4299,1.4299,1.4299,1.4299,1.4299,-1.46,-1.1528,-0.9607,-0.954,-0.4796,-0.0163,-0.0164,-0.1795,-0.3068,-0.3313,-0.5053,-0.6463,-0.6302,-0.4737,-0.3237,-0.3044,-0.1414,-0.0184,0.0,0.0,0.0,0.0,0.0,0.0,0.0,0.0,0.0,0.0,0.22,0.4748,0.718,0.9572,1.1844,1.4502,1.2028,1.1788,1.3938,0.7149,0.358,0.358,0.1076,0.0,0.0,0.0,0.0,0.0179,0.5008,0.7146,0.7502,1.2325,1.4299,1.4299,1.4299,1.4299,1.4299,1.4299,1.4299,1.4299,1.4299,1.4299,1.4299,1.4299,1.4299,1.4299,1.4299,1.4299,1.4299,1.4299,1.4299,1.4299,1.4299,1.4299,1.4299,1.4299,1.4299,1.4299,1.4299,1.4306,1.4312,1.4299,1.4306,1.4312,1.4299,1.4299,1.4299,1.4299,1.4299,1.4299,1.4299,1.4299,1.4353,1.4482,1.438,1.4299,1.4299,1.4299,1.4299,1.4299,1.4299,1.4299,1.4299,1.4299,1.4299,1.4299,1.4299,1.4299,1.4299,1.4299,1.4299,1.4299,1.4299,1.4299,-1.4426,-1.151,-0.9827,-0.9631,-0.6734,-0.3529,-0.2402,-0.2613,-0.2676,-0.1363,-0.2948,-0.4509,-0.4327,-0.3649,-0.2691,-0.1389,-0.0543,0.0,0.0,0.0,0.0,0.0,0.0,0.0,0.0,0.0,0.0559,0.2199,0.4371,0.689,0.9397,1.166,1.3426,1.438,1.3426,1.3401,1.4299,0.8575,0.5722,0.5722,0.1792,0.0718,0.215,0.0718,0.0897,0.2509,0.5722,0.7146,0.7502,1.2325,1.4299,1.4299,1.4299,1.4299,1.4299,1.4299,1.4299,1.4299,1.4299,1.4299,1.4299,1.4299,1.4299,1.4299,1.4299,1.4299,1.4299,1.4299,1.4299,1.4299,1.4299,1.4299,1.4299,1.4299,1.4299,1.4299,1.4299,1.4367,1.4407,1.4319,1.4373,1.4434,1.4434,1.436,1.4333,1.4421,1.4353,1.4299,1.4299,1.4299,1.4319,1.4373,1.4333,1.4299,1.4299,1.4299,1.4299,1.4299,1.4299,1.4299,1.4299,1.4299,1.4299,1.4299,1.4299,1.4299,1.4299,1.4299,1.4299,1.4299,1.4299,1.4299,-1.4179,-1.1814,-1.034,-0.9708,-0.8319,-0.6623,-0.3916,-0.3254,-0.274,-0.1449,-0.1813,-0.2304,-0.2374,-0.2161,-0.1669,-0.0174,0.0,0.0,0.0,0.0,0.0,0.0,0.0,0.0,0.0,0.0,0.0917,0.3441,0.5782,0.8102,1.054,1.304,1.4299,1.4299,1.4299,1.4299,1.4299,0.9468,0.7506,0.8219,0.3401,0.1971,0.358,0.1076,0.1255,0.3759,0.6079,0.7146,0.7502,1.2325,1.4299,1.4299,1.4299,1.4299,1.4299,1.4299,1.4299,1.4299,1.4299,1.4299,1.4299,1.4299,1.4299,1.4299,1.4299,1.4299,1.4299,1.4299,1.4299,1.4299,1.4299,1.4299,1.4312,1.4353,1.4333,1.4299,1.4299,1.4373,1.4414,1.4319,1.4414,1.4509,1.4509,1.4468,1.4475,1.457,1.4502,1.4421,1.4373,1.4407,1.4441,1.4441,1.4482,1.4496,1.4441,1.4441,1.4421,1.4373,1.4367,1.4346,1.4299,1.4299,1.4299,1.4299,1.4299,1.4299,1.4299,1.4299,1.4299,1.4299,1.4299,1.4299,-1.3618,-1.2326,-1.1708,-0.9703,-0.9211,-0.8393,-0.4335,-0.3237,-0.3109,-0.3382,-0.1664,0.0,0.0,0.0,0.0,0.0,0.0,0.0,0.0,0.0,0.0,0.0,0.0,0.0,0.0,0.0,0.1089,0.3404,0.5722,0.8219,1.054,1.304,1.4299,1.4299,1.4299,1.4299,1.4299,0.9468,0.8397,1.0717,0.5901,0.358,0.358,0.1256,0.1434,0.3759,0.6076,0.7146,0.7506,1.2325,1.4299,1.4299,1.4299,1.4299,1.4299,1.4299,1.4299,1.4299,1.4299,1.4299,1.4299,1.4299,1.4299,1.4299,1.4299,1.4299,1.4299,1.4299,1.4299,1.4299,1.4306,1.4306,1.434,1.4475,1.4401,1.4299,1.4299,1.4299,1.4299,1.4299,1.4414,1.4516,1.4516,1.4638,1.474,1.474,1.474,1.4685,1.4529,1.4645,1.474,1.474,1.4875,1.4903,1.4753,1.474,1.4672,1.4523,1.4516,1.4448,1.4306,1.4299,1.4299,1.4299,1.4299,1.4299,1.4299,1.4299,1.4299,1.4299,1.4299,1.4299,-1.3444,-1.1538,-1.0284,-0.9503,-0.8265,-0.7011,-0.5897,-0.4395,-0.2639,-0.1305,-0.0555,0.0,0.0,0.0,0.0,0.0,0.0,0.0,0.0,0.0,0.0,0.0,0.0,0.0,0.0,0.0,0.1619,0.5722,0.679,0.893,1.304,1.3938,1.4299,1.4299,1.4299,1.4299,1.4299,1.125,1.0002,1.0717,0.7502,0.6968,0.8575,0.6079,0.6258,0.8575,0.9286,0.9646,0.9824,1.304,1.4299,1.4299,1.4299,1.4299,1.4299,1.4299,1.4299,1.4299,1.4299,1.4299,1.4299,1.4299,1.4299,1.4299,1.4299,1.4299,1.4299,1.4299,1.4373,1.4475,1.4584,1.4611,1.457,1.4401,1.4333,1.4299,1.4299,1.4299,1.4333,1.4428,1.4482,1.4577,1.4801,1.478,1.478,1.4889,1.4808,1.4726,1.4679,1.4713,1.4699,1.459,1.4618,1.4631,1.4584,1.4577,1.4604,1.4665,1.4672,1.4563,1.4312,1.4299,1.4299,1.4299,1.4299,1.4299,1.4299,1.4299,1.4299,1.4299,1.4299,1.4299,-1.2964,-1.0844,-0.9109,-0.8157,-0.6548,-0.4873,-0.4245,-0.3734,-0.2657,-0.0373,0.0,0.0,0.0,0.0,0.0,0.0,0.0,0.0,0.0,0.0,0.0,0.0,0.0,0.0,0.0,0.0,0.1968,0.6751,0.7129,0.9268,1.4035,1.4265,1.4272,1.4211,1.4211,1.4183,1.4116,1.1817,1.0936,1.1817,0.9522,0.9171,1.0585,0.8187,0.8397,1.0717,1.0717,1.125,1.2325,1.3761,1.4299,1.4299,1.4299,1.4299,1.4299,1.4299,1.4299,1.4299,1.4299,1.4299,1.4299,1.4299,1.4299,1.4299,1.4299,1.4299,1.4299,1.4299,1.4401,1.4529,1.4624,1.4692,1.4713,1.4597,1.4475,1.4387,1.4387,1.4387,1.4407,1.4496,1.4611,1.4753,1.4936,1.4943,1.495,1.5038,1.4977,1.4936,1.4997,1.4957,1.4903,1.4875,1.4814,1.478,1.478,1.478,1.4794,1.4828,1.4835,1.4726,1.4482,1.4475,1.4448,1.4387,1.4441,1.4441,1.4387,1.4387,1.4353,1.4299,1.436,1.4387,-1.2246,-1.0092,-0.8097,-0.6285,-0.4245,-0.2253,-0.0352,-0.1743,-0.2601,-0.0374,0.0,0.0,0.0,0.0,0.0,0.0,0.0,0.0,0.0,0.0,0.0,0.0,0.0,0.0,0.0,0.0,0.1962,0.6504,0.7095,0.9052,1.3881,1.4183,1.4197,1.4055,1.4048,1.398,1.3844,1.1755,1.1755,1.3838,1.1412,1.0376,1.0381,0.8648,0.8905,1.1041,1.1051,1.2308,1.4278,1.4292,1.4299,1.4299,1.4299,1.4299,1.4299,1.4299,1.4299,1.4299,1.4299,1.4299,1.4299,1.4299,1.4299,1.4299,1.4299,1.4299,1.4299,1.4299,1.4414,1.4529,1.4529,1.4658,1.4814,1.4943,1.4746,1.4529,1.4529,1.4529,1.4536,1.455,1.478,1.4977,1.4991,1.5099,1.5181,1.5181,1.5181,1.5235,1.5371,1.5269,1.5228,1.5357,1.5248,1.516,1.516,1.5174,1.5126,1.4997,1.5004,1.4936,1.4767,1.4746,1.4672,1.4536,1.4672,1.4672,1.4529,1.4529,1.4468,1.4346,1.4475,1.4529,-1.2431,-0.9532,-0.653,-0.6285,-0.3483,-0.0525,-0.0179,-0.0357,-0.0712,-0.0181,0.0,0.0,0.0,0.0,0.0,0.0,0.0,0.0,0.0,0.0,0.0,0.0,0.0,0.0,0.0,0.0,0.1956,0.6608,0.6842,0.8952,1.3548,1.3919,1.3926,1.3892,1.3892,1.3871,1.3838,1.3317,1.3317,1.3838,1.1584,1.0548,1.0548,1.1819,1.2712,1.307,1.3359,1.3591,1.4129,1.4251,1.4299,1.4299,1.4299,1.4299,1.4299,1.4299,1.4299,1.4299,1.4299,1.4299,1.4299,1.4299,1.4299,1.4299,1.4299,1.4299,1.4299,1.4299,1.4489,1.4692,1.4692,1.4889,1.5065,1.4991,1.4828,1.4692,1.4692,1.4692,1.4726,1.4848,1.4923,1.5004,1.512,1.516,1.5181,1.5181,1.5181,1.5194,1.5228,1.5201,1.5153,1.5072,1.5038,1.5018,1.5018,1.512,1.5167,1.514,1.5248,1.5201,1.493,1.4801,1.4726,1.4692,1.4719,1.4726,1.4692,1.4692,1.4672,1.4645,1.4679,1.4692,-1.2201,-0.9148,-0.5498,-0.3813,-0.1564,0.0,0.0,0.0,0.0,0.0,0.0,0.0,0.0,0.0,0.0,0.0,0.0,0.0,0.0,0.0,0.0,0.0,0.0,0.0,0.0,0.0,0.1929,0.6534,0.6938,0.8852,1.3402,1.3804,1.381,1.3743,1.3743,1.3702,1.3634,1.3627,1.3627,1.3627,1.2433,1.192,1.1926,1.2051,1.2797,1.3844,1.3926,1.4,1.4082,1.4156,1.4231,1.4299,1.4299,1.4299,1.4299,1.4299,1.4299,1.4299,1.4299,1.4299,1.4299,1.4299,1.4299,1.4299,1.4299,1.4299,1.4299,1.4299,1.4516,1.4719,1.4652,1.4855,1.5045,1.4896,1.4801,1.474,1.474,1.474,1.4787,1.4943,1.5025,1.5099,1.5167,1.5181,1.5181,1.5181,1.5248,1.5289,1.5289,1.5289,1.5262,1.5187,1.5181,1.5153,1.5079,1.5208,1.5262,1.5187,1.5255,1.5235,1.5079,1.4997,1.4923,1.4848,1.4916,1.4916,1.4848,1.4848,1.4814,1.474,1.4814,1.4848,-1.2058,-0.8975,-0.515,-0.1055,0.0,0.0,0.0,0.0,0.0,0.0,0.0,0.0,0.0,0.0,0.0,0.0,0.0,0.0,0.0,0.0,0.0,0.0,0.0,0.0,0.0,0.0,0.19,0.6293,0.685,0.874,1.3257,1.3654,1.3648,1.3553,1.3553,1.3478,1.3329,1.3376,1.339,1.3363,1.3052,1.288,1.2701,1.108,1.1692,1.377,1.379,1.3878,1.4,1.4048,1.4143,1.4265,1.4292,1.4299,1.4299,1.4299,1.4299,1.4299,1.4299,1.4299,1.4299,1.4299,1.4299,1.4299,1.4299,1.4299,1.4306,1.4333,1.4516,1.4685,1.4611,1.476,1.4896,1.4767,1.474,1.4746,1.4774,1.4801,1.4855,1.4984,1.5099,1.5194,1.5215,1.5221,1.5228,1.5255,1.5371,1.5452,1.5452,1.5452,1.5452,1.5452,1.5452,1.5398,1.5269,1.5398,1.5425,1.5269,1.5282,1.5289,1.5262,1.5262,1.5194,1.5052,1.514,1.5126,1.5011,1.5011,1.4943,1.4821,1.495,1.5011,-1.2406,-0.9477,-0.5237,-0.1064,0.0,0.0,0.0,0.0,0.0,0.0,0.0,0.0,0.0,0.0,0.0,0.0,0.0,0.0,0.0,0.0,0.0,0.0,0.0,0.0,0.0,0.0,0.1893,0.6392,0.6556,0.8571,1.3264,1.3207,1.3125,1.3227,1.3234,1.3166,1.3024,1.3275,1.3336,1.32,1.1334,1.0325,1.023,1.0195,1.1265,1.3464,1.36,1.3668,1.3709,1.3966,1.4082,1.4116,1.4251,1.4299,1.4299,1.4299,1.4299,1.4299,1.4299,1.4299,1.4299,1.4299,1.4299,1.4299,1.4299,1.4299,1.4326,1.4448,1.4509,1.4597,1.4848,1.4841,1.4767,1.4746,1.474,1.478,1.4909,1.5038,1.5126,1.5153,1.5167,1.5221,1.5357,1.5377,1.5425,1.556,1.5594,1.5608,1.5608,1.5608,1.5608,1.5608,1.5608,1.5601,1.5581,1.571,1.573,1.5588,1.5696,1.571,1.5581,1.5581,1.5506,1.5357,1.5242,1.5174,1.5153,1.5153,1.5147,1.5126,1.5147,1.5153,-0.965,-0.7636,-0.5085,-0.1023,0.0,0.0,0.0,0.0,0.0,0.0,0.0,0.0,0.0,0.0,0.0,0.0,0.0,0.0,0.0,0.0,0.0,0.0,0.0,0.0,0.0,0.0,0.1846,0.6301,0.6595,0.8565,1.3104,1.3078,1.3024,1.3166,1.3098,1.3024,1.2963,1.3091,1.3119,1.3051,1.0981,1.052,1.1685,1.1746,1.2319,1.3403,1.3471,1.3553,1.3641,1.377,1.3871,1.396,1.4109,1.417,1.4183,1.4272,1.4299,1.4299,1.4299,1.4299,1.4299,1.4299,1.4299,1.4299,1.4299,1.4299,1.4312,1.4373,1.4509,1.4652,1.4699,1.4726,1.474,1.474,1.474,1.478,1.4936,1.5018,1.5086,1.5167,1.5181,1.5228,1.5384,1.5411,1.5466,1.5615,1.5642,1.5642,1.5642,1.5642,1.5642,1.5642,1.571,1.5723,1.5649,1.5771,1.5791,1.5649,1.5696,1.5703,1.5642,1.5642,1.5608,1.554,1.5391,1.5269,1.5181,1.5181,1.5181,1.5181,1.5181,1.5181,-0.7452,-0.6183,-0.508,-0.0974,0.0,0.0,0.0,0.0,0.0,0.0,0.0,0.0,0.0,0.0,0.0,0.0,0.0,0.0,0.0,0.0,0.0,0.0,0.0,0.0,0.0,0.0,0.1635,0.5392,0.6156,0.8097,1.2118,1.2615,1.2908,1.3057,1.2956,1.2881,1.2847,1.2881,1.2901,1.2901,1.1314,1.1523,1.3057,1.3098,1.32,1.3342,1.3383,1.3464,1.3573,1.3614,1.3688,1.3804,1.4,1.4075,1.4089,1.4245,1.4299,1.4299,1.4299,1.4299,1.4299,1.4299,1.4299,1.4299,1.4299,1.4299,1.4319,1.4394,1.4543,1.4679,1.4685,1.4713,1.4753,1.4787,1.4801,1.4841,1.4991,1.5059,1.5113,1.5221,1.5269,1.5343,1.5499,1.5527,1.5574,1.573,1.575,1.575,1.575,1.575,1.575,1.575,1.5845,1.5866,1.5764,1.5852,1.5866,1.5757,1.575,1.575,1.575,1.575,1.573,1.5696,1.5547,1.5411,1.5296,1.5262,1.5262,1.5296,1.5255,1.5242,-0.7452,-0.6334,-0.5333,-0.109,0.0,0.0,0.0,0.0,0.0,0.0,0.0,0.0,0.0,0.0,0.0,0.0,0.0,0.0,0.0,0.0,0.0,0.0,0.0,0.0,0.0,0.0,0.0966,0.3381,0.528,0.7361,0.9869,1.1566,1.2596,1.2745,1.2745,1.2671,1.2528,1.2671,1.2745,1.2745,1.2728,1.2728,1.2759,1.2908,1.3051,1.3193,1.3336,1.3403,1.3424,1.3566,1.3634,1.3668,1.396,1.4075,1.4089,1.4245,1.4299,1.4299,1.4299,1.4299,1.4299,1.4299,1.4299,1.4299,1.4299,1.4299,1.436,1.4638,1.4624,1.4618,1.5038,1.4943,1.478,1.4923,1.4957,1.4997,1.514,1.5289,1.5391,1.5398,1.5513,1.5662,1.5805,1.5832,1.5886,1.6035,1.6056,1.6056,1.6056,1.6056,1.6056,1.6056,1.6062,1.6069,1.6056,1.6062,1.6069,1.6056,1.6056,1.6056,1.6056,1.6056,1.5988,1.5845,1.5703,1.5622,1.5615,1.5472,1.5472,1.5608,1.5466,1.5398,-0.7138,-0.5243,-0.3538,-0.0782,0.0,0.0,0.0,0.0,0.0,0.0,0.0,0.0,0.0,0.0,0.0,0.0,0.0,0.0,0.0,0.0,0.0,0.0,0.0,0.0,0.0,0.0,0.0951,0.3011,0.5049,0.7275,0.9596,1.1504,1.2569,1.2725,1.2637,1.2515,1.2366,1.117,1.1195,1.2447,1.1179,1.1415,1.2732,1.2786,1.2895,1.3044,1.3193,1.3308,1.3403,1.3458,1.3485,1.3512,1.381,1.3926,1.3953,1.4204,1.4299,1.4299,1.4299,1.4299,1.4299,1.4299,1.4299,1.4299,1.4299,1.4299,1.434,1.4536,1.4624,1.4719,1.4977,1.497,1.4923,1.5072,1.5181,1.5296,1.5445,1.552,1.5554,1.5554,1.5601,1.5683,1.5825,1.5852,1.5906,1.6056,1.6083,1.6083,1.6083,1.6083,1.6083,1.6083,1.6083,1.6083,1.6083,1.6083,1.6083,1.6083,1.6083,1.6083,1.6083,1.6083,1.6056,1.6001,1.5852,1.573,1.5642,1.5486,1.5493,1.5635,1.5486,1.5411,-0.5761,-0.4224,-0.2671,-0.0471,0.0,0.0,0.0,0.0,0.0,0.0,0.0,0.0,0.0,0.0,0.0,0.0,0.0,0.0,0.0,0.0,0.0,0.0,0.0,0.0,0.0,0.0,0.0628,0.1886,0.4698,0.6893,0.8328,1.0958,1.2528,1.2583,1.2433,1.2311,1.2216,1.083,1.0854,1.2291,1.0992,1.1101,1.2651,1.2651,1.2739,1.2888,1.2983,1.3139,1.3329,1.3376,1.3403,1.3424,1.3675,1.3797,1.3871,1.4129,1.4258,1.4299,1.4299,1.4299,1.4299,1.4299,1.4299,1.4299,1.4299,1.4333,1.4401,1.455,1.4699,1.4848,1.5004,1.5079,1.5153,1.5303,1.5452,1.5588,1.5689,1.571,1.571,1.571,1.575,1.5818,1.5913,1.5934,1.5961,1.6069,1.6083,1.6083,1.6083,1.6083,1.6083,1.6083,1.6083,1.6083,1.6083,1.6083,1.6083,1.6083,1.6083,1.6083,1.6083,1.6083,1.6083,1.6083,1.5934,1.5832,1.5791,1.5635,1.5635,1.5784,1.5628,1.5533,0.0,0.0,0.0,-0.047,0.0,0.0,0.0,0.0,0.0,0.0,0.0,0.0,0.0,0.0,0.0,0.0,0.0,0.0,0.0,0.0,0.0,0.0,0.0,0.0,0.0,0.0,0.0,0.0,0.391,0.6217,0.5989,1.0075,1.2427,1.2291,1.2135,1.2054,1.2054,1.2054,1.2128,1.2277,1.2284,1.2366,1.2494,1.2501,1.2583,1.2725,1.2725,1.2895,1.318,1.3329,1.3397,1.3417,1.3566,1.3715,1.3858,1.4014,1.417,1.4299,1.4299,1.4299,1.4299,1.4299,1.4299,1.4299,1.4299,1.4394,1.4536,1.4699,1.4848,1.4997,1.5153,1.5303,1.5459,1.5608,1.575,1.5852,1.5859,1.5859,1.5859,1.5859,1.5981,1.6083,1.6083,1.6083,1.6083,1.6083,1.6083,1.6083,1.6083,1.6083,1.6083,1.6083,1.6083,1.6083,1.6083,1.6083,1.6083,1.6083,1.6083,1.6083,1.6083,1.6083,1.6083,1.6083,1.5934,1.5934,1.6083,1.5927,1.5934,1.6076,1.5927,1.5778,-0.3299,0.0,0.0,0.0,0.0,0.0,0.0,0.0,0.0,0.0,0.0,0.0,0.0,0.0,0.0,0.0,0.0,0.0,0.0,0.0,0.0,0.0,0.0,0.0,0.0,0.0,0.0,0.0,0.3799,0.608,0.606,0.9871,1.2169,1.2128,1.1972,1.1898,1.1898,1.1898,1.1918,1.1959,1.2182,1.2311,1.2352,1.2454,1.2522,1.2569,1.2684,1.284,1.303,1.3173,1.3302,1.3417,1.3566,1.3715,1.3858,1.4014,1.417,1.4299,1.4299,1.4299,1.4299,1.4299,1.4299,1.4299,1.4299,1.4326,1.4414,1.4665,1.4767,1.4889,1.5255,1.5459,1.5615,1.5757,1.5825,1.5886,1.5995,1.6015,1.6015,1.6015,1.6056,1.6083,1.6083,1.6083,1.6083,1.6083,1.6083,1.6083,1.6083,1.6083,1.6083,1.6083,1.6083,1.6083,1.6083,1.6083,1.6083,1.6083,1.6083,1.6083,1.6083,1.6083,1.6083,1.6083,1.6042,1.6042,1.6083,1.5927,1.5934,1.6076,1.5927,1.5832,-0.1886,-0.0942,0.0,0.0,0.0,0.0,0.0,0.0,0.0,0.0,0.0,0.0,0.0,0.0,0.0,0.0,0.0,0.0,0.0,0.0,0.0,0.0,0.0,0.0,0.0,0.0,0.0,0.0,0.3012,0.5578,0.7231,1.0293,1.1904,1.1965,1.1823,1.1742,1.1742,1.1742,1.1775,1.1837,1.2081,1.223,1.2298,1.2433,1.2501,1.2508,1.2664,1.282,1.2969,1.3112,1.3261,1.341,1.3498,1.3661,1.3851,1.3939,1.4116,1.4299,1.4299,1.4299,1.4299,1.4299,1.4299,1.4299,1.4299,1.4387,1.4523,1.4692,1.4875,1.5092,1.5418,1.5615,1.5764,1.5913,1.5947,1.5974,1.6062,1.6083,1.6083,1.6083,1.6083,1.6083,1.6083,1.6083,1.6083,1.6083,1.6083,1.6083,1.6083,1.6083,1.6083,1.6083,1.6083,1.6083,1.6083,1.6083,1.6083,1.6083,1.6083,1.6083,1.6083,1.6083,1.6083,1.6083,1.6083,1.6083,1.6083,1.5995,1.5995,1.6083,1.5988,1.5947,0.0,0.0,0.0,0.0,0.0,0.0,0.0,0.0,0.0,0.0,0.0,0.0,0.0,0.0,0.0,0.0,0.0,0.0,0.0,0.0,0.0,0.0,0.0,0.0,0.0,0.0,0.0,0.0,0.1957,0.4807,0.8547,1.014,1.1089,1.1504,1.1391,1.1332,1.1619,1.1619,1.1687,1.183,1.1986,1.2142,1.2298,1.2433,1.2501,1.2508,1.2664,1.282,1.2969,1.3112,1.3261,1.3403,1.3403,1.3573,1.3817,1.3838,1.4027,1.4278,1.4292,1.4299,1.4299,1.4299,1.4299,1.4299,1.4299,1.4496,1.4719,1.4753,1.5092,1.5466,1.5601,1.5757,1.5913,1.6049,1.6083,1.6083,1.6083,1.6083,1.6083,1.6083,1.6083,1.6083,1.6083,1.6083,1.6083,1.6083,1.6083,1.6083,1.6083,1.6083,1.6083,1.6083,1.6083,1.6083,1.6083,1.6083,1.609,1.6103,1.609,1.609,1.6103,1.609,1.6083,1.6083,1.6083,1.6083,1.6083,1.6083,1.6083,1.6083,1.6083,1.6083,0.0,0.0,0.0,0.0,0.0,0.0,0.0,0.0,0.0,0.0,0.0,0.0,0.0,0.0,0.0,0.0,0.0,0.0,0.0,0.0,0.0,0.0,0.0,0.0,0.0,0.0,0.0,0.0,0.176,0.3953,0.629,0.6696,0.7702,0.9318,0.9296,1.0011,1.1619,1.1619,1.1687,1.183,1.1986,1.2142,1.2298,1.2433,1.2501,1.2508,1.2664,1.282,1.2969,1.3112,1.3261,1.3403,1.3403,1.3512,1.3682,1.3797,1.396,1.4136,1.4258,1.4299,1.4299,1.4299,1.4299,1.4299,1.4299,1.4421,1.4611,1.4855,1.5248,1.5601,1.5635,1.5839,1.6042,1.6076,1.6083,1.6083,1.6083,1.6083,1.6083,1.6083,1.6083,1.6083,1.6083,1.6083,1.6083,1.6083,1.6083,1.6083,1.6083,1.6083,1.6083,1.6083,1.6083,1.6083,1.6083,1.6083,1.6137,1.6259,1.6151,1.6137,1.6259,1.6144,1.6083,1.6083,1.6083,1.6083,1.6083,1.6083,1.6083,1.6083,1.6083,1.6083,0.0,0.0,0.0,0.0,0.0,0.0,0.0,0.0,0.0,0.0,0.0,0.0,0.0,0.0,0.0,0.0,0.0,0.0,0.0,0.0,0.0,0.0,0.0,0.0,0.0,0.0,0.0,0.0,0.1746,0.3342,0.4358,0.5339,0.6634,0.8698,0.8703,0.9579,1.1619,1.1687,1.1728,1.1728,1.2033,1.2176,1.2182,1.24,1.2542,1.2623,1.2779,1.2929,1.3078,1.3227,1.3336,1.3403,1.3403,1.3492,1.3648,1.379,1.3939,1.4095,1.4245,1.4299,1.4299,1.4299,1.4299,1.4312,1.4387,1.4563,1.4787,1.5011,1.535,1.5642,1.5642,1.5859,1.6083,1.6083,1.6083,1.6083,1.6083,1.6083,1.6083,1.6083,1.6083,1.6083,1.6083,1.6083,1.6083,1.6083,1.6083,1.6083,1.6083,1.6083,1.6083,1.6083,1.6083,1.6083,1.6083,1.6083,1.6117,1.6191,1.6123,1.6117,1.6191,1.6123,1.6083,1.6083,1.6083,1.6083,1.6083,1.6083,1.6083,1.6083,1.6083,1.6083,0.0,0.0,0.0,0.0,0.0,0.0,0.0,0.0,0.0,0.0,0.0,0.0,0.0,0.0,0.0,0.0,0.0,0.0,0.0,0.0,0.0,0.0,0.0,0.0,0.0,0.0,0.0,0.0,0.146,0.2334,0.2328,0.3886,0.56,0.7539,0.7977,0.9152,1.1076,1.1623,1.1803,1.1755,1.2115,1.2237,1.2155,1.2427,1.261,1.2739,1.2922,1.3064,1.3186,1.3336,1.3403,1.3403,1.3403,1.3492,1.3648,1.379,1.3939,1.4095,1.4245,1.4299,1.4299,1.4299,1.4319,1.4367,1.4509,1.4746,1.5004,1.514,1.5377,1.5601,1.5635,1.5839,1.6042,1.6076,1.6083,1.6083,1.6083,1.6083,1.6083,1.6083,1.6083,1.6083,1.6083,1.6083,1.6083,1.6083,1.6083,1.6083,1.6083,1.6083,1.6083,1.6083,1.6083,1.6083,1.6083,1.6083,1.6103,1.6164,1.611,1.6103,1.6164,1.611,1.6096,1.6123,1.6096,1.6083,1.6083,1.6083,1.6083,1.6083,1.6083,1.6083,0.0,0.0,0.0,0.0,0.0,0.0,0.0,0.0,0.0,0.0,0.0,0.0,0.0,0.0,0.0,0.0,0.0,0.0,0.0,0.0,0.0,0.0,0.0,0.0,0.0,0.0,0.0,0.0,0.0147,0.0295,0.0292,0.0583,0.16,0.3488,0.5229,0.7152,0.915,1.0932,1.1959,1.2216,1.2264,1.2345,1.2461,1.2623,1.2712,1.2745,1.303,1.3159,1.3186,1.3336,1.3403,1.3403,1.3403,1.3492,1.3648,1.379,1.3939,1.4095,1.4245,1.4299,1.4299,1.4299,1.4387,1.4516,1.4665,1.4835,1.5004,1.514,1.5303,1.5466,1.5601,1.5757,1.5913,1.6049,1.6083,1.6083,1.6083,1.6083,1.6083,1.6083,1.6083,1.6083,1.6083,1.6083,1.6083,1.6083,1.6083,1.6083,1.6083,1.6083,1.6083,1.6083,1.6083,1.6083,1.6083,1.6083,1.6191,1.6456,1.6225,1.6198,1.6463,1.6218,1.6144,1.6279,1.6151,1.6083,1.6083,1.6083,1.6083,1.6083,1.6083,1.6083,0.0,0.0,0.0,0.0,0.0,0.0,0.0,0.0,0.0,0.0,0.0,0.0,0.0,0.0,0.0,0.0,0.0,0.0,0.0,0.0,0.0,0.0,0.0,0.0,0.0,0.0,0.0,0.0,0.0,0.0,0.0,0.0,0.088,0.2823,0.3716,0.5657,0.882,0.9783,1.0289,1.0329,1.1714,1.1773,1.0673,1.1985,1.2779,1.2874,1.3085,1.322,1.3308,1.3376,1.3403,1.3403,1.3403,1.3437,1.3526,1.3756,1.3878,1.3973,1.4217,1.4299,1.4299,1.4299,1.4455,1.4658,1.4719,1.4903,1.5106,1.5167,1.5296,1.5445,1.5601,1.5744,1.5893,1.6042,1.6083,1.6083,1.6083,1.6083,1.6083,1.6083,1.6083,1.6083,1.6083,1.6083,1.6083,1.6083,1.6083,1.6083,1.6083,1.6083,1.6117,1.6205,1.6137,1.6117,1.6205,1.6212,1.6266,1.6388,1.6361,1.6313,1.6266,1.6232,1.6205,1.6178,1.6117,1.6083,1.6083,1.6083,1.6083,1.6083,1.6083,1.6083,0.0,0.0,0.0,0.0,0.0,0.0,0.0,0.0,0.0,0.0,0.0,0.0,0.0,0.0,0.0,0.0,0.0,0.0,0.0,0.0,0.0,0.0,0.0,0.0,0.0,0.0,0.0,0.0,0.0,0.0,0.0,0.0,0.0592,0.2115,0.2568,0.4384,0.7272,0.7942,0.8264,0.8223,1.0537,1.0886,0.9413,1.1704,1.2854,1.2969,1.3152,1.3302,1.3403,1.3403,1.3424,1.3464,1.3464,1.3485,1.3546,1.3763,1.3892,1.4,1.4224,1.4299,1.4299,1.4299,1.4468,1.4679,1.4679,1.4889,1.5126,1.5126,1.5235,1.5391,1.5588,1.5716,1.5845,1.6035,1.6083,1.6083,1.6083,1.6083,1.6083,1.6083,1.6083,1.6083,1.6083,1.6083,1.6083,1.6083,1.6083,1.6083,1.6083,1.6083,1.6123,1.6239,1.6151,1.613,1.6239,1.6246,1.6266,1.6307,1.6483,1.6469,1.6212,1.6273,1.6259,1.6144,1.6103,1.6083,1.6083,1.6083,1.6083,1.6083,1.6083,1.6083,0.0,0.0,0.0,0.0,0.0,0.0,0.0,0.0,0.0,0.0,0.0,0.0,0.0,0.0,0.0,0.0,0.0,0.0,0.0,0.0,0.0,0.0,0.0,0.0,0.0,0.0,0.0,0.0,0.0,0.0,0.0,0.0,0.0,0.0151,0.1965,0.3038,0.3229,0.5222,0.6176,0.6403,0.8434,0.9527,0.9532,1.1848,1.2956,1.2976,1.3268,1.3397,1.3403,1.3403,1.3492,1.362,1.362,1.3702,1.3831,1.3838,1.4027,1.4285,1.4299,1.4299,1.4299,1.4299,1.4401,1.4516,1.4516,1.4733,1.4977,1.4977,1.5079,1.5262,1.556,1.5642,1.5716,1.6015,1.6083,1.6083,1.6083,1.6083,1.6083,1.6083,1.6083,1.6083,1.6083,1.6083,1.6083,1.6083,1.6083,1.6083,1.6083,1.6083,1.6083,1.609,1.6083,1.6083,1.609,1.609,1.6151,1.63,1.6585,1.6673,1.6517,1.6381,1.6307,1.63,1.6157,1.6083,1.6083,1.6083,1.6083,1.6083,1.6083,1.6083,0.0,0.0,0.0,0.0,0.0,0.0,0.0,0.0,0.0,0.0,0.0,0.0,0.0,0.0,0.0,0.0,0.0,0.0,0.0,0.0,0.0,0.0,0.0,0.0,0.0,0.0,0.0,0.0,0.0,0.0,0.0,0.0,0.0,0.0,0.062,0.1707,0.3113,0.3733,0.405,0.4224,0.7656,0.8783,0.7591,1.1255,1.301,1.3112,1.3315,1.3403,1.3403,1.3403,1.3492,1.3627,1.3627,1.3777,1.3994,1.3994,1.4061,1.4163,1.4265,1.4299,1.4299,1.4299,1.4394,1.4529,1.4631,1.4808,1.4991,1.5086,1.5147,1.5255,1.556,1.5642,1.5716,1.6008,1.6083,1.6083,1.6083,1.6083,1.6083,1.6083,1.6083,1.6083,1.6083,1.6083,1.6083,1.6083,1.6083,1.6117,1.6218,1.6232,1.6307,1.6503,1.6347,1.6273,1.6368,1.6286,1.6293,1.6442,1.6639,1.6639,1.6388,1.6429,1.6361,1.6164,1.611,1.6083,1.6083,1.6083,1.6083,1.6083,1.6083,1.6083,0.0,0.0,0.0,0.0,0.0,0.0,0.0,0.0,0.0,0.0,0.0,0.0,0.0,0.0,0.0,0.0,0.0,0.0,0.0,0.0,0.0,0.0,0.0,0.0,0.0,0.0,0.0,0.0,0.0,0.0,0.0,0.0,0.0,0.0,0.0,0.0631,0.2037,0.2046,0.2359,0.313,0.6747,0.805,0.7798,1.1481,1.3085,1.318,1.3336,1.3403,1.3403,1.3458,1.3566,1.3709,1.3763,1.3939,1.4143,1.4089,1.4109,1.4163,1.4265,1.4299,1.4299,1.4299,1.436,1.4462,1.4611,1.4767,1.4909,1.4997,1.514,1.5296,1.5438,1.5594,1.5764,1.5954,1.6042,1.6083,1.6083,1.6083,1.6083,1.6083,1.6123,1.6144,1.609,1.613,1.6144,1.609,1.6083,1.6117,1.6218,1.6279,1.6381,1.6571,1.6469,1.6402,1.6442,1.6408,1.6422,1.6517,1.6666,1.6639,1.6395,1.6469,1.6456,1.632,1.6164,1.6157,1.632,1.6157,1.6083,1.6083,1.6137,1.6137]}]]